<?xml version="1.0" encoding="UTF-8" standalone="no" ?>
<gpx xmlns="http://www.topografix.com/GPX/1/1" xmlns:xsi="http://www.w3.org/2001/XMLSchema-instance" xsi:schemaLocation="http://www.topografix.com/GPX/1/1 http://www.topografix.com/GPX/1/1/gpx.xsd" version="1.1" creator="VisuGPX - https://www.visugpx.com">
  <metadata>
    <name>Liaison SP4 - 925m D+</name>
    <desc><![CDATA[

]]></desc>
  </metadata>
  <trk>
    <name><![CDATA[Liaison SP4 - 925m D+]]></name>
    <trkseg>
      <trkpt lat="43.55628" lon="2.91601">
        <ele>192</ele>
        <time>2019-03-17T14:29:40Z</time>
      </trkpt>
      <trkpt lat="43.55628" lon="2.91601">
        <ele>192</ele>
        <time>2019-03-17T14:29:40Z</time>
      </trkpt>
      <trkpt lat="43.55628" lon="2.91601">
        <ele>192</ele>
        <time>2019-03-17T14:29:40Z</time>
      </trkpt>
      <trkpt lat="43.55626" lon="2.91593">
        <ele>191</ele>
        <time>2019-03-17T14:29:49Z</time>
      </trkpt>
      <trkpt lat="43.55624" lon="2.91591">
        <ele>191</ele>
        <time>2019-03-17T14:29:50Z</time>
      </trkpt>
      <trkpt lat="43.55622" lon="2.91589">
        <ele>191</ele>
        <time>2019-03-17T14:29:51Z</time>
      </trkpt>
      <trkpt lat="43.55619" lon="2.91585">
        <ele>191</ele>
        <time>2019-03-17T14:29:52Z</time>
      </trkpt>
      <trkpt lat="43.55617" lon="2.91581">
        <ele>191</ele>
        <time>2019-03-17T14:29:53Z</time>
      </trkpt>
      <trkpt lat="43.55617" lon="2.91576">
        <ele>191</ele>
        <time>2019-03-17T14:29:54Z</time>
      </trkpt>
      <trkpt lat="43.55616" lon="2.91572">
        <ele>191</ele>
        <time>2019-03-17T14:29:55Z</time>
      </trkpt>
      <trkpt lat="43.55616" lon="2.91567">
        <ele>191</ele>
        <time>2019-03-17T14:29:56Z</time>
      </trkpt>
      <trkpt lat="43.55615" lon="2.91562">
        <ele>191</ele>
        <time>2019-03-17T14:29:57Z</time>
      </trkpt>
      <trkpt lat="43.55614" lon="2.91558">
        <ele>191</ele>
        <time>2019-03-17T14:29:58Z</time>
      </trkpt>
      <trkpt lat="43.55614" lon="2.91553">
        <ele>190</ele>
        <time>2019-03-17T14:29:59Z</time>
      </trkpt>
      <trkpt lat="43.55613" lon="2.91548">
        <ele>190</ele>
        <time>2019-03-17T14:30:00Z</time>
      </trkpt>
      <trkpt lat="43.55612" lon="2.91543">
        <ele>190</ele>
        <time>2019-03-17T14:30:01Z</time>
      </trkpt>
      <trkpt lat="43.55611" lon="2.91538">
        <ele>190</ele>
        <time>2019-03-17T14:30:02Z</time>
      </trkpt>
      <trkpt lat="43.5561" lon="2.91533">
        <ele>190</ele>
        <time>2019-03-17T14:30:03Z</time>
      </trkpt>
      <trkpt lat="43.55609" lon="2.91528">
        <ele>189</ele>
        <time>2019-03-17T14:30:04Z</time>
      </trkpt>
      <trkpt lat="43.55608" lon="2.91523">
        <ele>189</ele>
        <time>2019-03-17T14:30:05Z</time>
      </trkpt>
      <trkpt lat="43.55606" lon="2.91518">
        <ele>189</ele>
        <time>2019-03-17T14:30:06Z</time>
      </trkpt>
      <trkpt lat="43.55605" lon="2.91513">
        <ele>189</ele>
        <time>2019-03-17T14:30:07Z</time>
      </trkpt>
      <trkpt lat="43.55603" lon="2.91508">
        <ele>189</ele>
        <time>2019-03-17T14:30:08Z</time>
      </trkpt>
      <trkpt lat="43.55601" lon="2.91504">
        <ele>189</ele>
        <time>2019-03-17T14:30:09Z</time>
      </trkpt>
      <trkpt lat="43.55599" lon="2.915">
        <ele>189</ele>
        <time>2019-03-17T14:30:10Z</time>
      </trkpt>
      <trkpt lat="43.55597" lon="2.91497">
        <ele>189</ele>
        <time>2019-03-17T14:30:11Z</time>
      </trkpt>
      <trkpt lat="43.55594" lon="2.91493">
        <ele>189</ele>
        <time>2019-03-17T14:30:12Z</time>
      </trkpt>
      <trkpt lat="43.55593" lon="2.91489">
        <ele>189</ele>
        <time>2019-03-17T14:30:13Z</time>
      </trkpt>
      <trkpt lat="43.55591" lon="2.91484">
        <ele>189</ele>
        <time>2019-03-17T14:30:14Z</time>
      </trkpt>
      <trkpt lat="43.5559" lon="2.91479">
        <ele>189</ele>
        <time>2019-03-17T14:30:15Z</time>
      </trkpt>
      <trkpt lat="43.55588" lon="2.91474">
        <ele>189</ele>
        <time>2019-03-17T14:30:16Z</time>
      </trkpt>
      <trkpt lat="43.55587" lon="2.91469">
        <ele>189</ele>
        <time>2019-03-17T14:30:17Z</time>
      </trkpt>
      <trkpt lat="43.55586" lon="2.91463">
        <ele>189</ele>
        <time>2019-03-17T14:30:18Z</time>
      </trkpt>
      <trkpt lat="43.55585" lon="2.91458">
        <ele>189</ele>
        <time>2019-03-17T14:30:19Z</time>
      </trkpt>
      <trkpt lat="43.55584" lon="2.91452">
        <ele>189</ele>
        <time>2019-03-17T14:30:20Z</time>
      </trkpt>
      <trkpt lat="43.55584" lon="2.91447">
        <ele>189</ele>
        <time>2019-03-17T14:30:21Z</time>
      </trkpt>
      <trkpt lat="43.55583" lon="2.91442">
        <ele>189</ele>
        <time>2019-03-17T14:30:22Z</time>
      </trkpt>
      <trkpt lat="43.55582" lon="2.91436">
        <ele>189</ele>
        <time>2019-03-17T14:30:23Z</time>
      </trkpt>
      <trkpt lat="43.55582" lon="2.9143">
        <ele>189</ele>
        <time>2019-03-17T14:30:24Z</time>
      </trkpt>
      <trkpt lat="43.55581" lon="2.91424">
        <ele>189</ele>
        <time>2019-03-17T14:30:25Z</time>
      </trkpt>
      <trkpt lat="43.55581" lon="2.91418">
        <ele>189</ele>
        <time>2019-03-17T14:30:26Z</time>
      </trkpt>
      <trkpt lat="43.5558" lon="2.91412">
        <ele>189</ele>
        <time>2019-03-17T14:30:27Z</time>
      </trkpt>
      <trkpt lat="43.5558" lon="2.91406">
        <ele>189</ele>
        <time>2019-03-17T14:30:28Z</time>
      </trkpt>
      <trkpt lat="43.5558" lon="2.914">
        <ele>189</ele>
        <time>2019-03-17T14:30:29Z</time>
      </trkpt>
      <trkpt lat="43.55579" lon="2.91393">
        <ele>189</ele>
        <time>2019-03-17T14:30:30Z</time>
      </trkpt>
      <trkpt lat="43.55579" lon="2.91387">
        <ele>189</ele>
        <time>2019-03-17T14:30:31Z</time>
      </trkpt>
      <trkpt lat="43.55578" lon="2.91381">
        <ele>189</ele>
        <time>2019-03-17T14:30:32Z</time>
      </trkpt>
      <trkpt lat="43.55577" lon="2.91375">
        <ele>189</ele>
        <time>2019-03-17T14:30:33Z</time>
      </trkpt>
      <trkpt lat="43.55576" lon="2.91369">
        <ele>189</ele>
        <time>2019-03-17T14:30:34Z</time>
      </trkpt>
      <trkpt lat="43.55574" lon="2.91362">
        <ele>189</ele>
        <time>2019-03-17T14:30:35Z</time>
      </trkpt>
      <trkpt lat="43.55573" lon="2.91356">
        <ele>189</ele>
        <time>2019-03-17T14:30:36Z</time>
      </trkpt>
      <trkpt lat="43.55572" lon="2.91351">
        <ele>189</ele>
        <time>2019-03-17T14:30:37Z</time>
      </trkpt>
      <trkpt lat="43.5557" lon="2.91345">
        <ele>189</ele>
        <time>2019-03-17T14:30:38Z</time>
      </trkpt>
      <trkpt lat="43.55569" lon="2.9134">
        <ele>189</ele>
        <time>2019-03-17T14:30:39Z</time>
      </trkpt>
      <trkpt lat="43.55568" lon="2.91334">
        <ele>189</ele>
        <time>2019-03-17T14:30:40Z</time>
      </trkpt>
      <trkpt lat="43.55566" lon="2.91328">
        <ele>189</ele>
        <time>2019-03-17T14:30:41Z</time>
      </trkpt>
      <trkpt lat="43.55564" lon="2.91323">
        <ele>189</ele>
        <time>2019-03-17T14:30:42Z</time>
      </trkpt>
      <trkpt lat="43.55563" lon="2.91317">
        <ele>189</ele>
        <time>2019-03-17T14:30:43Z</time>
      </trkpt>
      <trkpt lat="43.55561" lon="2.91311">
        <ele>189</ele>
        <time>2019-03-17T14:30:44Z</time>
      </trkpt>
      <trkpt lat="43.55559" lon="2.91306">
        <ele>189</ele>
        <time>2019-03-17T14:30:45Z</time>
      </trkpt>
      <trkpt lat="43.55557" lon="2.913">
        <ele>189</ele>
        <time>2019-03-17T14:30:46Z</time>
      </trkpt>
      <trkpt lat="43.55556" lon="2.91295">
        <ele>189</ele>
        <time>2019-03-17T14:30:47Z</time>
      </trkpt>
      <trkpt lat="43.55553" lon="2.91289">
        <ele>189</ele>
        <time>2019-03-17T14:30:48Z</time>
      </trkpt>
      <trkpt lat="43.55551" lon="2.91284">
        <ele>189</ele>
        <time>2019-03-17T14:30:49Z</time>
      </trkpt>
      <trkpt lat="43.55549" lon="2.91279">
        <ele>189</ele>
        <time>2019-03-17T14:30:50Z</time>
      </trkpt>
      <trkpt lat="43.55547" lon="2.91274">
        <ele>189</ele>
        <time>2019-03-17T14:30:51Z</time>
      </trkpt>
      <trkpt lat="43.55544" lon="2.9127">
        <ele>189</ele>
        <time>2019-03-17T14:30:52Z</time>
      </trkpt>
      <trkpt lat="43.55542" lon="2.91265">
        <ele>189</ele>
        <time>2019-03-17T14:30:53Z</time>
      </trkpt>
      <trkpt lat="43.55539" lon="2.9126">
        <ele>189</ele>
        <time>2019-03-17T14:30:54Z</time>
      </trkpt>
      <trkpt lat="43.55536" lon="2.91256">
        <ele>189</ele>
        <time>2019-03-17T14:30:55Z</time>
      </trkpt>
      <trkpt lat="43.55533" lon="2.91251">
        <ele>189</ele>
        <time>2019-03-17T14:30:56Z</time>
      </trkpt>
      <trkpt lat="43.5553" lon="2.91247">
        <ele>189</ele>
        <time>2019-03-17T14:30:57Z</time>
      </trkpt>
      <trkpt lat="43.55528" lon="2.91242">
        <ele>189</ele>
        <time>2019-03-17T14:30:58Z</time>
      </trkpt>
      <trkpt lat="43.55526" lon="2.91238">
        <ele>189</ele>
        <time>2019-03-17T14:30:59Z</time>
      </trkpt>
      <trkpt lat="43.55524" lon="2.91233">
        <ele>189</ele>
        <time>2019-03-17T14:31:00Z</time>
      </trkpt>
      <trkpt lat="43.55521" lon="2.91229">
        <ele>189</ele>
        <time>2019-03-17T14:31:01Z</time>
      </trkpt>
      <trkpt lat="43.55519" lon="2.91224">
        <ele>189</ele>
        <time>2019-03-17T14:31:02Z</time>
      </trkpt>
      <trkpt lat="43.55517" lon="2.91219">
        <ele>189</ele>
        <time>2019-03-17T14:31:03Z</time>
      </trkpt>
      <trkpt lat="43.55514" lon="2.91214">
        <ele>189</ele>
        <time>2019-03-17T14:31:04Z</time>
      </trkpt>
      <trkpt lat="43.55512" lon="2.91209">
        <ele>189</ele>
        <time>2019-03-17T14:31:05Z</time>
      </trkpt>
      <trkpt lat="43.5551" lon="2.91205">
        <ele>189</ele>
        <time>2019-03-17T14:31:06Z</time>
      </trkpt>
      <trkpt lat="43.55508" lon="2.91201">
        <ele>189</ele>
        <time>2019-03-17T14:31:07Z</time>
      </trkpt>
      <trkpt lat="43.55505" lon="2.91196">
        <ele>189</ele>
        <time>2019-03-17T14:31:08Z</time>
      </trkpt>
      <trkpt lat="43.55502" lon="2.91193">
        <ele>189</ele>
        <time>2019-03-17T14:31:09Z</time>
      </trkpt>
      <trkpt lat="43.555" lon="2.91189">
        <ele>189</ele>
        <time>2019-03-17T14:31:10Z</time>
      </trkpt>
      <trkpt lat="43.55498" lon="2.91186">
        <ele>189</ele>
        <time>2019-03-17T14:31:11Z</time>
      </trkpt>
      <trkpt lat="43.55496" lon="2.91183">
        <ele>189</ele>
        <time>2019-03-17T14:31:12Z</time>
      </trkpt>
      <trkpt lat="43.55494" lon="2.9118">
        <ele>189</ele>
        <time>2019-03-17T14:31:13Z</time>
      </trkpt>
      <trkpt lat="43.55491" lon="2.91177">
        <ele>189</ele>
        <time>2019-03-17T14:31:14Z</time>
      </trkpt>
      <trkpt lat="43.55489" lon="2.91175">
        <ele>189</ele>
        <time>2019-03-17T14:31:15Z</time>
      </trkpt>
      <trkpt lat="43.55487" lon="2.91172">
        <ele>189</ele>
        <time>2019-03-17T14:31:16Z</time>
      </trkpt>
      <trkpt lat="43.55484" lon="2.91169">
        <ele>189</ele>
        <time>2019-03-17T14:31:17Z</time>
      </trkpt>
      <trkpt lat="43.5548" lon="2.91166">
        <ele>189</ele>
        <time>2019-03-17T14:31:18Z</time>
      </trkpt>
      <trkpt lat="43.55477" lon="2.91162">
        <ele>189</ele>
        <time>2019-03-17T14:31:19Z</time>
      </trkpt>
      <trkpt lat="43.55474" lon="2.91159">
        <ele>189</ele>
        <time>2019-03-17T14:31:20Z</time>
      </trkpt>
      <trkpt lat="43.55472" lon="2.91156">
        <ele>189</ele>
        <time>2019-03-17T14:31:21Z</time>
      </trkpt>
      <trkpt lat="43.55469" lon="2.91153">
        <ele>189</ele>
        <time>2019-03-17T14:31:22Z</time>
      </trkpt>
      <trkpt lat="43.55466" lon="2.9115">
        <ele>189</ele>
        <time>2019-03-17T14:31:23Z</time>
      </trkpt>
      <trkpt lat="43.55462" lon="2.91147">
        <ele>189</ele>
        <time>2019-03-17T14:31:24Z</time>
      </trkpt>
      <trkpt lat="43.55458" lon="2.91144">
        <ele>189</ele>
        <time>2019-03-17T14:31:25Z</time>
      </trkpt>
      <trkpt lat="43.55454" lon="2.91142">
        <ele>189</ele>
        <time>2019-03-17T14:31:26Z</time>
      </trkpt>
      <trkpt lat="43.5545" lon="2.9114">
        <ele>189</ele>
        <time>2019-03-17T14:31:27Z</time>
      </trkpt>
      <trkpt lat="43.55447" lon="2.91137">
        <ele>189</ele>
        <time>2019-03-17T14:31:28Z</time>
      </trkpt>
      <trkpt lat="43.55443" lon="2.91135">
        <ele>189</ele>
        <time>2019-03-17T14:31:29Z</time>
      </trkpt>
      <trkpt lat="43.55439" lon="2.91132">
        <ele>189</ele>
        <time>2019-03-17T14:31:30Z</time>
      </trkpt>
      <trkpt lat="43.55434" lon="2.9113">
        <ele>189</ele>
        <time>2019-03-17T14:31:31Z</time>
      </trkpt>
      <trkpt lat="43.5543" lon="2.91127">
        <ele>189</ele>
        <time>2019-03-17T14:31:32Z</time>
      </trkpt>
      <trkpt lat="43.55426" lon="2.91125">
        <ele>189</ele>
        <time>2019-03-17T14:31:33Z</time>
      </trkpt>
      <trkpt lat="43.55422" lon="2.91123">
        <ele>189</ele>
        <time>2019-03-17T14:31:34Z</time>
      </trkpt>
      <trkpt lat="43.55418" lon="2.91121">
        <ele>189</ele>
        <time>2019-03-17T14:31:35Z</time>
      </trkpt>
      <trkpt lat="43.55414" lon="2.91119">
        <ele>189</ele>
        <time>2019-03-17T14:31:36Z</time>
      </trkpt>
      <trkpt lat="43.5541" lon="2.91116">
        <ele>189</ele>
        <time>2019-03-17T14:31:37Z</time>
      </trkpt>
      <trkpt lat="43.55406" lon="2.91114">
        <ele>189</ele>
        <time>2019-03-17T14:31:38Z</time>
      </trkpt>
      <trkpt lat="43.55402" lon="2.91111">
        <ele>189</ele>
        <time>2019-03-17T14:31:39Z</time>
      </trkpt>
      <trkpt lat="43.55398" lon="2.91108">
        <ele>189</ele>
        <time>2019-03-17T14:31:40Z</time>
      </trkpt>
      <trkpt lat="43.55394" lon="2.91105">
        <ele>189</ele>
        <time>2019-03-17T14:31:41Z</time>
      </trkpt>
      <trkpt lat="43.55391" lon="2.91103">
        <ele>189</ele>
        <time>2019-03-17T14:31:42Z</time>
      </trkpt>
      <trkpt lat="43.55387" lon="2.911">
        <ele>189</ele>
        <time>2019-03-17T14:31:43Z</time>
      </trkpt>
      <trkpt lat="43.55384" lon="2.91098">
        <ele>189</ele>
        <time>2019-03-17T14:31:44Z</time>
      </trkpt>
      <trkpt lat="43.5538" lon="2.91095">
        <ele>189</ele>
        <time>2019-03-17T14:31:45Z</time>
      </trkpt>
      <trkpt lat="43.55376" lon="2.91092">
        <ele>189</ele>
        <time>2019-03-17T14:31:46Z</time>
      </trkpt>
      <trkpt lat="43.55372" lon="2.91089">
        <ele>189</ele>
        <time>2019-03-17T14:31:47Z</time>
      </trkpt>
      <trkpt lat="43.55367" lon="2.91086">
        <ele>189</ele>
        <time>2019-03-17T14:31:48Z</time>
      </trkpt>
      <trkpt lat="43.55363" lon="2.91084">
        <ele>189</ele>
        <time>2019-03-17T14:31:49Z</time>
      </trkpt>
      <trkpt lat="43.55359" lon="2.9108">
        <ele>189</ele>
        <time>2019-03-17T14:31:50Z</time>
      </trkpt>
      <trkpt lat="43.55355" lon="2.91077">
        <ele>189</ele>
        <time>2019-03-17T14:31:51Z</time>
      </trkpt>
      <trkpt lat="43.55351" lon="2.91074">
        <ele>190</ele>
        <time>2019-03-17T14:31:52Z</time>
      </trkpt>
      <trkpt lat="43.55348" lon="2.91071">
        <ele>190</ele>
        <time>2019-03-17T14:31:53Z</time>
      </trkpt>
      <trkpt lat="43.55344" lon="2.91068">
        <ele>190</ele>
        <time>2019-03-17T14:31:54Z</time>
      </trkpt>
      <trkpt lat="43.5534" lon="2.91065">
        <ele>190</ele>
        <time>2019-03-17T14:31:55Z</time>
      </trkpt>
      <trkpt lat="43.55336" lon="2.91061">
        <ele>190</ele>
        <time>2019-03-17T14:31:56Z</time>
      </trkpt>
      <trkpt lat="43.55333" lon="2.91058">
        <ele>190</ele>
        <time>2019-03-17T14:31:57Z</time>
      </trkpt>
      <trkpt lat="43.5533" lon="2.91055">
        <ele>190</ele>
        <time>2019-03-17T14:31:58Z</time>
      </trkpt>
      <trkpt lat="43.55328" lon="2.91052">
        <ele>190</ele>
        <time>2019-03-17T14:31:59Z</time>
      </trkpt>
      <trkpt lat="43.55324" lon="2.91049">
        <ele>190</ele>
        <time>2019-03-17T14:32:00Z</time>
      </trkpt>
      <trkpt lat="43.55321" lon="2.91045">
        <ele>190</ele>
        <time>2019-03-17T14:32:01Z</time>
      </trkpt>
      <trkpt lat="43.55317" lon="2.91041">
        <ele>190</ele>
        <time>2019-03-17T14:32:02Z</time>
      </trkpt>
      <trkpt lat="43.55314" lon="2.91037">
        <ele>190</ele>
        <time>2019-03-17T14:32:03Z</time>
      </trkpt>
      <trkpt lat="43.55311" lon="2.91033">
        <ele>190</ele>
        <time>2019-03-17T14:32:04Z</time>
      </trkpt>
      <trkpt lat="43.55308" lon="2.91029">
        <ele>190</ele>
        <time>2019-03-17T14:32:05Z</time>
      </trkpt>
      <trkpt lat="43.55304" lon="2.91025">
        <ele>190</ele>
        <time>2019-03-17T14:32:06Z</time>
      </trkpt>
      <trkpt lat="43.55301" lon="2.91021">
        <ele>190</ele>
        <time>2019-03-17T14:32:07Z</time>
      </trkpt>
      <trkpt lat="43.55297" lon="2.91017">
        <ele>190</ele>
        <time>2019-03-17T14:32:08Z</time>
      </trkpt>
      <trkpt lat="43.55294" lon="2.91012">
        <ele>191</ele>
        <time>2019-03-17T14:32:09Z</time>
      </trkpt>
      <trkpt lat="43.5529" lon="2.91008">
        <ele>191</ele>
        <time>2019-03-17T14:32:10Z</time>
      </trkpt>
      <trkpt lat="43.55287" lon="2.91004">
        <ele>191</ele>
        <time>2019-03-17T14:32:11Z</time>
      </trkpt>
      <trkpt lat="43.55284" lon="2.90999">
        <ele>191</ele>
        <time>2019-03-17T14:32:12Z</time>
      </trkpt>
      <trkpt lat="43.55281" lon="2.90995">
        <ele>191</ele>
        <time>2019-03-17T14:32:13Z</time>
      </trkpt>
      <trkpt lat="43.55278" lon="2.90991">
        <ele>191</ele>
        <time>2019-03-17T14:32:14Z</time>
      </trkpt>
      <trkpt lat="43.55276" lon="2.90987">
        <ele>191</ele>
        <time>2019-03-17T14:32:15Z</time>
      </trkpt>
      <trkpt lat="43.55273" lon="2.90983">
        <ele>191</ele>
        <time>2019-03-17T14:32:16Z</time>
      </trkpt>
      <trkpt lat="43.55271" lon="2.90979">
        <ele>191</ele>
        <time>2019-03-17T14:32:17Z</time>
      </trkpt>
      <trkpt lat="43.55269" lon="2.90974">
        <ele>191</ele>
        <time>2019-03-17T14:32:18Z</time>
      </trkpt>
      <trkpt lat="43.55266" lon="2.9097">
        <ele>191</ele>
        <time>2019-03-17T14:32:19Z</time>
      </trkpt>
      <trkpt lat="43.55264" lon="2.90965">
        <ele>191</ele>
        <time>2019-03-17T14:32:20Z</time>
      </trkpt>
      <trkpt lat="43.55261" lon="2.90961">
        <ele>191</ele>
        <time>2019-03-17T14:32:21Z</time>
      </trkpt>
      <trkpt lat="43.55259" lon="2.90956">
        <ele>192</ele>
        <time>2019-03-17T14:32:22Z</time>
      </trkpt>
      <trkpt lat="43.55257" lon="2.90952">
        <ele>192</ele>
        <time>2019-03-17T14:32:23Z</time>
      </trkpt>
      <trkpt lat="43.55255" lon="2.90947">
        <ele>192</ele>
        <time>2019-03-17T14:32:24Z</time>
      </trkpt>
      <trkpt lat="43.55253" lon="2.90942">
        <ele>192</ele>
        <time>2019-03-17T14:32:25Z</time>
      </trkpt>
      <trkpt lat="43.55251" lon="2.90937">
        <ele>192</ele>
        <time>2019-03-17T14:32:26Z</time>
      </trkpt>
      <trkpt lat="43.55249" lon="2.90932">
        <ele>192</ele>
        <time>2019-03-17T14:32:27Z</time>
      </trkpt>
      <trkpt lat="43.55247" lon="2.90928">
        <ele>192</ele>
        <time>2019-03-17T14:32:28Z</time>
      </trkpt>
      <trkpt lat="43.55244" lon="2.90923">
        <ele>192</ele>
        <time>2019-03-17T14:32:29Z</time>
      </trkpt>
      <trkpt lat="43.55242" lon="2.90918">
        <ele>192</ele>
        <time>2019-03-17T14:32:30Z</time>
      </trkpt>
      <trkpt lat="43.5524" lon="2.90913">
        <ele>193</ele>
        <time>2019-03-17T14:32:31Z</time>
      </trkpt>
      <trkpt lat="43.55238" lon="2.90908">
        <ele>193</ele>
        <time>2019-03-17T14:32:32Z</time>
      </trkpt>
      <trkpt lat="43.55237" lon="2.90903">
        <ele>193</ele>
        <time>2019-03-17T14:32:33Z</time>
      </trkpt>
      <trkpt lat="43.55236" lon="2.90898">
        <ele>193</ele>
        <time>2019-03-17T14:32:34Z</time>
      </trkpt>
      <trkpt lat="43.55235" lon="2.90893">
        <ele>193</ele>
        <time>2019-03-17T14:32:35Z</time>
      </trkpt>
      <trkpt lat="43.55233" lon="2.90887">
        <ele>193</ele>
        <time>2019-03-17T14:32:36Z</time>
      </trkpt>
      <trkpt lat="43.55232" lon="2.90882">
        <ele>193</ele>
        <time>2019-03-17T14:32:37Z</time>
      </trkpt>
      <trkpt lat="43.5523" lon="2.90878">
        <ele>193</ele>
        <time>2019-03-17T14:32:38Z</time>
      </trkpt>
      <trkpt lat="43.55228" lon="2.90873">
        <ele>193</ele>
        <time>2019-03-17T14:32:39Z</time>
      </trkpt>
      <trkpt lat="43.55227" lon="2.90868">
        <ele>194</ele>
        <time>2019-03-17T14:32:40Z</time>
      </trkpt>
      <trkpt lat="43.55225" lon="2.90863">
        <ele>194</ele>
        <time>2019-03-17T14:32:41Z</time>
      </trkpt>
      <trkpt lat="43.55224" lon="2.90858">
        <ele>194</ele>
        <time>2019-03-17T14:32:42Z</time>
      </trkpt>
      <trkpt lat="43.55222" lon="2.90854">
        <ele>194</ele>
        <time>2019-03-17T14:32:43Z</time>
      </trkpt>
      <trkpt lat="43.5522" lon="2.90849">
        <ele>194</ele>
        <time>2019-03-17T14:32:44Z</time>
      </trkpt>
      <trkpt lat="43.55219" lon="2.90845">
        <ele>194</ele>
        <time>2019-03-17T14:32:45Z</time>
      </trkpt>
      <trkpt lat="43.55217" lon="2.9084">
        <ele>194</ele>
        <time>2019-03-17T14:32:46Z</time>
      </trkpt>
      <trkpt lat="43.55215" lon="2.90835">
        <ele>194</ele>
        <time>2019-03-17T14:32:47Z</time>
      </trkpt>
      <trkpt lat="43.55214" lon="2.90831">
        <ele>194</ele>
        <time>2019-03-17T14:32:48Z</time>
      </trkpt>
      <trkpt lat="43.55211" lon="2.90826">
        <ele>194</ele>
        <time>2019-03-17T14:32:49Z</time>
      </trkpt>
      <trkpt lat="43.5521" lon="2.90821">
        <ele>194</ele>
        <time>2019-03-17T14:32:50Z</time>
      </trkpt>
      <trkpt lat="43.55209" lon="2.90816">
        <ele>194</ele>
        <time>2019-03-17T14:32:51Z</time>
      </trkpt>
      <trkpt lat="43.55207" lon="2.90811">
        <ele>194</ele>
        <time>2019-03-17T14:32:52Z</time>
      </trkpt>
      <trkpt lat="43.55206" lon="2.90806">
        <ele>194</ele>
        <time>2019-03-17T14:32:53Z</time>
      </trkpt>
      <trkpt lat="43.55205" lon="2.908">
        <ele>194</ele>
        <time>2019-03-17T14:32:54Z</time>
      </trkpt>
      <trkpt lat="43.55203" lon="2.90795">
        <ele>194</ele>
        <time>2019-03-17T14:32:55Z</time>
      </trkpt>
      <trkpt lat="43.55202" lon="2.9079">
        <ele>195</ele>
        <time>2019-03-17T14:32:56Z</time>
      </trkpt>
      <trkpt lat="43.552" lon="2.90784">
        <ele>195</ele>
        <time>2019-03-17T14:32:57Z</time>
      </trkpt>
      <trkpt lat="43.55199" lon="2.90779">
        <ele>195</ele>
        <time>2019-03-17T14:32:58Z</time>
      </trkpt>
      <trkpt lat="43.55197" lon="2.90774">
        <ele>195</ele>
        <time>2019-03-17T14:32:59Z</time>
      </trkpt>
      <trkpt lat="43.55195" lon="2.90769">
        <ele>195</ele>
        <time>2019-03-17T14:33:00Z</time>
      </trkpt>
      <trkpt lat="43.55194" lon="2.90764">
        <ele>195</ele>
        <time>2019-03-17T14:33:01Z</time>
      </trkpt>
      <trkpt lat="43.55193" lon="2.90758">
        <ele>195</ele>
        <time>2019-03-17T14:33:02Z</time>
      </trkpt>
      <trkpt lat="43.55192" lon="2.90753">
        <ele>196</ele>
        <time>2019-03-17T14:33:03Z</time>
      </trkpt>
      <trkpt lat="43.55191" lon="2.90748">
        <ele>196</ele>
        <time>2019-03-17T14:33:04Z</time>
      </trkpt>
      <trkpt lat="43.5519" lon="2.90743">
        <ele>196</ele>
        <time>2019-03-17T14:33:05Z</time>
      </trkpt>
      <trkpt lat="43.55189" lon="2.90738">
        <ele>196</ele>
        <time>2019-03-17T14:33:06Z</time>
      </trkpt>
      <trkpt lat="43.55187" lon="2.90734">
        <ele>196</ele>
        <time>2019-03-17T14:33:07Z</time>
      </trkpt>
      <trkpt lat="43.55186" lon="2.90729">
        <ele>196</ele>
        <time>2019-03-17T14:33:08Z</time>
      </trkpt>
      <trkpt lat="43.55184" lon="2.90724">
        <ele>196</ele>
        <time>2019-03-17T14:33:09Z</time>
      </trkpt>
      <trkpt lat="43.55183" lon="2.90719">
        <ele>196</ele>
        <time>2019-03-17T14:33:10Z</time>
      </trkpt>
      <trkpt lat="43.55181" lon="2.90714">
        <ele>196</ele>
        <time>2019-03-17T14:33:11Z</time>
      </trkpt>
      <trkpt lat="43.55179" lon="2.90709">
        <ele>196</ele>
        <time>2019-03-17T14:33:12Z</time>
      </trkpt>
      <trkpt lat="43.55178" lon="2.90704">
        <ele>196</ele>
        <time>2019-03-17T14:33:13Z</time>
      </trkpt>
      <trkpt lat="43.55176" lon="2.90699">
        <ele>196</ele>
        <time>2019-03-17T14:33:14Z</time>
      </trkpt>
      <trkpt lat="43.55175" lon="2.90695">
        <ele>196</ele>
        <time>2019-03-17T14:33:15Z</time>
      </trkpt>
      <trkpt lat="43.55173" lon="2.9069">
        <ele>196</ele>
        <time>2019-03-17T14:33:16Z</time>
      </trkpt>
      <trkpt lat="43.55171" lon="2.90686">
        <ele>196</ele>
        <time>2019-03-17T14:33:17Z</time>
      </trkpt>
      <trkpt lat="43.55169" lon="2.90681">
        <ele>196</ele>
        <time>2019-03-17T14:33:18Z</time>
      </trkpt>
      <trkpt lat="43.55167" lon="2.90676">
        <ele>196</ele>
        <time>2019-03-17T14:33:19Z</time>
      </trkpt>
      <trkpt lat="43.55165" lon="2.90672">
        <ele>196</ele>
        <time>2019-03-17T14:33:20Z</time>
      </trkpt>
      <trkpt lat="43.55163" lon="2.90667">
        <ele>196</ele>
        <time>2019-03-17T14:33:21Z</time>
      </trkpt>
      <trkpt lat="43.55161" lon="2.90663">
        <ele>196</ele>
        <time>2019-03-17T14:33:22Z</time>
      </trkpt>
      <trkpt lat="43.55159" lon="2.90658">
        <ele>196</ele>
        <time>2019-03-17T14:33:23Z</time>
      </trkpt>
      <trkpt lat="43.55156" lon="2.90654">
        <ele>196</ele>
        <time>2019-03-17T14:33:24Z</time>
      </trkpt>
      <trkpt lat="43.55154" lon="2.9065">
        <ele>196</ele>
        <time>2019-03-17T14:33:25Z</time>
      </trkpt>
      <trkpt lat="43.55151" lon="2.90646">
        <ele>196</ele>
        <time>2019-03-17T14:33:26Z</time>
      </trkpt>
      <trkpt lat="43.55149" lon="2.90642">
        <ele>196</ele>
        <time>2019-03-17T14:33:27Z</time>
      </trkpt>
      <trkpt lat="43.55146" lon="2.90638">
        <ele>196</ele>
        <time>2019-03-17T14:33:28Z</time>
      </trkpt>
      <trkpt lat="43.55143" lon="2.90633">
        <ele>196</ele>
        <time>2019-03-17T14:33:29Z</time>
      </trkpt>
      <trkpt lat="43.55141" lon="2.90629">
        <ele>196</ele>
        <time>2019-03-17T14:33:30Z</time>
      </trkpt>
      <trkpt lat="43.55138" lon="2.90625">
        <ele>197</ele>
        <time>2019-03-17T14:33:31Z</time>
      </trkpt>
      <trkpt lat="43.55134" lon="2.9062">
        <ele>197</ele>
        <time>2019-03-17T14:33:32Z</time>
      </trkpt>
      <trkpt lat="43.55132" lon="2.90615">
        <ele>197</ele>
        <time>2019-03-17T14:33:33Z</time>
      </trkpt>
      <trkpt lat="43.55129" lon="2.9061">
        <ele>197</ele>
        <time>2019-03-17T14:33:34Z</time>
      </trkpt>
      <trkpt lat="43.55127" lon="2.90606">
        <ele>197</ele>
        <time>2019-03-17T14:33:35Z</time>
      </trkpt>
      <trkpt lat="43.55124" lon="2.90602">
        <ele>197</ele>
        <time>2019-03-17T14:33:36Z</time>
      </trkpt>
      <trkpt lat="43.55122" lon="2.90597">
        <ele>197</ele>
        <time>2019-03-17T14:33:37Z</time>
      </trkpt>
      <trkpt lat="43.55119" lon="2.90593">
        <ele>197</ele>
        <time>2019-03-17T14:33:38Z</time>
      </trkpt>
      <trkpt lat="43.55116" lon="2.90589">
        <ele>197</ele>
        <time>2019-03-17T14:33:39Z</time>
      </trkpt>
      <trkpt lat="43.55112" lon="2.90585">
        <ele>197</ele>
        <time>2019-03-17T14:33:40Z</time>
      </trkpt>
      <trkpt lat="43.55109" lon="2.90581">
        <ele>197</ele>
        <time>2019-03-17T14:33:41Z</time>
      </trkpt>
      <trkpt lat="43.55106" lon="2.90577">
        <ele>197</ele>
        <time>2019-03-17T14:33:42Z</time>
      </trkpt>
      <trkpt lat="43.55103" lon="2.90573">
        <ele>197</ele>
        <time>2019-03-17T14:33:43Z</time>
      </trkpt>
      <trkpt lat="43.55101" lon="2.90569">
        <ele>197</ele>
        <time>2019-03-17T14:33:44Z</time>
      </trkpt>
      <trkpt lat="43.55098" lon="2.90565">
        <ele>198</ele>
        <time>2019-03-17T14:33:45Z</time>
      </trkpt>
      <trkpt lat="43.55096" lon="2.90561">
        <ele>198</ele>
        <time>2019-03-17T14:33:46Z</time>
      </trkpt>
      <trkpt lat="43.55093" lon="2.90557">
        <ele>198</ele>
        <time>2019-03-17T14:33:47Z</time>
      </trkpt>
      <trkpt lat="43.55091" lon="2.90554">
        <ele>198</ele>
        <time>2019-03-17T14:33:48Z</time>
      </trkpt>
      <trkpt lat="43.55089" lon="2.90551">
        <ele>198</ele>
        <time>2019-03-17T14:33:49Z</time>
      </trkpt>
      <trkpt lat="43.55088" lon="2.90547">
        <ele>198</ele>
        <time>2019-03-17T14:33:50Z</time>
      </trkpt>
      <trkpt lat="43.55087" lon="2.90544">
        <ele>198</ele>
        <time>2019-03-17T14:33:51Z</time>
      </trkpt>
      <trkpt lat="43.55085" lon="2.9054">
        <ele>198</ele>
        <time>2019-03-17T14:33:52Z</time>
      </trkpt>
      <trkpt lat="43.55084" lon="2.90538">
        <ele>198</ele>
        <time>2019-03-17T14:33:53Z</time>
      </trkpt>
      <trkpt lat="43.55084" lon="2.90536">
        <ele>198</ele>
        <time>2019-03-17T14:33:54Z</time>
      </trkpt>
      <trkpt lat="43.55083" lon="2.90536">
        <ele>198</ele>
        <time>2019-03-17T14:33:55Z</time>
      </trkpt>
      <trkpt lat="43.55079" lon="2.90523">
        <ele>199</ele>
        <time>2019-03-17T14:34:27Z</time>
      </trkpt>
      <trkpt lat="43.55078" lon="2.90519">
        <ele>199</ele>
        <time>2019-03-17T14:34:28Z</time>
      </trkpt>
      <trkpt lat="43.55076" lon="2.90515">
        <ele>199</ele>
        <time>2019-03-17T14:34:29Z</time>
      </trkpt>
      <trkpt lat="43.55074" lon="2.9051">
        <ele>199</ele>
        <time>2019-03-17T14:34:30Z</time>
      </trkpt>
      <trkpt lat="43.55071" lon="2.90505">
        <ele>199</ele>
        <time>2019-03-17T14:34:31Z</time>
      </trkpt>
      <trkpt lat="43.55069" lon="2.905">
        <ele>199</ele>
        <time>2019-03-17T14:34:32Z</time>
      </trkpt>
      <trkpt lat="43.55066" lon="2.90494">
        <ele>199</ele>
        <time>2019-03-17T14:34:33Z</time>
      </trkpt>
      <trkpt lat="43.55064" lon="2.90488">
        <ele>199</ele>
        <time>2019-03-17T14:34:34Z</time>
      </trkpt>
      <trkpt lat="43.55062" lon="2.90482">
        <ele>199</ele>
        <time>2019-03-17T14:34:35Z</time>
      </trkpt>
      <trkpt lat="43.5506" lon="2.90476">
        <ele>199</ele>
        <time>2019-03-17T14:34:36Z</time>
      </trkpt>
      <trkpt lat="43.55058" lon="2.90471">
        <ele>199</ele>
        <time>2019-03-17T14:34:37Z</time>
      </trkpt>
      <trkpt lat="43.55056" lon="2.90464">
        <ele>199</ele>
        <time>2019-03-17T14:34:38Z</time>
      </trkpt>
      <trkpt lat="43.55054" lon="2.90458">
        <ele>199</ele>
        <time>2019-03-17T14:34:39Z</time>
      </trkpt>
      <trkpt lat="43.55052" lon="2.90452">
        <ele>199</ele>
        <time>2019-03-17T14:34:40Z</time>
      </trkpt>
      <trkpt lat="43.55051" lon="2.90446">
        <ele>199</ele>
        <time>2019-03-17T14:34:41Z</time>
      </trkpt>
      <trkpt lat="43.55049" lon="2.9044">
        <ele>199</ele>
        <time>2019-03-17T14:34:42Z</time>
      </trkpt>
      <trkpt lat="43.55048" lon="2.90434">
        <ele>199</ele>
        <time>2019-03-17T14:34:43Z</time>
      </trkpt>
      <trkpt lat="43.55047" lon="2.90427">
        <ele>199</ele>
        <time>2019-03-17T14:34:44Z</time>
      </trkpt>
      <trkpt lat="43.55045" lon="2.90421">
        <ele>199</ele>
        <time>2019-03-17T14:34:45Z</time>
      </trkpt>
      <trkpt lat="43.55044" lon="2.90415">
        <ele>199</ele>
        <time>2019-03-17T14:34:46Z</time>
      </trkpt>
      <trkpt lat="43.55042" lon="2.90408">
        <ele>199</ele>
        <time>2019-03-17T14:34:47Z</time>
      </trkpt>
      <trkpt lat="43.55041" lon="2.90401">
        <ele>199</ele>
        <time>2019-03-17T14:34:48Z</time>
      </trkpt>
      <trkpt lat="43.5504" lon="2.90394">
        <ele>199</ele>
        <time>2019-03-17T14:34:49Z</time>
      </trkpt>
      <trkpt lat="43.55039" lon="2.90388">
        <ele>199</ele>
        <time>2019-03-17T14:34:50Z</time>
      </trkpt>
      <trkpt lat="43.55038" lon="2.90382">
        <ele>199</ele>
        <time>2019-03-17T14:34:51Z</time>
      </trkpt>
      <trkpt lat="43.55037" lon="2.90376">
        <ele>199</ele>
        <time>2019-03-17T14:34:52Z</time>
      </trkpt>
      <trkpt lat="43.55036" lon="2.9037">
        <ele>199</ele>
        <time>2019-03-17T14:34:53Z</time>
      </trkpt>
      <trkpt lat="43.55036" lon="2.90364">
        <ele>199</ele>
        <time>2019-03-17T14:34:54Z</time>
      </trkpt>
      <trkpt lat="43.55035" lon="2.90358">
        <ele>199</ele>
        <time>2019-03-17T14:34:55Z</time>
      </trkpt>
      <trkpt lat="43.55033" lon="2.90353">
        <ele>199</ele>
        <time>2019-03-17T14:34:56Z</time>
      </trkpt>
      <trkpt lat="43.55031" lon="2.90347">
        <ele>199</ele>
        <time>2019-03-17T14:34:57Z</time>
      </trkpt>
      <trkpt lat="43.5503" lon="2.90342">
        <ele>199</ele>
        <time>2019-03-17T14:34:58Z</time>
      </trkpt>
      <trkpt lat="43.55028" lon="2.90336">
        <ele>199</ele>
        <time>2019-03-17T14:34:59Z</time>
      </trkpt>
      <trkpt lat="43.55027" lon="2.90329">
        <ele>199</ele>
        <time>2019-03-17T14:35:00Z</time>
      </trkpt>
      <trkpt lat="43.55026" lon="2.90323">
        <ele>199</ele>
        <time>2019-03-17T14:35:01Z</time>
      </trkpt>
      <trkpt lat="43.55025" lon="2.90316">
        <ele>199</ele>
        <time>2019-03-17T14:35:02Z</time>
      </trkpt>
      <trkpt lat="43.55024" lon="2.90309">
        <ele>199</ele>
        <time>2019-03-17T14:35:03Z</time>
      </trkpt>
      <trkpt lat="43.55024" lon="2.90301">
        <ele>199</ele>
        <time>2019-03-17T14:35:04Z</time>
      </trkpt>
      <trkpt lat="43.55024" lon="2.90294">
        <ele>199</ele>
        <time>2019-03-17T14:35:05Z</time>
      </trkpt>
      <trkpt lat="43.55022" lon="2.90288">
        <ele>199</ele>
        <time>2019-03-17T14:35:06Z</time>
      </trkpt>
      <trkpt lat="43.55021" lon="2.90281">
        <ele>199</ele>
        <time>2019-03-17T14:35:07Z</time>
      </trkpt>
      <trkpt lat="43.5502" lon="2.90274">
        <ele>199</ele>
        <time>2019-03-17T14:35:08Z</time>
      </trkpt>
      <trkpt lat="43.55019" lon="2.90267">
        <ele>199</ele>
        <time>2019-03-17T14:35:09Z</time>
      </trkpt>
      <trkpt lat="43.55018" lon="2.9026">
        <ele>199</ele>
        <time>2019-03-17T14:35:10Z</time>
      </trkpt>
      <trkpt lat="43.55017" lon="2.90254">
        <ele>199</ele>
        <time>2019-03-17T14:35:11Z</time>
      </trkpt>
      <trkpt lat="43.55016" lon="2.90247">
        <ele>198</ele>
        <time>2019-03-17T14:35:12Z</time>
      </trkpt>
      <trkpt lat="43.55015" lon="2.9024">
        <ele>198</ele>
        <time>2019-03-17T14:35:13Z</time>
      </trkpt>
      <trkpt lat="43.55014" lon="2.90233">
        <ele>198</ele>
        <time>2019-03-17T14:35:14Z</time>
      </trkpt>
      <trkpt lat="43.55013" lon="2.90227">
        <ele>198</ele>
        <time>2019-03-17T14:35:15Z</time>
      </trkpt>
      <trkpt lat="43.55012" lon="2.9022">
        <ele>198</ele>
        <time>2019-03-17T14:35:16Z</time>
      </trkpt>
      <trkpt lat="43.55011" lon="2.90214">
        <ele>198</ele>
        <time>2019-03-17T14:35:17Z</time>
      </trkpt>
      <trkpt lat="43.55009" lon="2.90208">
        <ele>198</ele>
        <time>2019-03-17T14:35:18Z</time>
      </trkpt>
      <trkpt lat="43.55007" lon="2.90202">
        <ele>198</ele>
        <time>2019-03-17T14:35:19Z</time>
      </trkpt>
      <trkpt lat="43.55005" lon="2.90196">
        <ele>198</ele>
        <time>2019-03-17T14:35:20Z</time>
      </trkpt>
      <trkpt lat="43.55004" lon="2.90189">
        <ele>198</ele>
        <time>2019-03-17T14:35:21Z</time>
      </trkpt>
      <trkpt lat="43.55002" lon="2.90183">
        <ele>198</ele>
        <time>2019-03-17T14:35:22Z</time>
      </trkpt>
      <trkpt lat="43.55001" lon="2.90177">
        <ele>198</ele>
        <time>2019-03-17T14:35:23Z</time>
      </trkpt>
      <trkpt lat="43.54999" lon="2.90171">
        <ele>198</ele>
        <time>2019-03-17T14:35:24Z</time>
      </trkpt>
      <trkpt lat="43.54998" lon="2.90165">
        <ele>199</ele>
        <time>2019-03-17T14:35:25Z</time>
      </trkpt>
      <trkpt lat="43.54997" lon="2.90159">
        <ele>199</ele>
        <time>2019-03-17T14:35:26Z</time>
      </trkpt>
      <trkpt lat="43.54995" lon="2.90153">
        <ele>199</ele>
        <time>2019-03-17T14:35:27Z</time>
      </trkpt>
      <trkpt lat="43.54993" lon="2.90147">
        <ele>199</ele>
        <time>2019-03-17T14:35:28Z</time>
      </trkpt>
      <trkpt lat="43.54991" lon="2.90141">
        <ele>199</ele>
        <time>2019-03-17T14:35:29Z</time>
      </trkpt>
      <trkpt lat="43.54989" lon="2.90136">
        <ele>199</ele>
        <time>2019-03-17T14:35:30Z</time>
      </trkpt>
      <trkpt lat="43.54987" lon="2.9013">
        <ele>199</ele>
        <time>2019-03-17T14:35:31Z</time>
      </trkpt>
      <trkpt lat="43.54984" lon="2.90124">
        <ele>199</ele>
        <time>2019-03-17T14:35:32Z</time>
      </trkpt>
      <trkpt lat="43.54982" lon="2.90118">
        <ele>199</ele>
        <time>2019-03-17T14:35:33Z</time>
      </trkpt>
      <trkpt lat="43.54979" lon="2.90113">
        <ele>199</ele>
        <time>2019-03-17T14:35:34Z</time>
      </trkpt>
      <trkpt lat="43.54977" lon="2.90108">
        <ele>199</ele>
        <time>2019-03-17T14:35:35Z</time>
      </trkpt>
      <trkpt lat="43.54975" lon="2.90104">
        <ele>199</ele>
        <time>2019-03-17T14:35:36Z</time>
      </trkpt>
      <trkpt lat="43.54973" lon="2.90099">
        <ele>199</ele>
        <time>2019-03-17T14:35:37Z</time>
      </trkpt>
      <trkpt lat="43.5497" lon="2.90094">
        <ele>199</ele>
        <time>2019-03-17T14:35:38Z</time>
      </trkpt>
      <trkpt lat="43.54967" lon="2.90089">
        <ele>199</ele>
        <time>2019-03-17T14:35:39Z</time>
      </trkpt>
      <trkpt lat="43.54964" lon="2.90084">
        <ele>199</ele>
        <time>2019-03-17T14:35:40Z</time>
      </trkpt>
      <trkpt lat="43.5496" lon="2.90079">
        <ele>199</ele>
        <time>2019-03-17T14:35:41Z</time>
      </trkpt>
      <trkpt lat="43.54957" lon="2.90074">
        <ele>199</ele>
        <time>2019-03-17T14:35:42Z</time>
      </trkpt>
      <trkpt lat="43.54954" lon="2.90069">
        <ele>199</ele>
        <time>2019-03-17T14:35:43Z</time>
      </trkpt>
      <trkpt lat="43.54951" lon="2.90065">
        <ele>199</ele>
        <time>2019-03-17T14:35:44Z</time>
      </trkpt>
      <trkpt lat="43.54948" lon="2.9006">
        <ele>199</ele>
        <time>2019-03-17T14:35:45Z</time>
      </trkpt>
      <trkpt lat="43.54944" lon="2.90056">
        <ele>199</ele>
        <time>2019-03-17T14:35:46Z</time>
      </trkpt>
      <trkpt lat="43.54941" lon="2.90051">
        <ele>199</ele>
        <time>2019-03-17T14:35:47Z</time>
      </trkpt>
      <trkpt lat="43.54937" lon="2.90047">
        <ele>199</ele>
        <time>2019-03-17T14:35:48Z</time>
      </trkpt>
      <trkpt lat="43.54933" lon="2.90042">
        <ele>199</ele>
        <time>2019-03-17T14:35:49Z</time>
      </trkpt>
      <trkpt lat="43.54929" lon="2.90038">
        <ele>199</ele>
        <time>2019-03-17T14:35:50Z</time>
      </trkpt>
      <trkpt lat="43.54925" lon="2.90033">
        <ele>199</ele>
        <time>2019-03-17T14:35:51Z</time>
      </trkpt>
      <trkpt lat="43.54922" lon="2.90029">
        <ele>199</ele>
        <time>2019-03-17T14:35:52Z</time>
      </trkpt>
      <trkpt lat="43.54918" lon="2.90024">
        <ele>199</ele>
        <time>2019-03-17T14:35:53Z</time>
      </trkpt>
      <trkpt lat="43.54915" lon="2.90019">
        <ele>199</ele>
        <time>2019-03-17T14:35:54Z</time>
      </trkpt>
      <trkpt lat="43.54912" lon="2.90014">
        <ele>199</ele>
        <time>2019-03-17T14:35:55Z</time>
      </trkpt>
      <trkpt lat="43.54908" lon="2.90009">
        <ele>199</ele>
        <time>2019-03-17T14:35:56Z</time>
      </trkpt>
      <trkpt lat="43.54905" lon="2.90004">
        <ele>199</ele>
        <time>2019-03-17T14:35:57Z</time>
      </trkpt>
      <trkpt lat="43.54901" lon="2.9">
        <ele>199</ele>
        <time>2019-03-17T14:35:58Z</time>
      </trkpt>
      <trkpt lat="43.54898" lon="2.89995">
        <ele>198</ele>
        <time>2019-03-17T14:35:59Z</time>
      </trkpt>
      <trkpt lat="43.54896" lon="2.89991">
        <ele>198</ele>
        <time>2019-03-17T14:36:00Z</time>
      </trkpt>
      <trkpt lat="43.54893" lon="2.89986">
        <ele>198</ele>
        <time>2019-03-17T14:36:01Z</time>
      </trkpt>
      <trkpt lat="43.5489" lon="2.89981">
        <ele>198</ele>
        <time>2019-03-17T14:36:02Z</time>
      </trkpt>
      <trkpt lat="43.54887" lon="2.89975">
        <ele>198</ele>
        <time>2019-03-17T14:36:03Z</time>
      </trkpt>
      <trkpt lat="43.54883" lon="2.89971">
        <ele>198</ele>
        <time>2019-03-17T14:36:04Z</time>
      </trkpt>
      <trkpt lat="43.5488" lon="2.89966">
        <ele>198</ele>
        <time>2019-03-17T14:36:05Z</time>
      </trkpt>
      <trkpt lat="43.54878" lon="2.89961">
        <ele>198</ele>
        <time>2019-03-17T14:36:06Z</time>
      </trkpt>
      <trkpt lat="43.54875" lon="2.89956">
        <ele>198</ele>
        <time>2019-03-17T14:36:07Z</time>
      </trkpt>
      <trkpt lat="43.54872" lon="2.89951">
        <ele>198</ele>
        <time>2019-03-17T14:36:08Z</time>
      </trkpt>
      <trkpt lat="43.5487" lon="2.89945">
        <ele>198</ele>
        <time>2019-03-17T14:36:09Z</time>
      </trkpt>
      <trkpt lat="43.54867" lon="2.8994">
        <ele>198</ele>
        <time>2019-03-17T14:36:10Z</time>
      </trkpt>
      <trkpt lat="43.54864" lon="2.89934">
        <ele>198</ele>
        <time>2019-03-17T14:36:11Z</time>
      </trkpt>
      <trkpt lat="43.54861" lon="2.89929">
        <ele>198</ele>
        <time>2019-03-17T14:36:12Z</time>
      </trkpt>
      <trkpt lat="43.54858" lon="2.89923">
        <ele>198</ele>
        <time>2019-03-17T14:36:13Z</time>
      </trkpt>
      <trkpt lat="43.54855" lon="2.89917">
        <ele>198</ele>
        <time>2019-03-17T14:36:14Z</time>
      </trkpt>
      <trkpt lat="43.54852" lon="2.89911">
        <ele>198</ele>
        <time>2019-03-17T14:36:15Z</time>
      </trkpt>
      <trkpt lat="43.5485" lon="2.89905">
        <ele>198</ele>
        <time>2019-03-17T14:36:16Z</time>
      </trkpt>
      <trkpt lat="43.54847" lon="2.89898">
        <ele>198</ele>
        <time>2019-03-17T14:36:17Z</time>
      </trkpt>
      <trkpt lat="43.54844" lon="2.89892">
        <ele>198</ele>
        <time>2019-03-17T14:36:18Z</time>
      </trkpt>
      <trkpt lat="43.54842" lon="2.89886">
        <ele>198</ele>
        <time>2019-03-17T14:36:19Z</time>
      </trkpt>
      <trkpt lat="43.54839" lon="2.89879">
        <ele>198</ele>
        <time>2019-03-17T14:36:20Z</time>
      </trkpt>
      <trkpt lat="43.54837" lon="2.89872">
        <ele>198</ele>
        <time>2019-03-17T14:36:21Z</time>
      </trkpt>
      <trkpt lat="43.54835" lon="2.89866">
        <ele>199</ele>
        <time>2019-03-17T14:36:22Z</time>
      </trkpt>
      <trkpt lat="43.54833" lon="2.89859">
        <ele>199</ele>
        <time>2019-03-17T14:36:23Z</time>
      </trkpt>
      <trkpt lat="43.54831" lon="2.89852">
        <ele>199</ele>
        <time>2019-03-17T14:36:24Z</time>
      </trkpt>
      <trkpt lat="43.54829" lon="2.89845">
        <ele>199</ele>
        <time>2019-03-17T14:36:25Z</time>
      </trkpt>
      <trkpt lat="43.54827" lon="2.89837">
        <ele>199</ele>
        <time>2019-03-17T14:36:26Z</time>
      </trkpt>
      <trkpt lat="43.54825" lon="2.8983">
        <ele>199</ele>
        <time>2019-03-17T14:36:27Z</time>
      </trkpt>
      <trkpt lat="43.54824" lon="2.89823">
        <ele>199</ele>
        <time>2019-03-17T14:36:28Z</time>
      </trkpt>
      <trkpt lat="43.54823" lon="2.89815">
        <ele>199</ele>
        <time>2019-03-17T14:36:29Z</time>
      </trkpt>
      <trkpt lat="43.54821" lon="2.89808">
        <ele>199</ele>
        <time>2019-03-17T14:36:30Z</time>
      </trkpt>
      <trkpt lat="43.5482" lon="2.898">
        <ele>199</ele>
        <time>2019-03-17T14:36:31Z</time>
      </trkpt>
      <trkpt lat="43.54818" lon="2.89793">
        <ele>199</ele>
        <time>2019-03-17T14:36:32Z</time>
      </trkpt>
      <trkpt lat="43.54817" lon="2.89785">
        <ele>199</ele>
        <time>2019-03-17T14:36:33Z</time>
      </trkpt>
      <trkpt lat="43.54817" lon="2.89777">
        <ele>199</ele>
        <time>2019-03-17T14:36:34Z</time>
      </trkpt>
      <trkpt lat="43.54816" lon="2.8977">
        <ele>199</ele>
        <time>2019-03-17T14:36:35Z</time>
      </trkpt>
      <trkpt lat="43.54815" lon="2.89763">
        <ele>199</ele>
        <time>2019-03-17T14:36:36Z</time>
      </trkpt>
      <trkpt lat="43.54815" lon="2.89755">
        <ele>199</ele>
        <time>2019-03-17T14:36:37Z</time>
      </trkpt>
      <trkpt lat="43.54814" lon="2.89748">
        <ele>199</ele>
        <time>2019-03-17T14:36:38Z</time>
      </trkpt>
      <trkpt lat="43.54814" lon="2.8974">
        <ele>199</ele>
        <time>2019-03-17T14:36:39Z</time>
      </trkpt>
      <trkpt lat="43.54814" lon="2.89733">
        <ele>198</ele>
        <time>2019-03-17T14:36:40Z</time>
      </trkpt>
      <trkpt lat="43.54814" lon="2.89726">
        <ele>198</ele>
        <time>2019-03-17T14:36:41Z</time>
      </trkpt>
      <trkpt lat="43.54815" lon="2.89718">
        <ele>198</ele>
        <time>2019-03-17T14:36:42Z</time>
      </trkpt>
      <trkpt lat="43.54815" lon="2.89712">
        <ele>198</ele>
        <time>2019-03-17T14:36:43Z</time>
      </trkpt>
      <trkpt lat="43.54815" lon="2.89705">
        <ele>198</ele>
        <time>2019-03-17T14:36:44Z</time>
      </trkpt>
      <trkpt lat="43.54816" lon="2.89698">
        <ele>198</ele>
        <time>2019-03-17T14:36:45Z</time>
      </trkpt>
      <trkpt lat="43.54817" lon="2.8969">
        <ele>197</ele>
        <time>2019-03-17T14:36:46Z</time>
      </trkpt>
      <trkpt lat="43.54817" lon="2.89683">
        <ele>197</ele>
        <time>2019-03-17T14:36:47Z</time>
      </trkpt>
      <trkpt lat="43.54818" lon="2.89676">
        <ele>197</ele>
        <time>2019-03-17T14:36:48Z</time>
      </trkpt>
      <trkpt lat="43.54819" lon="2.89669">
        <ele>197</ele>
        <time>2019-03-17T14:36:49Z</time>
      </trkpt>
      <trkpt lat="43.54821" lon="2.89662">
        <ele>197</ele>
        <time>2019-03-17T14:36:50Z</time>
      </trkpt>
      <trkpt lat="43.54822" lon="2.89655">
        <ele>197</ele>
        <time>2019-03-17T14:36:51Z</time>
      </trkpt>
      <trkpt lat="43.54824" lon="2.89648">
        <ele>197</ele>
        <time>2019-03-17T14:36:52Z</time>
      </trkpt>
      <trkpt lat="43.54825" lon="2.89641">
        <ele>197</ele>
        <time>2019-03-17T14:36:53Z</time>
      </trkpt>
      <trkpt lat="43.54827" lon="2.89634">
        <ele>197</ele>
        <time>2019-03-17T14:36:54Z</time>
      </trkpt>
      <trkpt lat="43.54828" lon="2.89627">
        <ele>198</ele>
        <time>2019-03-17T14:36:55Z</time>
      </trkpt>
      <trkpt lat="43.5483" lon="2.8962">
        <ele>198</ele>
        <time>2019-03-17T14:36:56Z</time>
      </trkpt>
      <trkpt lat="43.54832" lon="2.89613">
        <ele>198</ele>
        <time>2019-03-17T14:36:57Z</time>
      </trkpt>
      <trkpt lat="43.54834" lon="2.89606">
        <ele>198</ele>
        <time>2019-03-17T14:36:58Z</time>
      </trkpt>
      <trkpt lat="43.54835" lon="2.89602">
        <ele>198</ele>
        <time>2019-03-17T14:36:59Z</time>
      </trkpt>
      <trkpt lat="43.54836" lon="2.896">
        <ele>198</ele>
        <time>2019-03-17T14:37:00Z</time>
      </trkpt>
      <trkpt lat="43.54838" lon="2.89599">
        <ele>198</ele>
        <time>2019-03-17T14:37:01Z</time>
      </trkpt>
      <trkpt lat="43.54838" lon="2.89599">
        <ele>198</ele>
        <time>2019-03-17T14:37:02Z</time>
      </trkpt>
      <trkpt lat="43.54838" lon="2.896">
        <ele>198</ele>
        <time>2019-03-17T14:37:03Z</time>
      </trkpt>
      <trkpt lat="43.54838" lon="2.896">
        <ele>198</ele>
        <time>2019-03-17T14:37:04Z</time>
      </trkpt>
      <trkpt lat="43.54837" lon="2.89591">
        <ele>200</ele>
        <time>2019-03-17T14:38:46Z</time>
      </trkpt>
      <trkpt lat="43.54838" lon="2.89587">
        <ele>200</ele>
        <time>2019-03-17T14:38:47Z</time>
      </trkpt>
      <trkpt lat="43.54838" lon="2.89583">
        <ele>200</ele>
        <time>2019-03-17T14:38:48Z</time>
      </trkpt>
      <trkpt lat="43.54839" lon="2.89577">
        <ele>200</ele>
        <time>2019-03-17T14:38:49Z</time>
      </trkpt>
      <trkpt lat="43.5484" lon="2.89572">
        <ele>200</ele>
        <time>2019-03-17T14:38:50Z</time>
      </trkpt>
      <trkpt lat="43.54842" lon="2.89566">
        <ele>200</ele>
        <time>2019-03-17T14:38:51Z</time>
      </trkpt>
      <trkpt lat="43.54843" lon="2.89559">
        <ele>200</ele>
        <time>2019-03-17T14:38:52Z</time>
      </trkpt>
      <trkpt lat="43.54844" lon="2.89553">
        <ele>200</ele>
        <time>2019-03-17T14:38:53Z</time>
      </trkpt>
      <trkpt lat="43.54844" lon="2.89548">
        <ele>200</ele>
        <time>2019-03-17T14:38:54Z</time>
      </trkpt>
      <trkpt lat="43.54846" lon="2.89542">
        <ele>200</ele>
        <time>2019-03-17T14:38:55Z</time>
      </trkpt>
      <trkpt lat="43.54847" lon="2.89536">
        <ele>200</ele>
        <time>2019-03-17T14:38:56Z</time>
      </trkpt>
      <trkpt lat="43.54849" lon="2.8953">
        <ele>200</ele>
        <time>2019-03-17T14:38:57Z</time>
      </trkpt>
      <trkpt lat="43.5485" lon="2.89524">
        <ele>200</ele>
        <time>2019-03-17T14:38:58Z</time>
      </trkpt>
      <trkpt lat="43.54852" lon="2.89518">
        <ele>200</ele>
        <time>2019-03-17T14:38:59Z</time>
      </trkpt>
      <trkpt lat="43.54853" lon="2.89512">
        <ele>200</ele>
        <time>2019-03-17T14:39:00Z</time>
      </trkpt>
      <trkpt lat="43.54855" lon="2.89507">
        <ele>200</ele>
        <time>2019-03-17T14:39:01Z</time>
      </trkpt>
      <trkpt lat="43.54856" lon="2.89501">
        <ele>200</ele>
        <time>2019-03-17T14:39:02Z</time>
      </trkpt>
      <trkpt lat="43.54858" lon="2.89496">
        <ele>200</ele>
        <time>2019-03-17T14:39:03Z</time>
      </trkpt>
      <trkpt lat="43.54859" lon="2.89491">
        <ele>200</ele>
        <time>2019-03-17T14:39:04Z</time>
      </trkpt>
      <trkpt lat="43.54861" lon="2.89486">
        <ele>200</ele>
        <time>2019-03-17T14:39:05Z</time>
      </trkpt>
      <trkpt lat="43.54862" lon="2.89481">
        <ele>200</ele>
        <time>2019-03-17T14:39:06Z</time>
      </trkpt>
      <trkpt lat="43.54864" lon="2.89476">
        <ele>200</ele>
        <time>2019-03-17T14:39:07Z</time>
      </trkpt>
      <trkpt lat="43.54865" lon="2.8947">
        <ele>200</ele>
        <time>2019-03-17T14:39:08Z</time>
      </trkpt>
      <trkpt lat="43.54866" lon="2.89466">
        <ele>200</ele>
        <time>2019-03-17T14:39:09Z</time>
      </trkpt>
      <trkpt lat="43.54868" lon="2.89461">
        <ele>200</ele>
        <time>2019-03-17T14:39:10Z</time>
      </trkpt>
      <trkpt lat="43.54869" lon="2.89456">
        <ele>200</ele>
        <time>2019-03-17T14:39:11Z</time>
      </trkpt>
      <trkpt lat="43.54869" lon="2.89452">
        <ele>200</ele>
        <time>2019-03-17T14:39:12Z</time>
      </trkpt>
      <trkpt lat="43.5487" lon="2.89448">
        <ele>201</ele>
        <time>2019-03-17T14:39:13Z</time>
      </trkpt>
      <trkpt lat="43.54872" lon="2.89445">
        <ele>201</ele>
        <time>2019-03-17T14:39:14Z</time>
      </trkpt>
      <trkpt lat="43.54873" lon="2.89442">
        <ele>201</ele>
        <time>2019-03-17T14:39:15Z</time>
      </trkpt>
      <trkpt lat="43.54873" lon="2.89439">
        <ele>201</ele>
        <time>2019-03-17T14:39:16Z</time>
      </trkpt>
      <trkpt lat="43.54873" lon="2.89437">
        <ele>201</ele>
        <time>2019-03-17T14:39:17Z</time>
      </trkpt>
      <trkpt lat="43.54873" lon="2.89434">
        <ele>201</ele>
        <time>2019-03-17T14:39:18Z</time>
      </trkpt>
      <trkpt lat="43.54872" lon="2.89431">
        <ele>202</ele>
        <time>2019-03-17T14:39:19Z</time>
      </trkpt>
      <trkpt lat="43.54872" lon="2.89428">
        <ele>202</ele>
        <time>2019-03-17T14:39:20Z</time>
      </trkpt>
      <trkpt lat="43.54872" lon="2.89423">
        <ele>202</ele>
        <time>2019-03-17T14:39:21Z</time>
      </trkpt>
      <trkpt lat="43.54873" lon="2.89419">
        <ele>202</ele>
        <time>2019-03-17T14:39:22Z</time>
      </trkpt>
      <trkpt lat="43.54874" lon="2.89414">
        <ele>203</ele>
        <time>2019-03-17T14:39:23Z</time>
      </trkpt>
      <trkpt lat="43.54875" lon="2.89409">
        <ele>203</ele>
        <time>2019-03-17T14:39:24Z</time>
      </trkpt>
      <trkpt lat="43.54876" lon="2.89405">
        <ele>203</ele>
        <time>2019-03-17T14:39:25Z</time>
      </trkpt>
      <trkpt lat="43.54877" lon="2.89401">
        <ele>203</ele>
        <time>2019-03-17T14:39:26Z</time>
      </trkpt>
      <trkpt lat="43.54878" lon="2.89399">
        <ele>203</ele>
        <time>2019-03-17T14:39:27Z</time>
      </trkpt>
      <trkpt lat="43.5488" lon="2.89395">
        <ele>203</ele>
        <time>2019-03-17T14:39:28Z</time>
      </trkpt>
      <trkpt lat="43.5488" lon="2.89392">
        <ele>203</ele>
        <time>2019-03-17T14:39:29Z</time>
      </trkpt>
      <trkpt lat="43.5488" lon="2.89388">
        <ele>203</ele>
        <time>2019-03-17T14:39:30Z</time>
      </trkpt>
      <trkpt lat="43.5488" lon="2.89384">
        <ele>203</ele>
        <time>2019-03-17T14:39:31Z</time>
      </trkpt>
      <trkpt lat="43.54881" lon="2.8938">
        <ele>203</ele>
        <time>2019-03-17T14:39:32Z</time>
      </trkpt>
      <trkpt lat="43.54882" lon="2.89375">
        <ele>203</ele>
        <time>2019-03-17T14:39:33Z</time>
      </trkpt>
      <trkpt lat="43.54882" lon="2.8937">
        <ele>203</ele>
        <time>2019-03-17T14:39:34Z</time>
      </trkpt>
      <trkpt lat="43.54883" lon="2.89365">
        <ele>203</ele>
        <time>2019-03-17T14:39:35Z</time>
      </trkpt>
      <trkpt lat="43.54884" lon="2.8936">
        <ele>203</ele>
        <time>2019-03-17T14:39:36Z</time>
      </trkpt>
      <trkpt lat="43.54885" lon="2.89355">
        <ele>203</ele>
        <time>2019-03-17T14:39:37Z</time>
      </trkpt>
      <trkpt lat="43.54886" lon="2.89349">
        <ele>203</ele>
        <time>2019-03-17T14:39:38Z</time>
      </trkpt>
      <trkpt lat="43.54886" lon="2.89344">
        <ele>203</ele>
        <time>2019-03-17T14:39:39Z</time>
      </trkpt>
      <trkpt lat="43.54887" lon="2.89338">
        <ele>202</ele>
        <time>2019-03-17T14:39:40Z</time>
      </trkpt>
      <trkpt lat="43.54888" lon="2.89333">
        <ele>202</ele>
        <time>2019-03-17T14:39:41Z</time>
      </trkpt>
      <trkpt lat="43.54888" lon="2.89328">
        <ele>202</ele>
        <time>2019-03-17T14:39:42Z</time>
      </trkpt>
      <trkpt lat="43.54889" lon="2.89323">
        <ele>202</ele>
        <time>2019-03-17T14:39:43Z</time>
      </trkpt>
      <trkpt lat="43.54889" lon="2.89318">
        <ele>202</ele>
        <time>2019-03-17T14:39:44Z</time>
      </trkpt>
      <trkpt lat="43.5489" lon="2.89314">
        <ele>202</ele>
        <time>2019-03-17T14:39:45Z</time>
      </trkpt>
      <trkpt lat="43.54891" lon="2.89309">
        <ele>202</ele>
        <time>2019-03-17T14:39:46Z</time>
      </trkpt>
      <trkpt lat="43.54891" lon="2.89305">
        <ele>202</ele>
        <time>2019-03-17T14:39:47Z</time>
      </trkpt>
      <trkpt lat="43.54892" lon="2.893">
        <ele>202</ele>
        <time>2019-03-17T14:39:48Z</time>
      </trkpt>
      <trkpt lat="43.54892" lon="2.89295">
        <ele>202</ele>
        <time>2019-03-17T14:39:49Z</time>
      </trkpt>
      <trkpt lat="43.54893" lon="2.89291">
        <ele>202</ele>
        <time>2019-03-17T14:39:50Z</time>
      </trkpt>
      <trkpt lat="43.54894" lon="2.89286">
        <ele>202</ele>
        <time>2019-03-17T14:39:51Z</time>
      </trkpt>
      <trkpt lat="43.54895" lon="2.8928">
        <ele>202</ele>
        <time>2019-03-17T14:39:52Z</time>
      </trkpt>
      <trkpt lat="43.54895" lon="2.89276">
        <ele>202</ele>
        <time>2019-03-17T14:39:53Z</time>
      </trkpt>
      <trkpt lat="43.54896" lon="2.89271">
        <ele>202</ele>
        <time>2019-03-17T14:39:54Z</time>
      </trkpt>
      <trkpt lat="43.54897" lon="2.89266">
        <ele>202</ele>
        <time>2019-03-17T14:39:55Z</time>
      </trkpt>
      <trkpt lat="43.54898" lon="2.89261">
        <ele>202</ele>
        <time>2019-03-17T14:39:56Z</time>
      </trkpt>
      <trkpt lat="43.54898" lon="2.89256">
        <ele>202</ele>
        <time>2019-03-17T14:39:57Z</time>
      </trkpt>
      <trkpt lat="43.54898" lon="2.8925">
        <ele>202</ele>
        <time>2019-03-17T14:39:58Z</time>
      </trkpt>
      <trkpt lat="43.54898" lon="2.89245">
        <ele>202</ele>
        <time>2019-03-17T14:39:59Z</time>
      </trkpt>
      <trkpt lat="43.54899" lon="2.89239">
        <ele>202</ele>
        <time>2019-03-17T14:40:00Z</time>
      </trkpt>
      <trkpt lat="43.54899" lon="2.89234">
        <ele>202</ele>
        <time>2019-03-17T14:40:01Z</time>
      </trkpt>
      <trkpt lat="43.54899" lon="2.89228">
        <ele>202</ele>
        <time>2019-03-17T14:40:02Z</time>
      </trkpt>
      <trkpt lat="43.54899" lon="2.89223">
        <ele>202</ele>
        <time>2019-03-17T14:40:03Z</time>
      </trkpt>
      <trkpt lat="43.549" lon="2.89217">
        <ele>202</ele>
        <time>2019-03-17T14:40:04Z</time>
      </trkpt>
      <trkpt lat="43.549" lon="2.89212">
        <ele>202</ele>
        <time>2019-03-17T14:40:05Z</time>
      </trkpt>
      <trkpt lat="43.549" lon="2.89206">
        <ele>202</ele>
        <time>2019-03-17T14:40:06Z</time>
      </trkpt>
      <trkpt lat="43.549" lon="2.89199">
        <ele>202</ele>
        <time>2019-03-17T14:40:07Z</time>
      </trkpt>
      <trkpt lat="43.549" lon="2.89193">
        <ele>202</ele>
        <time>2019-03-17T14:40:08Z</time>
      </trkpt>
      <trkpt lat="43.549" lon="2.89187">
        <ele>202</ele>
        <time>2019-03-17T14:40:09Z</time>
      </trkpt>
      <trkpt lat="43.549" lon="2.89181">
        <ele>202</ele>
        <time>2019-03-17T14:40:10Z</time>
      </trkpt>
      <trkpt lat="43.549" lon="2.89175">
        <ele>202</ele>
        <time>2019-03-17T14:40:11Z</time>
      </trkpt>
      <trkpt lat="43.549" lon="2.89169">
        <ele>202</ele>
        <time>2019-03-17T14:40:12Z</time>
      </trkpt>
      <trkpt lat="43.549" lon="2.89163">
        <ele>202</ele>
        <time>2019-03-17T14:40:13Z</time>
      </trkpt>
      <trkpt lat="43.549" lon="2.89158">
        <ele>202</ele>
        <time>2019-03-17T14:40:14Z</time>
      </trkpt>
      <trkpt lat="43.549" lon="2.89152">
        <ele>202</ele>
        <time>2019-03-17T14:40:15Z</time>
      </trkpt>
      <trkpt lat="43.549" lon="2.89146">
        <ele>202</ele>
        <time>2019-03-17T14:40:16Z</time>
      </trkpt>
      <trkpt lat="43.54899" lon="2.89139">
        <ele>202</ele>
        <time>2019-03-17T14:40:17Z</time>
      </trkpt>
      <trkpt lat="43.54899" lon="2.89133">
        <ele>202</ele>
        <time>2019-03-17T14:40:18Z</time>
      </trkpt>
      <trkpt lat="43.54899" lon="2.89127">
        <ele>202</ele>
        <time>2019-03-17T14:40:19Z</time>
      </trkpt>
      <trkpt lat="43.54898" lon="2.89122">
        <ele>202</ele>
        <time>2019-03-17T14:40:20Z</time>
      </trkpt>
      <trkpt lat="43.54898" lon="2.89117">
        <ele>202</ele>
        <time>2019-03-17T14:40:21Z</time>
      </trkpt>
      <trkpt lat="43.54898" lon="2.89111">
        <ele>202</ele>
        <time>2019-03-17T14:40:22Z</time>
      </trkpt>
      <trkpt lat="43.54898" lon="2.89106">
        <ele>202</ele>
        <time>2019-03-17T14:40:23Z</time>
      </trkpt>
      <trkpt lat="43.54898" lon="2.89101">
        <ele>202</ele>
        <time>2019-03-17T14:40:24Z</time>
      </trkpt>
      <trkpt lat="43.54897" lon="2.89095">
        <ele>202</ele>
        <time>2019-03-17T14:40:25Z</time>
      </trkpt>
      <trkpt lat="43.54897" lon="2.89089">
        <ele>202</ele>
        <time>2019-03-17T14:40:26Z</time>
      </trkpt>
      <trkpt lat="43.54896" lon="2.89083">
        <ele>202</ele>
        <time>2019-03-17T14:40:27Z</time>
      </trkpt>
      <trkpt lat="43.54895" lon="2.89077">
        <ele>202</ele>
        <time>2019-03-17T14:40:28Z</time>
      </trkpt>
      <trkpt lat="43.54895" lon="2.89071">
        <ele>203</ele>
        <time>2019-03-17T14:40:29Z</time>
      </trkpt>
      <trkpt lat="43.54895" lon="2.89064">
        <ele>203</ele>
        <time>2019-03-17T14:40:30Z</time>
      </trkpt>
      <trkpt lat="43.54894" lon="2.89058">
        <ele>203</ele>
        <time>2019-03-17T14:40:31Z</time>
      </trkpt>
      <trkpt lat="43.54894" lon="2.89052">
        <ele>203</ele>
        <time>2019-03-17T14:40:32Z</time>
      </trkpt>
      <trkpt lat="43.54893" lon="2.89046">
        <ele>203</ele>
        <time>2019-03-17T14:40:33Z</time>
      </trkpt>
      <trkpt lat="43.54893" lon="2.89039">
        <ele>203</ele>
        <time>2019-03-17T14:40:34Z</time>
      </trkpt>
      <trkpt lat="43.54892" lon="2.89033">
        <ele>203</ele>
        <time>2019-03-17T14:40:35Z</time>
      </trkpt>
      <trkpt lat="43.54892" lon="2.89027">
        <ele>203</ele>
        <time>2019-03-17T14:40:36Z</time>
      </trkpt>
      <trkpt lat="43.54892" lon="2.89021">
        <ele>203</ele>
        <time>2019-03-17T14:40:37Z</time>
      </trkpt>
      <trkpt lat="43.54891" lon="2.89015">
        <ele>203</ele>
        <time>2019-03-17T14:40:38Z</time>
      </trkpt>
      <trkpt lat="43.54891" lon="2.89009">
        <ele>203</ele>
        <time>2019-03-17T14:40:39Z</time>
      </trkpt>
      <trkpt lat="43.54891" lon="2.89004">
        <ele>203</ele>
        <time>2019-03-17T14:40:40Z</time>
      </trkpt>
      <trkpt lat="43.5489" lon="2.88998">
        <ele>203</ele>
        <time>2019-03-17T14:40:41Z</time>
      </trkpt>
      <trkpt lat="43.5489" lon="2.88992">
        <ele>203</ele>
        <time>2019-03-17T14:40:42Z</time>
      </trkpt>
      <trkpt lat="43.5489" lon="2.88985">
        <ele>203</ele>
        <time>2019-03-17T14:40:43Z</time>
      </trkpt>
      <trkpt lat="43.5489" lon="2.88979">
        <ele>203</ele>
        <time>2019-03-17T14:40:44Z</time>
      </trkpt>
      <trkpt lat="43.54889" lon="2.88974">
        <ele>203</ele>
        <time>2019-03-17T14:40:45Z</time>
      </trkpt>
      <trkpt lat="43.54889" lon="2.88968">
        <ele>203</ele>
        <time>2019-03-17T14:40:46Z</time>
      </trkpt>
      <trkpt lat="43.54889" lon="2.88962">
        <ele>203</ele>
        <time>2019-03-17T14:40:47Z</time>
      </trkpt>
      <trkpt lat="43.54888" lon="2.88956">
        <ele>203</ele>
        <time>2019-03-17T14:40:48Z</time>
      </trkpt>
      <trkpt lat="43.54888" lon="2.88949">
        <ele>204</ele>
        <time>2019-03-17T14:40:49Z</time>
      </trkpt>
      <trkpt lat="43.54888" lon="2.88943">
        <ele>204</ele>
        <time>2019-03-17T14:40:50Z</time>
      </trkpt>
      <trkpt lat="43.54888" lon="2.88937">
        <ele>204</ele>
        <time>2019-03-17T14:40:51Z</time>
      </trkpt>
      <trkpt lat="43.54887" lon="2.88931">
        <ele>204</ele>
        <time>2019-03-17T14:40:52Z</time>
      </trkpt>
      <trkpt lat="43.54887" lon="2.88925">
        <ele>204</ele>
        <time>2019-03-17T14:40:53Z</time>
      </trkpt>
      <trkpt lat="43.54887" lon="2.88918">
        <ele>204</ele>
        <time>2019-03-17T14:40:54Z</time>
      </trkpt>
      <trkpt lat="43.54887" lon="2.88912">
        <ele>204</ele>
        <time>2019-03-17T14:40:55Z</time>
      </trkpt>
      <trkpt lat="43.54887" lon="2.88906">
        <ele>204</ele>
        <time>2019-03-17T14:40:56Z</time>
      </trkpt>
      <trkpt lat="43.54887" lon="2.88899">
        <ele>205</ele>
        <time>2019-03-17T14:40:57Z</time>
      </trkpt>
      <trkpt lat="43.54887" lon="2.88893">
        <ele>205</ele>
        <time>2019-03-17T14:40:58Z</time>
      </trkpt>
      <trkpt lat="43.54886" lon="2.88887">
        <ele>205</ele>
        <time>2019-03-17T14:40:59Z</time>
      </trkpt>
      <trkpt lat="43.54886" lon="2.8888">
        <ele>205</ele>
        <time>2019-03-17T14:41:00Z</time>
      </trkpt>
      <trkpt lat="43.54886" lon="2.88873">
        <ele>206</ele>
        <time>2019-03-17T14:41:01Z</time>
      </trkpt>
      <trkpt lat="43.54886" lon="2.88867">
        <ele>206</ele>
        <time>2019-03-17T14:41:02Z</time>
      </trkpt>
      <trkpt lat="43.54885" lon="2.8886">
        <ele>206</ele>
        <time>2019-03-17T14:41:03Z</time>
      </trkpt>
      <trkpt lat="43.54885" lon="2.88853">
        <ele>206</ele>
        <time>2019-03-17T14:41:04Z</time>
      </trkpt>
      <trkpt lat="43.54885" lon="2.88846">
        <ele>206</ele>
        <time>2019-03-17T14:41:05Z</time>
      </trkpt>
      <trkpt lat="43.54885" lon="2.88839">
        <ele>206</ele>
        <time>2019-03-17T14:41:06Z</time>
      </trkpt>
      <trkpt lat="43.54885" lon="2.88832">
        <ele>206</ele>
        <time>2019-03-17T14:41:07Z</time>
      </trkpt>
      <trkpt lat="43.54885" lon="2.88825">
        <ele>206</ele>
        <time>2019-03-17T14:41:08Z</time>
      </trkpt>
      <trkpt lat="43.54884" lon="2.88818">
        <ele>206</ele>
        <time>2019-03-17T14:41:09Z</time>
      </trkpt>
      <trkpt lat="43.54884" lon="2.88811">
        <ele>206</ele>
        <time>2019-03-17T14:41:10Z</time>
      </trkpt>
      <trkpt lat="43.54884" lon="2.88803">
        <ele>206</ele>
        <time>2019-03-17T14:41:11Z</time>
      </trkpt>
      <trkpt lat="43.54883" lon="2.88796">
        <ele>206</ele>
        <time>2019-03-17T14:41:12Z</time>
      </trkpt>
      <trkpt lat="43.54883" lon="2.88789">
        <ele>206</ele>
        <time>2019-03-17T14:41:13Z</time>
      </trkpt>
      <trkpt lat="43.54883" lon="2.88783">
        <ele>206</ele>
        <time>2019-03-17T14:41:14Z</time>
      </trkpt>
      <trkpt lat="43.54883" lon="2.88777">
        <ele>206</ele>
        <time>2019-03-17T14:41:15Z</time>
      </trkpt>
      <trkpt lat="43.54883" lon="2.8877">
        <ele>206</ele>
        <time>2019-03-17T14:41:16Z</time>
      </trkpt>
      <trkpt lat="43.54881" lon="2.88765">
        <ele>206</ele>
        <time>2019-03-17T14:41:17Z</time>
      </trkpt>
      <trkpt lat="43.5488" lon="2.8876">
        <ele>206</ele>
        <time>2019-03-17T14:41:18Z</time>
      </trkpt>
      <trkpt lat="43.54879" lon="2.88754">
        <ele>206</ele>
        <time>2019-03-17T14:41:19Z</time>
      </trkpt>
      <trkpt lat="43.54879" lon="2.88748">
        <ele>206</ele>
        <time>2019-03-17T14:41:20Z</time>
      </trkpt>
      <trkpt lat="43.54879" lon="2.88741">
        <ele>206</ele>
        <time>2019-03-17T14:41:21Z</time>
      </trkpt>
      <trkpt lat="43.54879" lon="2.88734">
        <ele>205</ele>
        <time>2019-03-17T14:41:22Z</time>
      </trkpt>
      <trkpt lat="43.54878" lon="2.88727">
        <ele>205</ele>
        <time>2019-03-17T14:41:23Z</time>
      </trkpt>
      <trkpt lat="43.54878" lon="2.88721">
        <ele>205</ele>
        <time>2019-03-17T14:41:24Z</time>
      </trkpt>
      <trkpt lat="43.54877" lon="2.88715">
        <ele>205</ele>
        <time>2019-03-17T14:41:25Z</time>
      </trkpt>
      <trkpt lat="43.54876" lon="2.88709">
        <ele>205</ele>
        <time>2019-03-17T14:41:26Z</time>
      </trkpt>
      <trkpt lat="43.54876" lon="2.88703">
        <ele>205</ele>
        <time>2019-03-17T14:41:27Z</time>
      </trkpt>
      <trkpt lat="43.54875" lon="2.88697">
        <ele>205</ele>
        <time>2019-03-17T14:41:28Z</time>
      </trkpt>
      <trkpt lat="43.54874" lon="2.8869">
        <ele>204</ele>
        <time>2019-03-17T14:41:29Z</time>
      </trkpt>
      <trkpt lat="43.54873" lon="2.88684">
        <ele>203</ele>
        <time>2019-03-17T14:41:30Z</time>
      </trkpt>
      <trkpt lat="43.54872" lon="2.88678">
        <ele>203</ele>
        <time>2019-03-17T14:41:31Z</time>
      </trkpt>
      <trkpt lat="43.54871" lon="2.88671">
        <ele>203</ele>
        <time>2019-03-17T14:41:32Z</time>
      </trkpt>
      <trkpt lat="43.5487" lon="2.88665">
        <ele>202</ele>
        <time>2019-03-17T14:41:33Z</time>
      </trkpt>
      <trkpt lat="43.5487" lon="2.88658">
        <ele>202</ele>
        <time>2019-03-17T14:41:34Z</time>
      </trkpt>
      <trkpt lat="43.5487" lon="2.88652">
        <ele>202</ele>
        <time>2019-03-17T14:41:35Z</time>
      </trkpt>
      <trkpt lat="43.54871" lon="2.88645">
        <ele>202</ele>
        <time>2019-03-17T14:41:36Z</time>
      </trkpt>
      <trkpt lat="43.54872" lon="2.88638">
        <ele>202</ele>
        <time>2019-03-17T14:41:37Z</time>
      </trkpt>
      <trkpt lat="43.54872" lon="2.88632">
        <ele>202</ele>
        <time>2019-03-17T14:41:38Z</time>
      </trkpt>
      <trkpt lat="43.54873" lon="2.88625">
        <ele>202</ele>
        <time>2019-03-17T14:41:39Z</time>
      </trkpt>
      <trkpt lat="43.54873" lon="2.88619">
        <ele>202</ele>
        <time>2019-03-17T14:41:40Z</time>
      </trkpt>
      <trkpt lat="43.54873" lon="2.88613">
        <ele>203</ele>
        <time>2019-03-17T14:41:41Z</time>
      </trkpt>
      <trkpt lat="43.54871" lon="2.88606">
        <ele>203</ele>
        <time>2019-03-17T14:41:42Z</time>
      </trkpt>
      <trkpt lat="43.5487" lon="2.88599">
        <ele>203</ele>
        <time>2019-03-17T14:41:43Z</time>
      </trkpt>
      <trkpt lat="43.54869" lon="2.88592">
        <ele>203</ele>
        <time>2019-03-17T14:41:44Z</time>
      </trkpt>
      <trkpt lat="43.54868" lon="2.88586">
        <ele>203</ele>
        <time>2019-03-17T14:41:45Z</time>
      </trkpt>
      <trkpt lat="43.54866" lon="2.88579">
        <ele>203</ele>
        <time>2019-03-17T14:41:46Z</time>
      </trkpt>
      <trkpt lat="43.54864" lon="2.88573">
        <ele>204</ele>
        <time>2019-03-17T14:41:47Z</time>
      </trkpt>
      <trkpt lat="43.54863" lon="2.88567">
        <ele>204</ele>
        <time>2019-03-17T14:41:48Z</time>
      </trkpt>
      <trkpt lat="43.54861" lon="2.8856">
        <ele>204</ele>
        <time>2019-03-17T14:41:49Z</time>
      </trkpt>
      <trkpt lat="43.54859" lon="2.88553">
        <ele>204</ele>
        <time>2019-03-17T14:41:50Z</time>
      </trkpt>
      <trkpt lat="43.54857" lon="2.88547">
        <ele>204</ele>
        <time>2019-03-17T14:41:51Z</time>
      </trkpt>
      <trkpt lat="43.54856" lon="2.8854">
        <ele>205</ele>
        <time>2019-03-17T14:41:52Z</time>
      </trkpt>
      <trkpt lat="43.54854" lon="2.88533">
        <ele>205</ele>
        <time>2019-03-17T14:41:53Z</time>
      </trkpt>
      <trkpt lat="43.54853" lon="2.88527">
        <ele>205</ele>
        <time>2019-03-17T14:41:54Z</time>
      </trkpt>
      <trkpt lat="43.54854" lon="2.8852">
        <ele>205</ele>
        <time>2019-03-17T14:41:55Z</time>
      </trkpt>
      <trkpt lat="43.54854" lon="2.88515">
        <ele>205</ele>
        <time>2019-03-17T14:41:56Z</time>
      </trkpt>
      <trkpt lat="43.54855" lon="2.88509">
        <ele>205</ele>
        <time>2019-03-17T14:41:57Z</time>
      </trkpt>
      <trkpt lat="43.54855" lon="2.88505">
        <ele>205</ele>
        <time>2019-03-17T14:41:58Z</time>
      </trkpt>
      <trkpt lat="43.54856" lon="2.885">
        <ele>206</ele>
        <time>2019-03-17T14:41:59Z</time>
      </trkpt>
      <trkpt lat="43.54856" lon="2.88496">
        <ele>206</ele>
        <time>2019-03-17T14:42:00Z</time>
      </trkpt>
      <trkpt lat="43.54857" lon="2.88492">
        <ele>206</ele>
        <time>2019-03-17T14:42:01Z</time>
      </trkpt>
      <trkpt lat="43.54858" lon="2.88487">
        <ele>206</ele>
        <time>2019-03-17T14:42:02Z</time>
      </trkpt>
      <trkpt lat="43.54859" lon="2.88483">
        <ele>206</ele>
        <time>2019-03-17T14:42:03Z</time>
      </trkpt>
      <trkpt lat="43.5486" lon="2.88478">
        <ele>206</ele>
        <time>2019-03-17T14:42:04Z</time>
      </trkpt>
      <trkpt lat="43.5486" lon="2.88474">
        <ele>206</ele>
        <time>2019-03-17T14:42:05Z</time>
      </trkpt>
      <trkpt lat="43.54861" lon="2.8847">
        <ele>207</ele>
        <time>2019-03-17T14:42:06Z</time>
      </trkpt>
      <trkpt lat="43.54861" lon="2.88465">
        <ele>207</ele>
        <time>2019-03-17T14:42:07Z</time>
      </trkpt>
      <trkpt lat="43.54862" lon="2.88461">
        <ele>207</ele>
        <time>2019-03-17T14:42:08Z</time>
      </trkpt>
      <trkpt lat="43.54863" lon="2.88457">
        <ele>208</ele>
        <time>2019-03-17T14:42:09Z</time>
      </trkpt>
      <trkpt lat="43.54864" lon="2.88454">
        <ele>208</ele>
        <time>2019-03-17T14:42:10Z</time>
      </trkpt>
      <trkpt lat="43.54864" lon="2.8845">
        <ele>209</ele>
        <time>2019-03-17T14:42:11Z</time>
      </trkpt>
      <trkpt lat="43.54865" lon="2.88447">
        <ele>209</ele>
        <time>2019-03-17T14:42:12Z</time>
      </trkpt>
      <trkpt lat="43.54866" lon="2.88443">
        <ele>210</ele>
        <time>2019-03-17T14:42:13Z</time>
      </trkpt>
      <trkpt lat="43.54867" lon="2.88439">
        <ele>211</ele>
        <time>2019-03-17T14:42:14Z</time>
      </trkpt>
      <trkpt lat="43.54867" lon="2.88435">
        <ele>211</ele>
        <time>2019-03-17T14:42:15Z</time>
      </trkpt>
      <trkpt lat="43.54869" lon="2.88432">
        <ele>212</ele>
        <time>2019-03-17T14:42:16Z</time>
      </trkpt>
      <trkpt lat="43.5487" lon="2.88428">
        <ele>212</ele>
        <time>2019-03-17T14:42:17Z</time>
      </trkpt>
      <trkpt lat="43.54871" lon="2.88424">
        <ele>213</ele>
        <time>2019-03-17T14:42:18Z</time>
      </trkpt>
      <trkpt lat="43.54872" lon="2.8842">
        <ele>213</ele>
        <time>2019-03-17T14:42:19Z</time>
      </trkpt>
      <trkpt lat="43.54873" lon="2.88417">
        <ele>214</ele>
        <time>2019-03-17T14:42:20Z</time>
      </trkpt>
      <trkpt lat="43.54874" lon="2.88414">
        <ele>215</ele>
        <time>2019-03-17T14:42:21Z</time>
      </trkpt>
      <trkpt lat="43.54874" lon="2.8841">
        <ele>215</ele>
        <time>2019-03-17T14:42:22Z</time>
      </trkpt>
      <trkpt lat="43.54874" lon="2.88405">
        <ele>216</ele>
        <time>2019-03-17T14:42:23Z</time>
      </trkpt>
      <trkpt lat="43.54873" lon="2.88401">
        <ele>216</ele>
        <time>2019-03-17T14:42:24Z</time>
      </trkpt>
      <trkpt lat="43.54872" lon="2.88398">
        <ele>216</ele>
        <time>2019-03-17T14:42:25Z</time>
      </trkpt>
      <trkpt lat="43.54871" lon="2.88394">
        <ele>217</ele>
        <time>2019-03-17T14:42:26Z</time>
      </trkpt>
      <trkpt lat="43.54869" lon="2.88391">
        <ele>218</ele>
        <time>2019-03-17T14:42:27Z</time>
      </trkpt>
      <trkpt lat="43.54868" lon="2.88387">
        <ele>218</ele>
        <time>2019-03-17T14:42:28Z</time>
      </trkpt>
      <trkpt lat="43.54865" lon="2.88385">
        <ele>218</ele>
        <time>2019-03-17T14:42:29Z</time>
      </trkpt>
      <trkpt lat="43.54861" lon="2.88384">
        <ele>218</ele>
        <time>2019-03-17T14:42:30Z</time>
      </trkpt>
      <trkpt lat="43.54858" lon="2.88383">
        <ele>218</ele>
        <time>2019-03-17T14:42:31Z</time>
      </trkpt>
      <trkpt lat="43.54855" lon="2.88383">
        <ele>218</ele>
        <time>2019-03-17T14:42:32Z</time>
      </trkpt>
      <trkpt lat="43.54853" lon="2.88382">
        <ele>218</ele>
        <time>2019-03-17T14:42:33Z</time>
      </trkpt>
      <trkpt lat="43.5485" lon="2.88381">
        <ele>218</ele>
        <time>2019-03-17T14:42:34Z</time>
      </trkpt>
      <trkpt lat="43.54848" lon="2.88379">
        <ele>218</ele>
        <time>2019-03-17T14:42:35Z</time>
      </trkpt>
      <trkpt lat="43.54846" lon="2.88376">
        <ele>218</ele>
        <time>2019-03-17T14:42:36Z</time>
      </trkpt>
      <trkpt lat="43.54844" lon="2.88373">
        <ele>218</ele>
        <time>2019-03-17T14:42:37Z</time>
      </trkpt>
      <trkpt lat="43.54841" lon="2.8837">
        <ele>219</ele>
        <time>2019-03-17T14:42:38Z</time>
      </trkpt>
      <trkpt lat="43.54839" lon="2.88367">
        <ele>219</ele>
        <time>2019-03-17T14:42:39Z</time>
      </trkpt>
      <trkpt lat="43.54837" lon="2.88363">
        <ele>219</ele>
        <time>2019-03-17T14:42:40Z</time>
      </trkpt>
      <trkpt lat="43.54835" lon="2.88359">
        <ele>219</ele>
        <time>2019-03-17T14:42:41Z</time>
      </trkpt>
      <trkpt lat="43.54833" lon="2.88355">
        <ele>219</ele>
        <time>2019-03-17T14:42:42Z</time>
      </trkpt>
      <trkpt lat="43.54831" lon="2.88351">
        <ele>219</ele>
        <time>2019-03-17T14:42:43Z</time>
      </trkpt>
      <trkpt lat="43.54829" lon="2.88347">
        <ele>219</ele>
        <time>2019-03-17T14:42:44Z</time>
      </trkpt>
      <trkpt lat="43.54828" lon="2.88342">
        <ele>220</ele>
        <time>2019-03-17T14:42:45Z</time>
      </trkpt>
      <trkpt lat="43.54826" lon="2.88338">
        <ele>220</ele>
        <time>2019-03-17T14:42:46Z</time>
      </trkpt>
      <trkpt lat="43.54824" lon="2.88334">
        <ele>220</ele>
        <time>2019-03-17T14:42:47Z</time>
      </trkpt>
      <trkpt lat="43.54823" lon="2.8833">
        <ele>220</ele>
        <time>2019-03-17T14:42:48Z</time>
      </trkpt>
      <trkpt lat="43.54821" lon="2.88326">
        <ele>220</ele>
        <time>2019-03-17T14:42:49Z</time>
      </trkpt>
      <trkpt lat="43.5482" lon="2.88322">
        <ele>220</ele>
        <time>2019-03-17T14:42:50Z</time>
      </trkpt>
      <trkpt lat="43.54818" lon="2.88318">
        <ele>220</ele>
        <time>2019-03-17T14:42:51Z</time>
      </trkpt>
      <trkpt lat="43.54817" lon="2.88313">
        <ele>220</ele>
        <time>2019-03-17T14:42:52Z</time>
      </trkpt>
      <trkpt lat="43.54816" lon="2.88309">
        <ele>220</ele>
        <time>2019-03-17T14:42:53Z</time>
      </trkpt>
      <trkpt lat="43.54815" lon="2.88304">
        <ele>221</ele>
        <time>2019-03-17T14:42:54Z</time>
      </trkpt>
      <trkpt lat="43.54813" lon="2.88299">
        <ele>221</ele>
        <time>2019-03-17T14:42:55Z</time>
      </trkpt>
      <trkpt lat="43.54812" lon="2.88295">
        <ele>221</ele>
        <time>2019-03-17T14:42:56Z</time>
      </trkpt>
      <trkpt lat="43.54811" lon="2.8829">
        <ele>221</ele>
        <time>2019-03-17T14:42:57Z</time>
      </trkpt>
      <trkpt lat="43.5481" lon="2.88285">
        <ele>221</ele>
        <time>2019-03-17T14:42:58Z</time>
      </trkpt>
      <trkpt lat="43.54808" lon="2.88281">
        <ele>221</ele>
        <time>2019-03-17T14:42:59Z</time>
      </trkpt>
      <trkpt lat="43.54808" lon="2.88276">
        <ele>222</ele>
        <time>2019-03-17T14:43:00Z</time>
      </trkpt>
      <trkpt lat="43.54807" lon="2.88272">
        <ele>222</ele>
        <time>2019-03-17T14:43:01Z</time>
      </trkpt>
      <trkpt lat="43.54806" lon="2.88267">
        <ele>222</ele>
        <time>2019-03-17T14:43:02Z</time>
      </trkpt>
      <trkpt lat="43.54805" lon="2.88263">
        <ele>222</ele>
        <time>2019-03-17T14:43:03Z</time>
      </trkpt>
      <trkpt lat="43.54804" lon="2.88258">
        <ele>222</ele>
        <time>2019-03-17T14:43:04Z</time>
      </trkpt>
      <trkpt lat="43.54803" lon="2.88253">
        <ele>222</ele>
        <time>2019-03-17T14:43:05Z</time>
      </trkpt>
      <trkpt lat="43.54803" lon="2.88249">
        <ele>222</ele>
        <time>2019-03-17T14:43:06Z</time>
      </trkpt>
      <trkpt lat="43.54802" lon="2.88244">
        <ele>223</ele>
        <time>2019-03-17T14:43:07Z</time>
      </trkpt>
      <trkpt lat="43.54801" lon="2.8824">
        <ele>223</ele>
        <time>2019-03-17T14:43:08Z</time>
      </trkpt>
      <trkpt lat="43.54801" lon="2.88235">
        <ele>223</ele>
        <time>2019-03-17T14:43:09Z</time>
      </trkpt>
      <trkpt lat="43.54801" lon="2.88231">
        <ele>223</ele>
        <time>2019-03-17T14:43:10Z</time>
      </trkpt>
      <trkpt lat="43.548" lon="2.88227">
        <ele>223</ele>
        <time>2019-03-17T14:43:11Z</time>
      </trkpt>
      <trkpt lat="43.548" lon="2.88222">
        <ele>224</ele>
        <time>2019-03-17T14:43:12Z</time>
      </trkpt>
      <trkpt lat="43.54799" lon="2.88218">
        <ele>224</ele>
        <time>2019-03-17T14:43:13Z</time>
      </trkpt>
      <trkpt lat="43.54798" lon="2.88213">
        <ele>224</ele>
        <time>2019-03-17T14:43:14Z</time>
      </trkpt>
      <trkpt lat="43.54798" lon="2.88209">
        <ele>224</ele>
        <time>2019-03-17T14:43:15Z</time>
      </trkpt>
      <trkpt lat="43.54797" lon="2.88204">
        <ele>225</ele>
        <time>2019-03-17T14:43:16Z</time>
      </trkpt>
      <trkpt lat="43.54797" lon="2.88199">
        <ele>225</ele>
        <time>2019-03-17T14:43:17Z</time>
      </trkpt>
      <trkpt lat="43.54797" lon="2.88195">
        <ele>225</ele>
        <time>2019-03-17T14:43:18Z</time>
      </trkpt>
      <trkpt lat="43.54796" lon="2.88191">
        <ele>225</ele>
        <time>2019-03-17T14:43:19Z</time>
      </trkpt>
      <trkpt lat="43.54796" lon="2.88186">
        <ele>225</ele>
        <time>2019-03-17T14:43:20Z</time>
      </trkpt>
      <trkpt lat="43.54795" lon="2.88182">
        <ele>226</ele>
        <time>2019-03-17T14:43:21Z</time>
      </trkpt>
      <trkpt lat="43.54795" lon="2.88177">
        <ele>227</ele>
        <time>2019-03-17T14:43:22Z</time>
      </trkpt>
      <trkpt lat="43.54794" lon="2.88172">
        <ele>227</ele>
        <time>2019-03-17T14:43:23Z</time>
      </trkpt>
      <trkpt lat="43.54794" lon="2.88167">
        <ele>228</ele>
        <time>2019-03-17T14:43:24Z</time>
      </trkpt>
      <trkpt lat="43.54794" lon="2.88162">
        <ele>228</ele>
        <time>2019-03-17T14:43:25Z</time>
      </trkpt>
      <trkpt lat="43.54793" lon="2.88157">
        <ele>228</ele>
        <time>2019-03-17T14:43:26Z</time>
      </trkpt>
      <trkpt lat="43.54793" lon="2.88152">
        <ele>228</ele>
        <time>2019-03-17T14:43:27Z</time>
      </trkpt>
      <trkpt lat="43.54792" lon="2.88147">
        <ele>229</ele>
        <time>2019-03-17T14:43:28Z</time>
      </trkpt>
      <trkpt lat="43.5479" lon="2.88142">
        <ele>229</ele>
        <time>2019-03-17T14:43:29Z</time>
      </trkpt>
      <trkpt lat="43.54789" lon="2.88138">
        <ele>230</ele>
        <time>2019-03-17T14:43:30Z</time>
      </trkpt>
      <trkpt lat="43.54788" lon="2.88134">
        <ele>230</ele>
        <time>2019-03-17T14:43:31Z</time>
      </trkpt>
      <trkpt lat="43.54787" lon="2.8813">
        <ele>230</ele>
        <time>2019-03-17T14:43:32Z</time>
      </trkpt>
      <trkpt lat="43.54785" lon="2.88125">
        <ele>230</ele>
        <time>2019-03-17T14:43:33Z</time>
      </trkpt>
      <trkpt lat="43.54784" lon="2.88121">
        <ele>230</ele>
        <time>2019-03-17T14:43:34Z</time>
      </trkpt>
      <trkpt lat="43.54783" lon="2.88116">
        <ele>230</ele>
        <time>2019-03-17T14:43:35Z</time>
      </trkpt>
      <trkpt lat="43.54783" lon="2.88112">
        <ele>230</ele>
        <time>2019-03-17T14:43:36Z</time>
      </trkpt>
      <trkpt lat="43.54782" lon="2.88107">
        <ele>230</ele>
        <time>2019-03-17T14:43:37Z</time>
      </trkpt>
      <trkpt lat="43.54781" lon="2.88102">
        <ele>231</ele>
        <time>2019-03-17T14:43:38Z</time>
      </trkpt>
      <trkpt lat="43.5478" lon="2.88097">
        <ele>231</ele>
        <time>2019-03-17T14:43:39Z</time>
      </trkpt>
      <trkpt lat="43.54779" lon="2.88093">
        <ele>231</ele>
        <time>2019-03-17T14:43:40Z</time>
      </trkpt>
      <trkpt lat="43.54779" lon="2.88088">
        <ele>231</ele>
        <time>2019-03-17T14:43:41Z</time>
      </trkpt>
      <trkpt lat="43.54778" lon="2.88084">
        <ele>231</ele>
        <time>2019-03-17T14:43:42Z</time>
      </trkpt>
      <trkpt lat="43.54778" lon="2.8808">
        <ele>231</ele>
        <time>2019-03-17T14:43:43Z</time>
      </trkpt>
      <trkpt lat="43.54778" lon="2.88075">
        <ele>232</ele>
        <time>2019-03-17T14:43:44Z</time>
      </trkpt>
      <trkpt lat="43.54778" lon="2.8807">
        <ele>232</ele>
        <time>2019-03-17T14:43:45Z</time>
      </trkpt>
      <trkpt lat="43.54779" lon="2.88065">
        <ele>232</ele>
        <time>2019-03-17T14:43:46Z</time>
      </trkpt>
      <trkpt lat="43.5478" lon="2.88059">
        <ele>232</ele>
        <time>2019-03-17T14:43:47Z</time>
      </trkpt>
      <trkpt lat="43.5478" lon="2.88052">
        <ele>232</ele>
        <time>2019-03-17T14:43:48Z</time>
      </trkpt>
      <trkpt lat="43.54778" lon="2.88046">
        <ele>232</ele>
        <time>2019-03-17T14:43:49Z</time>
      </trkpt>
      <trkpt lat="43.54775" lon="2.88042">
        <ele>232</ele>
        <time>2019-03-17T14:43:50Z</time>
      </trkpt>
      <trkpt lat="43.54771" lon="2.88039">
        <ele>232</ele>
        <time>2019-03-17T14:43:51Z</time>
      </trkpt>
      <trkpt lat="43.54768" lon="2.88038">
        <ele>232</ele>
        <time>2019-03-17T14:43:52Z</time>
      </trkpt>
      <trkpt lat="43.54766" lon="2.88036">
        <ele>232</ele>
        <time>2019-03-17T14:43:53Z</time>
      </trkpt>
      <trkpt lat="43.54764" lon="2.88034">
        <ele>233</ele>
        <time>2019-03-17T14:43:54Z</time>
      </trkpt>
      <trkpt lat="43.54762" lon="2.88032">
        <ele>233</ele>
        <time>2019-03-17T14:43:55Z</time>
      </trkpt>
      <trkpt lat="43.5476" lon="2.88029">
        <ele>233</ele>
        <time>2019-03-17T14:43:56Z</time>
      </trkpt>
      <trkpt lat="43.54759" lon="2.88026">
        <ele>233</ele>
        <time>2019-03-17T14:43:57Z</time>
      </trkpt>
      <trkpt lat="43.54759" lon="2.88022">
        <ele>233</ele>
        <time>2019-03-17T14:43:58Z</time>
      </trkpt>
      <trkpt lat="43.54758" lon="2.88019">
        <ele>233</ele>
        <time>2019-03-17T14:43:59Z</time>
      </trkpt>
      <trkpt lat="43.54758" lon="2.88015">
        <ele>234</ele>
        <time>2019-03-17T14:44:00Z</time>
      </trkpt>
      <trkpt lat="43.54757" lon="2.88011">
        <ele>234</ele>
        <time>2019-03-17T14:44:01Z</time>
      </trkpt>
      <trkpt lat="43.54757" lon="2.88007">
        <ele>234</ele>
        <time>2019-03-17T14:44:02Z</time>
      </trkpt>
      <trkpt lat="43.54756" lon="2.88004">
        <ele>234</ele>
        <time>2019-03-17T14:44:03Z</time>
      </trkpt>
      <trkpt lat="43.54756" lon="2.87999">
        <ele>235</ele>
        <time>2019-03-17T14:44:04Z</time>
      </trkpt>
      <trkpt lat="43.54756" lon="2.87995">
        <ele>235</ele>
        <time>2019-03-17T14:44:05Z</time>
      </trkpt>
      <trkpt lat="43.54755" lon="2.87991">
        <ele>236</ele>
        <time>2019-03-17T14:44:06Z</time>
      </trkpt>
      <trkpt lat="43.54755" lon="2.87987">
        <ele>236</ele>
        <time>2019-03-17T14:44:07Z</time>
      </trkpt>
      <trkpt lat="43.54755" lon="2.87983">
        <ele>236</ele>
        <time>2019-03-17T14:44:08Z</time>
      </trkpt>
      <trkpt lat="43.54754" lon="2.87979">
        <ele>236</ele>
        <time>2019-03-17T14:44:09Z</time>
      </trkpt>
      <trkpt lat="43.54754" lon="2.87975">
        <ele>236</ele>
        <time>2019-03-17T14:44:10Z</time>
      </trkpt>
      <trkpt lat="43.54753" lon="2.87971">
        <ele>237</ele>
        <time>2019-03-17T14:44:11Z</time>
      </trkpt>
      <trkpt lat="43.54753" lon="2.87967">
        <ele>237</ele>
        <time>2019-03-17T14:44:12Z</time>
      </trkpt>
      <trkpt lat="43.54753" lon="2.87963">
        <ele>237</ele>
        <time>2019-03-17T14:44:13Z</time>
      </trkpt>
      <trkpt lat="43.54752" lon="2.87959">
        <ele>237</ele>
        <time>2019-03-17T14:44:14Z</time>
      </trkpt>
      <trkpt lat="43.54752" lon="2.87955">
        <ele>237</ele>
        <time>2019-03-17T14:44:15Z</time>
      </trkpt>
      <trkpt lat="43.54752" lon="2.87951">
        <ele>237</ele>
        <time>2019-03-17T14:44:16Z</time>
      </trkpt>
      <trkpt lat="43.54752" lon="2.87947">
        <ele>237</ele>
        <time>2019-03-17T14:44:17Z</time>
      </trkpt>
      <trkpt lat="43.54752" lon="2.87943">
        <ele>237</ele>
        <time>2019-03-17T14:44:18Z</time>
      </trkpt>
      <trkpt lat="43.54752" lon="2.87939">
        <ele>237</ele>
        <time>2019-03-17T14:44:19Z</time>
      </trkpt>
      <trkpt lat="43.54753" lon="2.87935">
        <ele>238</ele>
        <time>2019-03-17T14:44:20Z</time>
      </trkpt>
      <trkpt lat="43.54754" lon="2.8793">
        <ele>238</ele>
        <time>2019-03-17T14:44:21Z</time>
      </trkpt>
      <trkpt lat="43.54754" lon="2.87926">
        <ele>239</ele>
        <time>2019-03-17T14:44:22Z</time>
      </trkpt>
      <trkpt lat="43.54754" lon="2.87921">
        <ele>239</ele>
        <time>2019-03-17T14:44:23Z</time>
      </trkpt>
      <trkpt lat="43.54754" lon="2.87917">
        <ele>239</ele>
        <time>2019-03-17T14:44:24Z</time>
      </trkpt>
      <trkpt lat="43.54752" lon="2.87912">
        <ele>239</ele>
        <time>2019-03-17T14:44:25Z</time>
      </trkpt>
      <trkpt lat="43.5475" lon="2.87908">
        <ele>239</ele>
        <time>2019-03-17T14:44:26Z</time>
      </trkpt>
      <trkpt lat="43.54749" lon="2.87904">
        <ele>239</ele>
        <time>2019-03-17T14:44:27Z</time>
      </trkpt>
      <trkpt lat="43.54747" lon="2.87899">
        <ele>240</ele>
        <time>2019-03-17T14:44:28Z</time>
      </trkpt>
      <trkpt lat="43.54746" lon="2.87895">
        <ele>240</ele>
        <time>2019-03-17T14:44:29Z</time>
      </trkpt>
      <trkpt lat="43.54745" lon="2.87891">
        <ele>240</ele>
        <time>2019-03-17T14:44:30Z</time>
      </trkpt>
      <trkpt lat="43.54744" lon="2.87887">
        <ele>240</ele>
        <time>2019-03-17T14:44:31Z</time>
      </trkpt>
      <trkpt lat="43.54743" lon="2.87882">
        <ele>240</ele>
        <time>2019-03-17T14:44:32Z</time>
      </trkpt>
      <trkpt lat="43.54743" lon="2.87878">
        <ele>240</ele>
        <time>2019-03-17T14:44:33Z</time>
      </trkpt>
      <trkpt lat="43.54742" lon="2.87873">
        <ele>240</ele>
        <time>2019-03-17T14:44:34Z</time>
      </trkpt>
      <trkpt lat="43.54741" lon="2.87869">
        <ele>241</ele>
        <time>2019-03-17T14:44:35Z</time>
      </trkpt>
      <trkpt lat="43.54739" lon="2.87864">
        <ele>241</ele>
        <time>2019-03-17T14:44:36Z</time>
      </trkpt>
      <trkpt lat="43.54738" lon="2.8786">
        <ele>241</ele>
        <time>2019-03-17T14:44:37Z</time>
      </trkpt>
      <trkpt lat="43.54736" lon="2.87855">
        <ele>242</ele>
        <time>2019-03-17T14:44:38Z</time>
      </trkpt>
      <trkpt lat="43.54734" lon="2.8785">
        <ele>242</ele>
        <time>2019-03-17T14:44:39Z</time>
      </trkpt>
      <trkpt lat="43.54732" lon="2.87845">
        <ele>242</ele>
        <time>2019-03-17T14:44:40Z</time>
      </trkpt>
      <trkpt lat="43.5473" lon="2.87841">
        <ele>242</ele>
        <time>2019-03-17T14:44:41Z</time>
      </trkpt>
      <trkpt lat="43.54728" lon="2.87837">
        <ele>243</ele>
        <time>2019-03-17T14:44:42Z</time>
      </trkpt>
      <trkpt lat="43.54726" lon="2.87834">
        <ele>243</ele>
        <time>2019-03-17T14:44:43Z</time>
      </trkpt>
      <trkpt lat="43.54724" lon="2.8783">
        <ele>243</ele>
        <time>2019-03-17T14:44:44Z</time>
      </trkpt>
      <trkpt lat="43.54722" lon="2.87826">
        <ele>244</ele>
        <time>2019-03-17T14:44:45Z</time>
      </trkpt>
      <trkpt lat="43.54719" lon="2.87823">
        <ele>244</ele>
        <time>2019-03-17T14:44:46Z</time>
      </trkpt>
      <trkpt lat="43.54717" lon="2.87819">
        <ele>244</ele>
        <time>2019-03-17T14:44:47Z</time>
      </trkpt>
      <trkpt lat="43.54714" lon="2.87816">
        <ele>245</ele>
        <time>2019-03-17T14:44:48Z</time>
      </trkpt>
      <trkpt lat="43.54712" lon="2.87813">
        <ele>245</ele>
        <time>2019-03-17T14:44:49Z</time>
      </trkpt>
      <trkpt lat="43.5471" lon="2.87809">
        <ele>246</ele>
        <time>2019-03-17T14:44:50Z</time>
      </trkpt>
      <trkpt lat="43.54707" lon="2.87805">
        <ele>246</ele>
        <time>2019-03-17T14:44:51Z</time>
      </trkpt>
      <trkpt lat="43.54703" lon="2.87802">
        <ele>246</ele>
        <time>2019-03-17T14:44:52Z</time>
      </trkpt>
      <trkpt lat="43.547" lon="2.87798">
        <ele>247</ele>
        <time>2019-03-17T14:44:53Z</time>
      </trkpt>
      <trkpt lat="43.54697" lon="2.87795">
        <ele>247</ele>
        <time>2019-03-17T14:44:54Z</time>
      </trkpt>
      <trkpt lat="43.54693" lon="2.87793">
        <ele>247</ele>
        <time>2019-03-17T14:44:55Z</time>
      </trkpt>
      <trkpt lat="43.54689" lon="2.87791">
        <ele>247</ele>
        <time>2019-03-17T14:44:56Z</time>
      </trkpt>
      <trkpt lat="43.54685" lon="2.87789">
        <ele>247</ele>
        <time>2019-03-17T14:44:57Z</time>
      </trkpt>
      <trkpt lat="43.54681" lon="2.87788">
        <ele>248</ele>
        <time>2019-03-17T14:44:58Z</time>
      </trkpt>
      <trkpt lat="43.54677" lon="2.87786">
        <ele>248</ele>
        <time>2019-03-17T14:44:59Z</time>
      </trkpt>
      <trkpt lat="43.54673" lon="2.87785">
        <ele>248</ele>
        <time>2019-03-17T14:45:00Z</time>
      </trkpt>
      <trkpt lat="43.5467" lon="2.87783">
        <ele>248</ele>
        <time>2019-03-17T14:45:01Z</time>
      </trkpt>
      <trkpt lat="43.54667" lon="2.87781">
        <ele>249</ele>
        <time>2019-03-17T14:45:02Z</time>
      </trkpt>
      <trkpt lat="43.54665" lon="2.87779">
        <ele>249</ele>
        <time>2019-03-17T14:45:03Z</time>
      </trkpt>
      <trkpt lat="43.54662" lon="2.87776">
        <ele>249</ele>
        <time>2019-03-17T14:45:04Z</time>
      </trkpt>
      <trkpt lat="43.54659" lon="2.87773">
        <ele>249</ele>
        <time>2019-03-17T14:45:05Z</time>
      </trkpt>
      <trkpt lat="43.54656" lon="2.8777">
        <ele>250</ele>
        <time>2019-03-17T14:45:06Z</time>
      </trkpt>
      <trkpt lat="43.54654" lon="2.87767">
        <ele>250</ele>
        <time>2019-03-17T14:45:07Z</time>
      </trkpt>
      <trkpt lat="43.54651" lon="2.87763">
        <ele>250</ele>
        <time>2019-03-17T14:45:08Z</time>
      </trkpt>
      <trkpt lat="43.54649" lon="2.87759">
        <ele>251</ele>
        <time>2019-03-17T14:45:09Z</time>
      </trkpt>
      <trkpt lat="43.54647" lon="2.87754">
        <ele>251</ele>
        <time>2019-03-17T14:45:10Z</time>
      </trkpt>
      <trkpt lat="43.54646" lon="2.8775">
        <ele>252</ele>
        <time>2019-03-17T14:45:11Z</time>
      </trkpt>
      <trkpt lat="43.54644" lon="2.87745">
        <ele>252</ele>
        <time>2019-03-17T14:45:12Z</time>
      </trkpt>
      <trkpt lat="43.54642" lon="2.87741">
        <ele>252</ele>
        <time>2019-03-17T14:45:13Z</time>
      </trkpt>
      <trkpt lat="43.54639" lon="2.87737">
        <ele>252</ele>
        <time>2019-03-17T14:45:14Z</time>
      </trkpt>
      <trkpt lat="43.54637" lon="2.87733">
        <ele>253</ele>
        <time>2019-03-17T14:45:15Z</time>
      </trkpt>
      <trkpt lat="43.54635" lon="2.87728">
        <ele>253</ele>
        <time>2019-03-17T14:45:16Z</time>
      </trkpt>
      <trkpt lat="43.54632" lon="2.87724">
        <ele>253</ele>
        <time>2019-03-17T14:45:17Z</time>
      </trkpt>
      <trkpt lat="43.5463" lon="2.8772">
        <ele>253</ele>
        <time>2019-03-17T14:45:18Z</time>
      </trkpt>
      <trkpt lat="43.54628" lon="2.87716">
        <ele>254</ele>
        <time>2019-03-17T14:45:19Z</time>
      </trkpt>
      <trkpt lat="43.54625" lon="2.87712">
        <ele>254</ele>
        <time>2019-03-17T14:45:20Z</time>
      </trkpt>
      <trkpt lat="43.54623" lon="2.87708">
        <ele>254</ele>
        <time>2019-03-17T14:45:21Z</time>
      </trkpt>
      <trkpt lat="43.54621" lon="2.87705">
        <ele>254</ele>
        <time>2019-03-17T14:45:22Z</time>
      </trkpt>
      <trkpt lat="43.54619" lon="2.87702">
        <ele>254</ele>
        <time>2019-03-17T14:45:23Z</time>
      </trkpt>
      <trkpt lat="43.54617" lon="2.87698">
        <ele>254</ele>
        <time>2019-03-17T14:45:24Z</time>
      </trkpt>
      <trkpt lat="43.54615" lon="2.87695">
        <ele>254</ele>
        <time>2019-03-17T14:45:25Z</time>
      </trkpt>
      <trkpt lat="43.54613" lon="2.87691">
        <ele>255</ele>
        <time>2019-03-17T14:45:26Z</time>
      </trkpt>
      <trkpt lat="43.54611" lon="2.87688">
        <ele>255</ele>
        <time>2019-03-17T14:45:27Z</time>
      </trkpt>
      <trkpt lat="43.54609" lon="2.87684">
        <ele>256</ele>
        <time>2019-03-17T14:45:28Z</time>
      </trkpt>
      <trkpt lat="43.54607" lon="2.87679">
        <ele>257</ele>
        <time>2019-03-17T14:45:29Z</time>
      </trkpt>
      <trkpt lat="43.54606" lon="2.87675">
        <ele>257</ele>
        <time>2019-03-17T14:45:30Z</time>
      </trkpt>
      <trkpt lat="43.54604" lon="2.8767">
        <ele>258</ele>
        <time>2019-03-17T14:45:31Z</time>
      </trkpt>
      <trkpt lat="43.54601" lon="2.87665">
        <ele>258</ele>
        <time>2019-03-17T14:45:32Z</time>
      </trkpt>
      <trkpt lat="43.54599" lon="2.8766">
        <ele>258</ele>
        <time>2019-03-17T14:45:33Z</time>
      </trkpt>
      <trkpt lat="43.54597" lon="2.87655">
        <ele>258</ele>
        <time>2019-03-17T14:45:34Z</time>
      </trkpt>
      <trkpt lat="43.54594" lon="2.87651">
        <ele>259</ele>
        <time>2019-03-17T14:45:35Z</time>
      </trkpt>
      <trkpt lat="43.54592" lon="2.87646">
        <ele>259</ele>
        <time>2019-03-17T14:45:36Z</time>
      </trkpt>
      <trkpt lat="43.54589" lon="2.87642">
        <ele>260</ele>
        <time>2019-03-17T14:45:37Z</time>
      </trkpt>
      <trkpt lat="43.54587" lon="2.87638">
        <ele>260</ele>
        <time>2019-03-17T14:45:38Z</time>
      </trkpt>
      <trkpt lat="43.54584" lon="2.87633">
        <ele>260</ele>
        <time>2019-03-17T14:45:39Z</time>
      </trkpt>
      <trkpt lat="43.54581" lon="2.87629">
        <ele>260</ele>
        <time>2019-03-17T14:45:40Z</time>
      </trkpt>
      <trkpt lat="43.54578" lon="2.87624">
        <ele>260</ele>
        <time>2019-03-17T14:45:41Z</time>
      </trkpt>
      <trkpt lat="43.54575" lon="2.87618">
        <ele>261</ele>
        <time>2019-03-17T14:45:42Z</time>
      </trkpt>
      <trkpt lat="43.54572" lon="2.87613">
        <ele>261</ele>
        <time>2019-03-17T14:45:43Z</time>
      </trkpt>
      <trkpt lat="43.5457" lon="2.87608">
        <ele>261</ele>
        <time>2019-03-17T14:45:44Z</time>
      </trkpt>
      <trkpt lat="43.54567" lon="2.87602">
        <ele>261</ele>
        <time>2019-03-17T14:45:45Z</time>
      </trkpt>
      <trkpt lat="43.54564" lon="2.87597">
        <ele>261</ele>
        <time>2019-03-17T14:45:46Z</time>
      </trkpt>
      <trkpt lat="43.54561" lon="2.87592">
        <ele>261</ele>
        <time>2019-03-17T14:45:47Z</time>
      </trkpt>
      <trkpt lat="43.54558" lon="2.87587">
        <ele>261</ele>
        <time>2019-03-17T14:45:48Z</time>
      </trkpt>
      <trkpt lat="43.54554" lon="2.87582">
        <ele>260</ele>
        <time>2019-03-17T14:45:49Z</time>
      </trkpt>
      <trkpt lat="43.54551" lon="2.87577">
        <ele>260</ele>
        <time>2019-03-17T14:45:50Z</time>
      </trkpt>
      <trkpt lat="43.54548" lon="2.87573">
        <ele>260</ele>
        <time>2019-03-17T14:45:51Z</time>
      </trkpt>
      <trkpt lat="43.54545" lon="2.87568">
        <ele>260</ele>
        <time>2019-03-17T14:45:52Z</time>
      </trkpt>
      <trkpt lat="43.54541" lon="2.87564">
        <ele>260</ele>
        <time>2019-03-17T14:45:53Z</time>
      </trkpt>
      <trkpt lat="43.54538" lon="2.87559">
        <ele>260</ele>
        <time>2019-03-17T14:45:54Z</time>
      </trkpt>
      <trkpt lat="43.54534" lon="2.87555">
        <ele>260</ele>
        <time>2019-03-17T14:45:55Z</time>
      </trkpt>
      <trkpt lat="43.54531" lon="2.87551">
        <ele>260</ele>
        <time>2019-03-17T14:45:56Z</time>
      </trkpt>
      <trkpt lat="43.54527" lon="2.87547">
        <ele>260</ele>
        <time>2019-03-17T14:45:57Z</time>
      </trkpt>
      <trkpt lat="43.54523" lon="2.87543">
        <ele>260</ele>
        <time>2019-03-17T14:45:58Z</time>
      </trkpt>
      <trkpt lat="43.54519" lon="2.8754">
        <ele>260</ele>
        <time>2019-03-17T14:45:59Z</time>
      </trkpt>
      <trkpt lat="43.54514" lon="2.87536">
        <ele>260</ele>
        <time>2019-03-17T14:46:00Z</time>
      </trkpt>
      <trkpt lat="43.5451" lon="2.87533">
        <ele>260</ele>
        <time>2019-03-17T14:46:01Z</time>
      </trkpt>
      <trkpt lat="43.54506" lon="2.87529">
        <ele>260</ele>
        <time>2019-03-17T14:46:02Z</time>
      </trkpt>
      <trkpt lat="43.54501" lon="2.87526">
        <ele>260</ele>
        <time>2019-03-17T14:46:03Z</time>
      </trkpt>
      <trkpt lat="43.54497" lon="2.87522">
        <ele>260</ele>
        <time>2019-03-17T14:46:04Z</time>
      </trkpt>
      <trkpt lat="43.54492" lon="2.87517">
        <ele>260</ele>
        <time>2019-03-17T14:46:05Z</time>
      </trkpt>
      <trkpt lat="43.54487" lon="2.87512">
        <ele>260</ele>
        <time>2019-03-17T14:46:06Z</time>
      </trkpt>
      <trkpt lat="43.54482" lon="2.87508">
        <ele>260</ele>
        <time>2019-03-17T14:46:07Z</time>
      </trkpt>
      <trkpt lat="43.54477" lon="2.87504">
        <ele>260</ele>
        <time>2019-03-17T14:46:08Z</time>
      </trkpt>
      <trkpt lat="43.54472" lon="2.875">
        <ele>260</ele>
        <time>2019-03-17T14:46:09Z</time>
      </trkpt>
      <trkpt lat="43.54466" lon="2.87496">
        <ele>260</ele>
        <time>2019-03-17T14:46:10Z</time>
      </trkpt>
      <trkpt lat="43.54461" lon="2.87492">
        <ele>260</ele>
        <time>2019-03-17T14:46:11Z</time>
      </trkpt>
      <trkpt lat="43.54455" lon="2.87489">
        <ele>259</ele>
        <time>2019-03-17T14:46:12Z</time>
      </trkpt>
      <trkpt lat="43.5445" lon="2.87485">
        <ele>259</ele>
        <time>2019-03-17T14:46:13Z</time>
      </trkpt>
      <trkpt lat="43.54446" lon="2.87481">
        <ele>259</ele>
        <time>2019-03-17T14:46:14Z</time>
      </trkpt>
      <trkpt lat="43.54441" lon="2.87476">
        <ele>259</ele>
        <time>2019-03-17T14:46:15Z</time>
      </trkpt>
      <trkpt lat="43.54436" lon="2.87472">
        <ele>259</ele>
        <time>2019-03-17T14:46:16Z</time>
      </trkpt>
      <trkpt lat="43.54431" lon="2.87467">
        <ele>258</ele>
        <time>2019-03-17T14:46:17Z</time>
      </trkpt>
      <trkpt lat="43.54427" lon="2.87462">
        <ele>258</ele>
        <time>2019-03-17T14:46:18Z</time>
      </trkpt>
      <trkpt lat="43.54422" lon="2.87457">
        <ele>258</ele>
        <time>2019-03-17T14:46:19Z</time>
      </trkpt>
      <trkpt lat="43.54416" lon="2.87453">
        <ele>257</ele>
        <time>2019-03-17T14:46:20Z</time>
      </trkpt>
      <trkpt lat="43.54411" lon="2.87448">
        <ele>256</ele>
        <time>2019-03-17T14:46:21Z</time>
      </trkpt>
      <trkpt lat="43.54405" lon="2.87443">
        <ele>256</ele>
        <time>2019-03-17T14:46:22Z</time>
      </trkpt>
      <trkpt lat="43.54399" lon="2.87437">
        <ele>255</ele>
        <time>2019-03-17T14:46:23Z</time>
      </trkpt>
      <trkpt lat="43.54392" lon="2.87432">
        <ele>255</ele>
        <time>2019-03-17T14:46:24Z</time>
      </trkpt>
      <trkpt lat="43.54386" lon="2.87427">
        <ele>254</ele>
        <time>2019-03-17T14:46:25Z</time>
      </trkpt>
      <trkpt lat="43.54379" lon="2.87423">
        <ele>254</ele>
        <time>2019-03-17T14:46:26Z</time>
      </trkpt>
      <trkpt lat="43.54372" lon="2.87418">
        <ele>254</ele>
        <time>2019-03-17T14:46:27Z</time>
      </trkpt>
      <trkpt lat="43.54365" lon="2.87414">
        <ele>254</ele>
        <time>2019-03-17T14:46:28Z</time>
      </trkpt>
      <trkpt lat="43.54358" lon="2.8741">
        <ele>253</ele>
        <time>2019-03-17T14:46:29Z</time>
      </trkpt>
      <trkpt lat="43.54351" lon="2.87407">
        <ele>252</ele>
        <time>2019-03-17T14:46:30Z</time>
      </trkpt>
      <trkpt lat="43.54345" lon="2.87404">
        <ele>252</ele>
        <time>2019-03-17T14:46:31Z</time>
      </trkpt>
      <trkpt lat="43.54338" lon="2.87401">
        <ele>251</ele>
        <time>2019-03-17T14:46:32Z</time>
      </trkpt>
      <trkpt lat="43.54332" lon="2.87396">
        <ele>250</ele>
        <time>2019-03-17T14:46:33Z</time>
      </trkpt>
      <trkpt lat="43.54326" lon="2.87389">
        <ele>249</ele>
        <time>2019-03-17T14:46:34Z</time>
      </trkpt>
      <trkpt lat="43.54321" lon="2.87381">
        <ele>249</ele>
        <time>2019-03-17T14:46:35Z</time>
      </trkpt>
      <trkpt lat="43.54318" lon="2.87371">
        <ele>248</ele>
        <time>2019-03-17T14:46:36Z</time>
      </trkpt>
      <trkpt lat="43.54316" lon="2.87361">
        <ele>248</ele>
        <time>2019-03-17T14:46:37Z</time>
      </trkpt>
      <trkpt lat="43.54315" lon="2.87351">
        <ele>248</ele>
        <time>2019-03-17T14:46:38Z</time>
      </trkpt>
      <trkpt lat="43.54316" lon="2.8734">
        <ele>247</ele>
        <time>2019-03-17T14:46:39Z</time>
      </trkpt>
      <trkpt lat="43.54318" lon="2.8733">
        <ele>247</ele>
        <time>2019-03-17T14:46:40Z</time>
      </trkpt>
      <trkpt lat="43.54322" lon="2.8732">
        <ele>247</ele>
        <time>2019-03-17T14:46:41Z</time>
      </trkpt>
      <trkpt lat="43.54326" lon="2.87311">
        <ele>247</ele>
        <time>2019-03-17T14:46:42Z</time>
      </trkpt>
      <trkpt lat="43.54329" lon="2.87301">
        <ele>246</ele>
        <time>2019-03-17T14:46:43Z</time>
      </trkpt>
      <trkpt lat="43.54332" lon="2.87292">
        <ele>246</ele>
        <time>2019-03-17T14:46:44Z</time>
      </trkpt>
      <trkpt lat="43.54334" lon="2.87282">
        <ele>245</ele>
        <time>2019-03-17T14:46:45Z</time>
      </trkpt>
      <trkpt lat="43.54337" lon="2.87273">
        <ele>244</ele>
        <time>2019-03-17T14:46:46Z</time>
      </trkpt>
      <trkpt lat="43.54339" lon="2.87264">
        <ele>244</ele>
        <time>2019-03-17T14:46:47Z</time>
      </trkpt>
      <trkpt lat="43.54341" lon="2.87256">
        <ele>243</ele>
        <time>2019-03-17T14:46:48Z</time>
      </trkpt>
      <trkpt lat="43.54344" lon="2.87247">
        <ele>243</ele>
        <time>2019-03-17T14:46:49Z</time>
      </trkpt>
      <trkpt lat="43.54347" lon="2.87239">
        <ele>242</ele>
        <time>2019-03-17T14:46:50Z</time>
      </trkpt>
      <trkpt lat="43.54349" lon="2.8723">
        <ele>242</ele>
        <time>2019-03-17T14:46:51Z</time>
      </trkpt>
      <trkpt lat="43.54352" lon="2.87221">
        <ele>242</ele>
        <time>2019-03-17T14:46:52Z</time>
      </trkpt>
      <trkpt lat="43.54354" lon="2.87213">
        <ele>242</ele>
        <time>2019-03-17T14:46:53Z</time>
      </trkpt>
      <trkpt lat="43.54356" lon="2.87204">
        <ele>242</ele>
        <time>2019-03-17T14:46:54Z</time>
      </trkpt>
      <trkpt lat="43.54359" lon="2.87194">
        <ele>241</ele>
        <time>2019-03-17T14:46:55Z</time>
      </trkpt>
      <trkpt lat="43.54361" lon="2.87184">
        <ele>241</ele>
        <time>2019-03-17T14:46:56Z</time>
      </trkpt>
      <trkpt lat="43.54363" lon="2.87174">
        <ele>241</ele>
        <time>2019-03-17T14:46:57Z</time>
      </trkpt>
      <trkpt lat="43.54365" lon="2.87164">
        <ele>240</ele>
        <time>2019-03-17T14:46:58Z</time>
      </trkpt>
      <trkpt lat="43.54367" lon="2.87155">
        <ele>239</ele>
        <time>2019-03-17T14:46:59Z</time>
      </trkpt>
      <trkpt lat="43.54369" lon="2.87147">
        <ele>239</ele>
        <time>2019-03-17T14:47:00Z</time>
      </trkpt>
      <trkpt lat="43.54373" lon="2.8714">
        <ele>239</ele>
        <time>2019-03-17T14:47:01Z</time>
      </trkpt>
      <trkpt lat="43.54377" lon="2.87133">
        <ele>238</ele>
        <time>2019-03-17T14:47:02Z</time>
      </trkpt>
      <trkpt lat="43.54383" lon="2.87126">
        <ele>237</ele>
        <time>2019-03-17T14:47:03Z</time>
      </trkpt>
      <trkpt lat="43.54388" lon="2.87119">
        <ele>235</ele>
        <time>2019-03-17T14:47:04Z</time>
      </trkpt>
      <trkpt lat="43.54394" lon="2.87111">
        <ele>234</ele>
        <time>2019-03-17T14:47:05Z</time>
      </trkpt>
      <trkpt lat="43.54399" lon="2.87102">
        <ele>233</ele>
        <time>2019-03-17T14:47:06Z</time>
      </trkpt>
      <trkpt lat="43.54405" lon="2.87094">
        <ele>232</ele>
        <time>2019-03-17T14:47:07Z</time>
      </trkpt>
      <trkpt lat="43.54409" lon="2.87088">
        <ele>231</ele>
        <time>2019-03-17T14:47:08Z</time>
      </trkpt>
      <trkpt lat="43.54412" lon="2.87082">
        <ele>231</ele>
        <time>2019-03-17T14:47:09Z</time>
      </trkpt>
      <trkpt lat="43.54415" lon="2.87077">
        <ele>231</ele>
        <time>2019-03-17T14:47:10Z</time>
      </trkpt>
      <trkpt lat="43.54415" lon="2.87073">
        <ele>231</ele>
        <time>2019-03-17T14:47:11Z</time>
      </trkpt>
      <trkpt lat="43.54413" lon="2.87069">
        <ele>230</ele>
        <time>2019-03-17T14:47:12Z</time>
      </trkpt>
      <trkpt lat="43.54412" lon="2.87065">
        <ele>230</ele>
        <time>2019-03-17T14:47:13Z</time>
      </trkpt>
      <trkpt lat="43.54414" lon="2.87059">
        <ele>230</ele>
        <time>2019-03-17T14:47:14Z</time>
      </trkpt>
      <trkpt lat="43.54417" lon="2.87054">
        <ele>229</ele>
        <time>2019-03-17T14:47:15Z</time>
      </trkpt>
      <trkpt lat="43.54421" lon="2.87049">
        <ele>228</ele>
        <time>2019-03-17T14:47:16Z</time>
      </trkpt>
      <trkpt lat="43.54424" lon="2.87043">
        <ele>227</ele>
        <time>2019-03-17T14:47:17Z</time>
      </trkpt>
      <trkpt lat="43.54428" lon="2.87038">
        <ele>227</ele>
        <time>2019-03-17T14:47:18Z</time>
      </trkpt>
      <trkpt lat="43.54431" lon="2.87032">
        <ele>227</ele>
        <time>2019-03-17T14:47:19Z</time>
      </trkpt>
      <trkpt lat="43.54434" lon="2.87027">
        <ele>226</ele>
        <time>2019-03-17T14:47:20Z</time>
      </trkpt>
      <trkpt lat="43.54437" lon="2.87021">
        <ele>224</ele>
        <time>2019-03-17T14:47:21Z</time>
      </trkpt>
      <trkpt lat="43.5444" lon="2.87016">
        <ele>223</ele>
        <time>2019-03-17T14:47:22Z</time>
      </trkpt>
      <trkpt lat="43.54443" lon="2.87012">
        <ele>223</ele>
        <time>2019-03-17T14:47:23Z</time>
      </trkpt>
      <trkpt lat="43.54446" lon="2.87007">
        <ele>222</ele>
        <time>2019-03-17T14:47:24Z</time>
      </trkpt>
      <trkpt lat="43.54448" lon="2.87003">
        <ele>222</ele>
        <time>2019-03-17T14:47:25Z</time>
      </trkpt>
      <trkpt lat="43.54451" lon="2.86998">
        <ele>222</ele>
        <time>2019-03-17T14:47:26Z</time>
      </trkpt>
      <trkpt lat="43.54453" lon="2.86994">
        <ele>222</ele>
        <time>2019-03-17T14:47:27Z</time>
      </trkpt>
      <trkpt lat="43.54455" lon="2.86989">
        <ele>221</ele>
        <time>2019-03-17T14:47:28Z</time>
      </trkpt>
      <trkpt lat="43.54458" lon="2.86985">
        <ele>221</ele>
        <time>2019-03-17T14:47:29Z</time>
      </trkpt>
      <trkpt lat="43.5446" lon="2.8698">
        <ele>221</ele>
        <time>2019-03-17T14:47:30Z</time>
      </trkpt>
      <trkpt lat="43.54462" lon="2.86975">
        <ele>221</ele>
        <time>2019-03-17T14:47:31Z</time>
      </trkpt>
      <trkpt lat="43.54464" lon="2.86971">
        <ele>221</ele>
        <time>2019-03-17T14:47:32Z</time>
      </trkpt>
      <trkpt lat="43.54466" lon="2.86966">
        <ele>221</ele>
        <time>2019-03-17T14:47:33Z</time>
      </trkpt>
      <trkpt lat="43.54468" lon="2.86961">
        <ele>221</ele>
        <time>2019-03-17T14:47:34Z</time>
      </trkpt>
      <trkpt lat="43.5447" lon="2.86957">
        <ele>221</ele>
        <time>2019-03-17T14:47:35Z</time>
      </trkpt>
      <trkpt lat="43.54472" lon="2.86952">
        <ele>221</ele>
        <time>2019-03-17T14:47:36Z</time>
      </trkpt>
      <trkpt lat="43.54474" lon="2.86948">
        <ele>221</ele>
        <time>2019-03-17T14:47:37Z</time>
      </trkpt>
      <trkpt lat="43.54476" lon="2.86943">
        <ele>221</ele>
        <time>2019-03-17T14:47:38Z</time>
      </trkpt>
      <trkpt lat="43.54477" lon="2.86939">
        <ele>221</ele>
        <time>2019-03-17T14:47:39Z</time>
      </trkpt>
      <trkpt lat="43.54478" lon="2.86933">
        <ele>221</ele>
        <time>2019-03-17T14:47:40Z</time>
      </trkpt>
      <trkpt lat="43.5448" lon="2.86928">
        <ele>221</ele>
        <time>2019-03-17T14:47:41Z</time>
      </trkpt>
      <trkpt lat="43.54482" lon="2.86922">
        <ele>221</ele>
        <time>2019-03-17T14:47:42Z</time>
      </trkpt>
      <trkpt lat="43.54484" lon="2.86917">
        <ele>221</ele>
        <time>2019-03-17T14:47:43Z</time>
      </trkpt>
      <trkpt lat="43.54486" lon="2.86912">
        <ele>221</ele>
        <time>2019-03-17T14:47:44Z</time>
      </trkpt>
      <trkpt lat="43.54488" lon="2.86907">
        <ele>222</ele>
        <time>2019-03-17T14:47:45Z</time>
      </trkpt>
      <trkpt lat="43.54489" lon="2.86902">
        <ele>222</ele>
        <time>2019-03-17T14:47:46Z</time>
      </trkpt>
      <trkpt lat="43.54489" lon="2.86896">
        <ele>222</ele>
        <time>2019-03-17T14:47:47Z</time>
      </trkpt>
      <trkpt lat="43.5449" lon="2.8689">
        <ele>222</ele>
        <time>2019-03-17T14:47:48Z</time>
      </trkpt>
      <trkpt lat="43.54491" lon="2.86884">
        <ele>222</ele>
        <time>2019-03-17T14:47:49Z</time>
      </trkpt>
      <trkpt lat="43.54492" lon="2.86878">
        <ele>222</ele>
        <time>2019-03-17T14:47:50Z</time>
      </trkpt>
      <trkpt lat="43.54493" lon="2.86871">
        <ele>222</ele>
        <time>2019-03-17T14:47:51Z</time>
      </trkpt>
      <trkpt lat="43.54494" lon="2.86865">
        <ele>222</ele>
        <time>2019-03-17T14:47:52Z</time>
      </trkpt>
      <trkpt lat="43.54495" lon="2.86859">
        <ele>222</ele>
        <time>2019-03-17T14:47:53Z</time>
      </trkpt>
      <trkpt lat="43.54495" lon="2.86853">
        <ele>222</ele>
        <time>2019-03-17T14:47:54Z</time>
      </trkpt>
      <trkpt lat="43.54496" lon="2.86847">
        <ele>222</ele>
        <time>2019-03-17T14:47:55Z</time>
      </trkpt>
      <trkpt lat="43.54497" lon="2.8684">
        <ele>222</ele>
        <time>2019-03-17T14:47:56Z</time>
      </trkpt>
      <trkpt lat="43.54497" lon="2.86834">
        <ele>222</ele>
        <time>2019-03-17T14:47:57Z</time>
      </trkpt>
      <trkpt lat="43.54498" lon="2.86827">
        <ele>222</ele>
        <time>2019-03-17T14:47:58Z</time>
      </trkpt>
      <trkpt lat="43.54498" lon="2.8682">
        <ele>222</ele>
        <time>2019-03-17T14:47:59Z</time>
      </trkpt>
      <trkpt lat="43.54498" lon="2.86814">
        <ele>222</ele>
        <time>2019-03-17T14:48:00Z</time>
      </trkpt>
      <trkpt lat="43.54499" lon="2.86808">
        <ele>222</ele>
        <time>2019-03-17T14:48:01Z</time>
      </trkpt>
      <trkpt lat="43.54499" lon="2.86801">
        <ele>222</ele>
        <time>2019-03-17T14:48:02Z</time>
      </trkpt>
      <trkpt lat="43.54499" lon="2.86794">
        <ele>222</ele>
        <time>2019-03-17T14:48:03Z</time>
      </trkpt>
      <trkpt lat="43.54499" lon="2.86788">
        <ele>222</ele>
        <time>2019-03-17T14:48:04Z</time>
      </trkpt>
      <trkpt lat="43.54499" lon="2.86781">
        <ele>222</ele>
        <time>2019-03-17T14:48:05Z</time>
      </trkpt>
      <trkpt lat="43.54499" lon="2.86775">
        <ele>222</ele>
        <time>2019-03-17T14:48:06Z</time>
      </trkpt>
      <trkpt lat="43.54499" lon="2.86768">
        <ele>222</ele>
        <time>2019-03-17T14:48:07Z</time>
      </trkpt>
      <trkpt lat="43.54498" lon="2.86762">
        <ele>222</ele>
        <time>2019-03-17T14:48:08Z</time>
      </trkpt>
      <trkpt lat="43.54498" lon="2.86755">
        <ele>222</ele>
        <time>2019-03-17T14:48:09Z</time>
      </trkpt>
      <trkpt lat="43.54498" lon="2.86749">
        <ele>222</ele>
        <time>2019-03-17T14:48:10Z</time>
      </trkpt>
      <trkpt lat="43.54497" lon="2.86743">
        <ele>222</ele>
        <time>2019-03-17T14:48:11Z</time>
      </trkpt>
      <trkpt lat="43.54497" lon="2.86736">
        <ele>222</ele>
        <time>2019-03-17T14:48:12Z</time>
      </trkpt>
      <trkpt lat="43.54497" lon="2.8673">
        <ele>222</ele>
        <time>2019-03-17T14:48:13Z</time>
      </trkpt>
      <trkpt lat="43.54496" lon="2.86723">
        <ele>222</ele>
        <time>2019-03-17T14:48:14Z</time>
      </trkpt>
      <trkpt lat="43.54496" lon="2.86717">
        <ele>222</ele>
        <time>2019-03-17T14:48:15Z</time>
      </trkpt>
      <trkpt lat="43.54495" lon="2.8671">
        <ele>222</ele>
        <time>2019-03-17T14:48:16Z</time>
      </trkpt>
      <trkpt lat="43.54494" lon="2.86703">
        <ele>223</ele>
        <time>2019-03-17T14:48:17Z</time>
      </trkpt>
      <trkpt lat="43.54493" lon="2.86696">
        <ele>223</ele>
        <time>2019-03-17T14:48:18Z</time>
      </trkpt>
      <trkpt lat="43.54492" lon="2.8669">
        <ele>223</ele>
        <time>2019-03-17T14:48:19Z</time>
      </trkpt>
      <trkpt lat="43.54491" lon="2.86683">
        <ele>223</ele>
        <time>2019-03-17T14:48:20Z</time>
      </trkpt>
      <trkpt lat="43.54489" lon="2.86676">
        <ele>223</ele>
        <time>2019-03-17T14:48:21Z</time>
      </trkpt>
      <trkpt lat="43.54488" lon="2.8667">
        <ele>224</ele>
        <time>2019-03-17T14:48:22Z</time>
      </trkpt>
      <trkpt lat="43.54487" lon="2.86665">
        <ele>224</ele>
        <time>2019-03-17T14:48:23Z</time>
      </trkpt>
      <trkpt lat="43.54487" lon="2.86659">
        <ele>224</ele>
        <time>2019-03-17T14:48:24Z</time>
      </trkpt>
      <trkpt lat="43.54486" lon="2.86654">
        <ele>224</ele>
        <time>2019-03-17T14:48:25Z</time>
      </trkpt>
      <trkpt lat="43.54485" lon="2.86648">
        <ele>224</ele>
        <time>2019-03-17T14:48:26Z</time>
      </trkpt>
      <trkpt lat="43.54483" lon="2.86643">
        <ele>224</ele>
        <time>2019-03-17T14:48:27Z</time>
      </trkpt>
      <trkpt lat="43.54481" lon="2.86637">
        <ele>224</ele>
        <time>2019-03-17T14:48:28Z</time>
      </trkpt>
      <trkpt lat="43.54479" lon="2.86631">
        <ele>224</ele>
        <time>2019-03-17T14:48:29Z</time>
      </trkpt>
      <trkpt lat="43.54478" lon="2.86625">
        <ele>224</ele>
        <time>2019-03-17T14:48:30Z</time>
      </trkpt>
      <trkpt lat="43.54475" lon="2.86619">
        <ele>225</ele>
        <time>2019-03-17T14:48:31Z</time>
      </trkpt>
      <trkpt lat="43.54473" lon="2.86613">
        <ele>225</ele>
        <time>2019-03-17T14:48:32Z</time>
      </trkpt>
      <trkpt lat="43.5447" lon="2.86607">
        <ele>225</ele>
        <time>2019-03-17T14:48:33Z</time>
      </trkpt>
      <trkpt lat="43.54468" lon="2.86601">
        <ele>225</ele>
        <time>2019-03-17T14:48:34Z</time>
      </trkpt>
      <trkpt lat="43.54465" lon="2.86595">
        <ele>225</ele>
        <time>2019-03-17T14:48:35Z</time>
      </trkpt>
      <trkpt lat="43.54463" lon="2.86589">
        <ele>225</ele>
        <time>2019-03-17T14:48:36Z</time>
      </trkpt>
      <trkpt lat="43.5446" lon="2.86583">
        <ele>225</ele>
        <time>2019-03-17T14:48:37Z</time>
      </trkpt>
      <trkpt lat="43.54457" lon="2.86577">
        <ele>225</ele>
        <time>2019-03-17T14:48:38Z</time>
      </trkpt>
      <trkpt lat="43.54454" lon="2.86571">
        <ele>225</ele>
        <time>2019-03-17T14:48:39Z</time>
      </trkpt>
      <trkpt lat="43.54452" lon="2.86566">
        <ele>225</ele>
        <time>2019-03-17T14:48:40Z</time>
      </trkpt>
      <trkpt lat="43.54449" lon="2.8656">
        <ele>225</ele>
        <time>2019-03-17T14:48:41Z</time>
      </trkpt>
      <trkpt lat="43.54446" lon="2.86554">
        <ele>225</ele>
        <time>2019-03-17T14:48:42Z</time>
      </trkpt>
      <trkpt lat="43.54443" lon="2.86549">
        <ele>225</ele>
        <time>2019-03-17T14:48:43Z</time>
      </trkpt>
      <trkpt lat="43.5444" lon="2.86543">
        <ele>225</ele>
        <time>2019-03-17T14:48:44Z</time>
      </trkpt>
      <trkpt lat="43.54438" lon="2.86538">
        <ele>225</ele>
        <time>2019-03-17T14:48:45Z</time>
      </trkpt>
      <trkpt lat="43.54435" lon="2.86532">
        <ele>225</ele>
        <time>2019-03-17T14:48:46Z</time>
      </trkpt>
      <trkpt lat="43.54432" lon="2.86526">
        <ele>225</ele>
        <time>2019-03-17T14:48:47Z</time>
      </trkpt>
      <trkpt lat="43.54429" lon="2.8652">
        <ele>226</ele>
        <time>2019-03-17T14:48:48Z</time>
      </trkpt>
      <trkpt lat="43.54426" lon="2.86515">
        <ele>226</ele>
        <time>2019-03-17T14:48:49Z</time>
      </trkpt>
      <trkpt lat="43.54422" lon="2.86509">
        <ele>226</ele>
        <time>2019-03-17T14:48:50Z</time>
      </trkpt>
      <trkpt lat="43.54419" lon="2.86503">
        <ele>226</ele>
        <time>2019-03-17T14:48:51Z</time>
      </trkpt>
      <trkpt lat="43.54416" lon="2.86497">
        <ele>226</ele>
        <time>2019-03-17T14:48:52Z</time>
      </trkpt>
      <trkpt lat="43.54413" lon="2.86491">
        <ele>226</ele>
        <time>2019-03-17T14:48:53Z</time>
      </trkpt>
      <trkpt lat="43.5441" lon="2.86486">
        <ele>226</ele>
        <time>2019-03-17T14:48:54Z</time>
      </trkpt>
      <trkpt lat="43.54407" lon="2.86481">
        <ele>226</ele>
        <time>2019-03-17T14:48:55Z</time>
      </trkpt>
      <trkpt lat="43.54405" lon="2.86476">
        <ele>226</ele>
        <time>2019-03-17T14:48:56Z</time>
      </trkpt>
      <trkpt lat="43.54403" lon="2.8647">
        <ele>226</ele>
        <time>2019-03-17T14:48:57Z</time>
      </trkpt>
      <trkpt lat="43.54401" lon="2.86465">
        <ele>226</ele>
        <time>2019-03-17T14:48:58Z</time>
      </trkpt>
      <trkpt lat="43.54399" lon="2.86459">
        <ele>225</ele>
        <time>2019-03-17T14:48:59Z</time>
      </trkpt>
      <trkpt lat="43.54397" lon="2.86454">
        <ele>225</ele>
        <time>2019-03-17T14:49:00Z</time>
      </trkpt>
      <trkpt lat="43.54395" lon="2.86448">
        <ele>225</ele>
        <time>2019-03-17T14:49:01Z</time>
      </trkpt>
      <trkpt lat="43.54392" lon="2.86442">
        <ele>224</ele>
        <time>2019-03-17T14:49:02Z</time>
      </trkpt>
      <trkpt lat="43.5439" lon="2.86436">
        <ele>224</ele>
        <time>2019-03-17T14:49:03Z</time>
      </trkpt>
      <trkpt lat="43.54388" lon="2.86431">
        <ele>224</ele>
        <time>2019-03-17T14:49:04Z</time>
      </trkpt>
      <trkpt lat="43.54386" lon="2.86425">
        <ele>224</ele>
        <time>2019-03-17T14:49:05Z</time>
      </trkpt>
      <trkpt lat="43.54382" lon="2.86413">
        <ele>224</ele>
        <time>2019-03-17T14:49:07Z</time>
      </trkpt>
      <trkpt lat="43.5438" lon="2.86407">
        <ele>224</ele>
        <time>2019-03-17T14:49:08Z</time>
      </trkpt>
      <trkpt lat="43.54378" lon="2.86401">
        <ele>224</ele>
        <time>2019-03-17T14:49:09Z</time>
      </trkpt>
      <trkpt lat="43.54376" lon="2.86395">
        <ele>224</ele>
        <time>2019-03-17T14:49:10Z</time>
      </trkpt>
      <trkpt lat="43.54374" lon="2.86388">
        <ele>225</ele>
        <time>2019-03-17T14:49:11Z</time>
      </trkpt>
      <trkpt lat="43.54372" lon="2.86381">
        <ele>225</ele>
        <time>2019-03-17T14:49:12Z</time>
      </trkpt>
      <trkpt lat="43.54304" lon="2.86319">
        <ele>226</ele>
        <time>2019-03-17T14:49:20Z</time>
      </trkpt>
      <trkpt lat="43.54302" lon="2.86315">
        <ele>226</ele>
        <time>2019-03-17T14:49:21Z</time>
      </trkpt>
      <trkpt lat="43.54299" lon="2.86311">
        <ele>226</ele>
        <time>2019-03-17T14:49:22Z</time>
      </trkpt>
      <trkpt lat="43.54297" lon="2.86308">
        <ele>226</ele>
        <time>2019-03-17T14:49:23Z</time>
      </trkpt>
      <trkpt lat="43.54293" lon="2.86304">
        <ele>226</ele>
        <time>2019-03-17T14:49:24Z</time>
      </trkpt>
      <trkpt lat="43.54289" lon="2.863">
        <ele>227</ele>
        <time>2019-03-17T14:49:25Z</time>
      </trkpt>
      <trkpt lat="43.54287" lon="2.86297">
        <ele>227</ele>
        <time>2019-03-17T14:49:26Z</time>
      </trkpt>
      <trkpt lat="43.54284" lon="2.86293">
        <ele>227</ele>
        <time>2019-03-17T14:49:27Z</time>
      </trkpt>
      <trkpt lat="43.54281" lon="2.86288">
        <ele>227</ele>
        <time>2019-03-17T14:49:28Z</time>
      </trkpt>
      <trkpt lat="43.54278" lon="2.86284">
        <ele>227</ele>
        <time>2019-03-17T14:49:29Z</time>
      </trkpt>
      <trkpt lat="43.54274" lon="2.86279">
        <ele>227</ele>
        <time>2019-03-17T14:49:30Z</time>
      </trkpt>
      <trkpt lat="43.54271" lon="2.86276">
        <ele>227</ele>
        <time>2019-03-17T14:49:31Z</time>
      </trkpt>
      <trkpt lat="43.54269" lon="2.86272">
        <ele>227</ele>
        <time>2019-03-17T14:49:32Z</time>
      </trkpt>
      <trkpt lat="43.54266" lon="2.86268">
        <ele>227</ele>
        <time>2019-03-17T14:49:33Z</time>
      </trkpt>
      <trkpt lat="43.54262" lon="2.86264">
        <ele>228</ele>
        <time>2019-03-17T14:49:34Z</time>
      </trkpt>
      <trkpt lat="43.54259" lon="2.8626">
        <ele>228</ele>
        <time>2019-03-17T14:49:35Z</time>
      </trkpt>
      <trkpt lat="43.54256" lon="2.86256">
        <ele>228</ele>
        <time>2019-03-17T14:49:36Z</time>
      </trkpt>
      <trkpt lat="43.54252" lon="2.86251">
        <ele>228</ele>
        <time>2019-03-17T14:49:37Z</time>
      </trkpt>
      <trkpt lat="43.54248" lon="2.86247">
        <ele>228</ele>
        <time>2019-03-17T14:49:38Z</time>
      </trkpt>
      <trkpt lat="43.54244" lon="2.86242">
        <ele>228</ele>
        <time>2019-03-17T14:49:39Z</time>
      </trkpt>
      <trkpt lat="43.5424" lon="2.86237">
        <ele>228</ele>
        <time>2019-03-17T14:49:40Z</time>
      </trkpt>
      <trkpt lat="43.54236" lon="2.86233">
        <ele>228</ele>
        <time>2019-03-17T14:49:41Z</time>
      </trkpt>
      <trkpt lat="43.54232" lon="2.86229">
        <ele>228</ele>
        <time>2019-03-17T14:49:42Z</time>
      </trkpt>
      <trkpt lat="43.54229" lon="2.86225">
        <ele>228</ele>
        <time>2019-03-17T14:49:43Z</time>
      </trkpt>
      <trkpt lat="43.54226" lon="2.86221">
        <ele>228</ele>
        <time>2019-03-17T14:49:44Z</time>
      </trkpt>
      <trkpt lat="43.54222" lon="2.86216">
        <ele>228</ele>
        <time>2019-03-17T14:49:45Z</time>
      </trkpt>
      <trkpt lat="43.54219" lon="2.86212">
        <ele>228</ele>
        <time>2019-03-17T14:49:46Z</time>
      </trkpt>
      <trkpt lat="43.54215" lon="2.86208">
        <ele>228</ele>
        <time>2019-03-17T14:49:47Z</time>
      </trkpt>
      <trkpt lat="43.54211" lon="2.86204">
        <ele>228</ele>
        <time>2019-03-17T14:49:48Z</time>
      </trkpt>
      <trkpt lat="43.54208" lon="2.862">
        <ele>228</ele>
        <time>2019-03-17T14:49:49Z</time>
      </trkpt>
      <trkpt lat="43.54204" lon="2.86196">
        <ele>228</ele>
        <time>2019-03-17T14:49:50Z</time>
      </trkpt>
      <trkpt lat="43.54201" lon="2.86191">
        <ele>228</ele>
        <time>2019-03-17T14:49:51Z</time>
      </trkpt>
      <trkpt lat="43.54197" lon="2.86187">
        <ele>228</ele>
        <time>2019-03-17T14:49:52Z</time>
      </trkpt>
      <trkpt lat="43.54193" lon="2.86182">
        <ele>228</ele>
        <time>2019-03-17T14:49:53Z</time>
      </trkpt>
      <trkpt lat="43.5419" lon="2.86178">
        <ele>228</ele>
        <time>2019-03-17T14:49:54Z</time>
      </trkpt>
      <trkpt lat="43.54186" lon="2.86174">
        <ele>228</ele>
        <time>2019-03-17T14:49:55Z</time>
      </trkpt>
      <trkpt lat="43.54183" lon="2.86169">
        <ele>227</ele>
        <time>2019-03-17T14:49:56Z</time>
      </trkpt>
      <trkpt lat="43.54179" lon="2.86165">
        <ele>227</ele>
        <time>2019-03-17T14:49:57Z</time>
      </trkpt>
      <trkpt lat="43.54175" lon="2.86161">
        <ele>227</ele>
        <time>2019-03-17T14:49:58Z</time>
      </trkpt>
      <trkpt lat="43.54171" lon="2.86156">
        <ele>226</ele>
        <time>2019-03-17T14:49:59Z</time>
      </trkpt>
      <trkpt lat="43.54168" lon="2.86152">
        <ele>226</ele>
        <time>2019-03-17T14:50:00Z</time>
      </trkpt>
      <trkpt lat="43.54165" lon="2.86148">
        <ele>226</ele>
        <time>2019-03-17T14:50:01Z</time>
      </trkpt>
      <trkpt lat="43.54161" lon="2.86144">
        <ele>226</ele>
        <time>2019-03-17T14:50:02Z</time>
      </trkpt>
      <trkpt lat="43.54158" lon="2.8614">
        <ele>226</ele>
        <time>2019-03-17T14:50:03Z</time>
      </trkpt>
      <trkpt lat="43.54155" lon="2.86137">
        <ele>226</ele>
        <time>2019-03-17T14:50:04Z</time>
      </trkpt>
      <trkpt lat="43.54153" lon="2.86133">
        <ele>226</ele>
        <time>2019-03-17T14:50:05Z</time>
      </trkpt>
      <trkpt lat="43.5415" lon="2.86128">
        <ele>226</ele>
        <time>2019-03-17T14:50:06Z</time>
      </trkpt>
      <trkpt lat="43.54147" lon="2.86124">
        <ele>226</ele>
        <time>2019-03-17T14:50:07Z</time>
      </trkpt>
      <trkpt lat="43.54143" lon="2.8612">
        <ele>227</ele>
        <time>2019-03-17T14:50:08Z</time>
      </trkpt>
      <trkpt lat="43.54139" lon="2.86115">
        <ele>227</ele>
        <time>2019-03-17T14:50:09Z</time>
      </trkpt>
      <trkpt lat="43.54136" lon="2.86111">
        <ele>227</ele>
        <time>2019-03-17T14:50:10Z</time>
      </trkpt>
      <trkpt lat="43.54132" lon="2.86106">
        <ele>227</ele>
        <time>2019-03-17T14:50:11Z</time>
      </trkpt>
      <trkpt lat="43.54128" lon="2.86102">
        <ele>227</ele>
        <time>2019-03-17T14:50:12Z</time>
      </trkpt>
      <trkpt lat="43.54124" lon="2.86098">
        <ele>228</ele>
        <time>2019-03-17T14:50:13Z</time>
      </trkpt>
      <trkpt lat="43.5412" lon="2.86093">
        <ele>228</ele>
        <time>2019-03-17T14:50:14Z</time>
      </trkpt>
      <trkpt lat="43.54116" lon="2.86089">
        <ele>228</ele>
        <time>2019-03-17T14:50:15Z</time>
      </trkpt>
      <trkpt lat="43.54112" lon="2.86085">
        <ele>228</ele>
        <time>2019-03-17T14:50:16Z</time>
      </trkpt>
      <trkpt lat="43.54108" lon="2.86081">
        <ele>229</ele>
        <time>2019-03-17T14:50:17Z</time>
      </trkpt>
      <trkpt lat="43.54104" lon="2.86076">
        <ele>229</ele>
        <time>2019-03-17T14:50:18Z</time>
      </trkpt>
      <trkpt lat="43.541" lon="2.86072">
        <ele>230</ele>
        <time>2019-03-17T14:50:19Z</time>
      </trkpt>
      <trkpt lat="43.54096" lon="2.86067">
        <ele>231</ele>
        <time>2019-03-17T14:50:20Z</time>
      </trkpt>
      <trkpt lat="43.54092" lon="2.86062">
        <ele>231</ele>
        <time>2019-03-17T14:50:21Z</time>
      </trkpt>
      <trkpt lat="43.54088" lon="2.86058">
        <ele>231</ele>
        <time>2019-03-17T14:50:22Z</time>
      </trkpt>
      <trkpt lat="43.54084" lon="2.86053">
        <ele>231</ele>
        <time>2019-03-17T14:50:23Z</time>
      </trkpt>
      <trkpt lat="43.5408" lon="2.86048">
        <ele>231</ele>
        <time>2019-03-17T14:50:24Z</time>
      </trkpt>
      <trkpt lat="43.54076" lon="2.86043">
        <ele>231</ele>
        <time>2019-03-17T14:50:25Z</time>
      </trkpt>
      <trkpt lat="43.54072" lon="2.86038">
        <ele>231</ele>
        <time>2019-03-17T14:50:26Z</time>
      </trkpt>
      <trkpt lat="43.54068" lon="2.86034">
        <ele>232</ele>
        <time>2019-03-17T14:50:27Z</time>
      </trkpt>
      <trkpt lat="43.54064" lon="2.86029">
        <ele>232</ele>
        <time>2019-03-17T14:50:28Z</time>
      </trkpt>
      <trkpt lat="43.5406" lon="2.86024">
        <ele>232</ele>
        <time>2019-03-17T14:50:29Z</time>
      </trkpt>
      <trkpt lat="43.54056" lon="2.8602">
        <ele>232</ele>
        <time>2019-03-17T14:50:30Z</time>
      </trkpt>
      <trkpt lat="43.54051" lon="2.86016">
        <ele>232</ele>
        <time>2019-03-17T14:50:31Z</time>
      </trkpt>
      <trkpt lat="43.54047" lon="2.86011">
        <ele>232</ele>
        <time>2019-03-17T14:50:32Z</time>
      </trkpt>
      <trkpt lat="43.54043" lon="2.86006">
        <ele>231</ele>
        <time>2019-03-17T14:50:33Z</time>
      </trkpt>
      <trkpt lat="43.54038" lon="2.86002">
        <ele>231</ele>
        <time>2019-03-17T14:50:34Z</time>
      </trkpt>
      <trkpt lat="43.54034" lon="2.85998">
        <ele>231</ele>
        <time>2019-03-17T14:50:35Z</time>
      </trkpt>
      <trkpt lat="43.54029" lon="2.85994">
        <ele>231</ele>
        <time>2019-03-17T14:50:36Z</time>
      </trkpt>
      <trkpt lat="43.54025" lon="2.85991">
        <ele>231</ele>
        <time>2019-03-17T14:50:37Z</time>
      </trkpt>
      <trkpt lat="43.5402" lon="2.85987">
        <ele>231</ele>
        <time>2019-03-17T14:50:38Z</time>
      </trkpt>
      <trkpt lat="43.54016" lon="2.85984">
        <ele>231</ele>
        <time>2019-03-17T14:50:39Z</time>
      </trkpt>
      <trkpt lat="43.54011" lon="2.85981">
        <ele>231</ele>
        <time>2019-03-17T14:50:40Z</time>
      </trkpt>
      <trkpt lat="43.54006" lon="2.85977">
        <ele>232</ele>
        <time>2019-03-17T14:50:41Z</time>
      </trkpt>
      <trkpt lat="43.54002" lon="2.85975">
        <ele>232</ele>
        <time>2019-03-17T14:50:42Z</time>
      </trkpt>
      <trkpt lat="43.53997" lon="2.85972">
        <ele>232</ele>
        <time>2019-03-17T14:50:43Z</time>
      </trkpt>
      <trkpt lat="43.53992" lon="2.85969">
        <ele>232</ele>
        <time>2019-03-17T14:50:44Z</time>
      </trkpt>
      <trkpt lat="43.53988" lon="2.85967">
        <ele>233</ele>
        <time>2019-03-17T14:50:45Z</time>
      </trkpt>
      <trkpt lat="43.53983" lon="2.85965">
        <ele>233</ele>
        <time>2019-03-17T14:50:46Z</time>
      </trkpt>
      <trkpt lat="43.53979" lon="2.85962">
        <ele>233</ele>
        <time>2019-03-17T14:50:47Z</time>
      </trkpt>
      <trkpt lat="43.53974" lon="2.8596">
        <ele>233</ele>
        <time>2019-03-17T14:50:48Z</time>
      </trkpt>
      <trkpt lat="43.53969" lon="2.85958">
        <ele>233</ele>
        <time>2019-03-17T14:50:49Z</time>
      </trkpt>
      <trkpt lat="43.53965" lon="2.85955">
        <ele>233</ele>
        <time>2019-03-17T14:50:50Z</time>
      </trkpt>
      <trkpt lat="43.5396" lon="2.85954">
        <ele>233</ele>
        <time>2019-03-17T14:50:51Z</time>
      </trkpt>
      <trkpt lat="43.53955" lon="2.85952">
        <ele>233</ele>
        <time>2019-03-17T14:50:52Z</time>
      </trkpt>
      <trkpt lat="43.5395" lon="2.8595">
        <ele>233</ele>
        <time>2019-03-17T14:50:53Z</time>
      </trkpt>
      <trkpt lat="43.53945" lon="2.85948">
        <ele>233</ele>
        <time>2019-03-17T14:50:54Z</time>
      </trkpt>
      <trkpt lat="43.53939" lon="2.85947">
        <ele>233</ele>
        <time>2019-03-17T14:50:55Z</time>
      </trkpt>
      <trkpt lat="43.53933" lon="2.85945">
        <ele>233</ele>
        <time>2019-03-17T14:50:56Z</time>
      </trkpt>
      <trkpt lat="43.53928" lon="2.85944">
        <ele>232</ele>
        <time>2019-03-17T14:50:57Z</time>
      </trkpt>
      <trkpt lat="43.53922" lon="2.85943">
        <ele>232</ele>
        <time>2019-03-17T14:50:58Z</time>
      </trkpt>
      <trkpt lat="43.53916" lon="2.85942">
        <ele>232</ele>
        <time>2019-03-17T14:50:59Z</time>
      </trkpt>
      <trkpt lat="43.53911" lon="2.85941">
        <ele>232</ele>
        <time>2019-03-17T14:51:00Z</time>
      </trkpt>
      <trkpt lat="43.53906" lon="2.8594">
        <ele>232</ele>
        <time>2019-03-17T14:51:01Z</time>
      </trkpt>
      <trkpt lat="43.53901" lon="2.85938">
        <ele>232</ele>
        <time>2019-03-17T14:51:02Z</time>
      </trkpt>
      <trkpt lat="43.53896" lon="2.85937">
        <ele>231</ele>
        <time>2019-03-17T14:51:03Z</time>
      </trkpt>
      <trkpt lat="43.53891" lon="2.85936">
        <ele>231</ele>
        <time>2019-03-17T14:51:04Z</time>
      </trkpt>
      <trkpt lat="43.53885" lon="2.85936">
        <ele>231</ele>
        <time>2019-03-17T14:51:05Z</time>
      </trkpt>
      <trkpt lat="43.5388" lon="2.85937">
        <ele>231</ele>
        <time>2019-03-17T14:51:06Z</time>
      </trkpt>
      <trkpt lat="43.53874" lon="2.85937">
        <ele>231</ele>
        <time>2019-03-17T14:51:07Z</time>
      </trkpt>
      <trkpt lat="43.53869" lon="2.85938">
        <ele>231</ele>
        <time>2019-03-17T14:51:08Z</time>
      </trkpt>
      <trkpt lat="43.53863" lon="2.85939">
        <ele>231</ele>
        <time>2019-03-17T14:51:09Z</time>
      </trkpt>
      <trkpt lat="43.53858" lon="2.8594">
        <ele>231</ele>
        <time>2019-03-17T14:51:10Z</time>
      </trkpt>
      <trkpt lat="43.53852" lon="2.85941">
        <ele>231</ele>
        <time>2019-03-17T14:51:11Z</time>
      </trkpt>
      <trkpt lat="43.53847" lon="2.85942">
        <ele>231</ele>
        <time>2019-03-17T14:51:12Z</time>
      </trkpt>
      <trkpt lat="43.53842" lon="2.85943">
        <ele>231</ele>
        <time>2019-03-17T14:51:13Z</time>
      </trkpt>
      <trkpt lat="43.53836" lon="2.85944">
        <ele>231</ele>
        <time>2019-03-17T14:51:14Z</time>
      </trkpt>
      <trkpt lat="43.53831" lon="2.85945">
        <ele>231</ele>
        <time>2019-03-17T14:51:15Z</time>
      </trkpt>
      <trkpt lat="43.53826" lon="2.85946">
        <ele>231</ele>
        <time>2019-03-17T14:51:16Z</time>
      </trkpt>
      <trkpt lat="43.5382" lon="2.85946">
        <ele>231</ele>
        <time>2019-03-17T14:51:17Z</time>
      </trkpt>
      <trkpt lat="43.53815" lon="2.85948">
        <ele>232</ele>
        <time>2019-03-17T14:51:18Z</time>
      </trkpt>
      <trkpt lat="43.5381" lon="2.85949">
        <ele>232</ele>
        <time>2019-03-17T14:51:19Z</time>
      </trkpt>
      <trkpt lat="43.53805" lon="2.8595">
        <ele>232</ele>
        <time>2019-03-17T14:51:20Z</time>
      </trkpt>
      <trkpt lat="43.538" lon="2.85951">
        <ele>232</ele>
        <time>2019-03-17T14:51:21Z</time>
      </trkpt>
      <trkpt lat="43.53794" lon="2.85953">
        <ele>232</ele>
        <time>2019-03-17T14:51:22Z</time>
      </trkpt>
      <trkpt lat="43.53789" lon="2.85954">
        <ele>233</ele>
        <time>2019-03-17T14:51:23Z</time>
      </trkpt>
      <trkpt lat="43.53784" lon="2.85955">
        <ele>233</ele>
        <time>2019-03-17T14:51:24Z</time>
      </trkpt>
      <trkpt lat="43.53779" lon="2.85956">
        <ele>233</ele>
        <time>2019-03-17T14:51:25Z</time>
      </trkpt>
      <trkpt lat="43.53775" lon="2.85957">
        <ele>233</ele>
        <time>2019-03-17T14:51:26Z</time>
      </trkpt>
      <trkpt lat="43.5377" lon="2.85958">
        <ele>233</ele>
        <time>2019-03-17T14:51:27Z</time>
      </trkpt>
      <trkpt lat="43.53764" lon="2.85959">
        <ele>233</ele>
        <time>2019-03-17T14:51:28Z</time>
      </trkpt>
      <trkpt lat="43.53759" lon="2.8596">
        <ele>234</ele>
        <time>2019-03-17T14:51:29Z</time>
      </trkpt>
      <trkpt lat="43.53754" lon="2.85961">
        <ele>234</ele>
        <time>2019-03-17T14:51:30Z</time>
      </trkpt>
      <trkpt lat="43.53749" lon="2.85962">
        <ele>234</ele>
        <time>2019-03-17T14:51:31Z</time>
      </trkpt>
      <trkpt lat="43.53744" lon="2.85963">
        <ele>234</ele>
        <time>2019-03-17T14:51:32Z</time>
      </trkpt>
      <trkpt lat="43.53739" lon="2.85964">
        <ele>234</ele>
        <time>2019-03-17T14:51:33Z</time>
      </trkpt>
      <trkpt lat="43.53733" lon="2.85964">
        <ele>236</ele>
        <time>2019-03-17T14:51:34Z</time>
      </trkpt>
      <trkpt lat="43.53728" lon="2.85965">
        <ele>236</ele>
        <time>2019-03-17T14:51:35Z</time>
      </trkpt>
      <trkpt lat="43.53723" lon="2.85965">
        <ele>236</ele>
        <time>2019-03-17T14:51:36Z</time>
      </trkpt>
      <trkpt lat="43.53717" lon="2.85965">
        <ele>236</ele>
        <time>2019-03-17T14:51:37Z</time>
      </trkpt>
      <trkpt lat="43.53712" lon="2.85965">
        <ele>236</ele>
        <time>2019-03-17T14:51:38Z</time>
      </trkpt>
      <trkpt lat="43.53706" lon="2.85965">
        <ele>236</ele>
        <time>2019-03-17T14:51:39Z</time>
      </trkpt>
      <trkpt lat="43.53701" lon="2.85964">
        <ele>236</ele>
        <time>2019-03-17T14:51:40Z</time>
      </trkpt>
      <trkpt lat="43.53695" lon="2.85964">
        <ele>236</ele>
        <time>2019-03-17T14:51:41Z</time>
      </trkpt>
      <trkpt lat="43.5369" lon="2.85963">
        <ele>236</ele>
        <time>2019-03-17T14:51:42Z</time>
      </trkpt>
      <trkpt lat="43.53684" lon="2.85962">
        <ele>236</ele>
        <time>2019-03-17T14:51:43Z</time>
      </trkpt>
      <trkpt lat="43.53679" lon="2.85961">
        <ele>236</ele>
        <time>2019-03-17T14:51:44Z</time>
      </trkpt>
      <trkpt lat="43.53674" lon="2.8596">
        <ele>236</ele>
        <time>2019-03-17T14:51:45Z</time>
      </trkpt>
      <trkpt lat="43.53669" lon="2.85958">
        <ele>236</ele>
        <time>2019-03-17T14:51:46Z</time>
      </trkpt>
      <trkpt lat="43.53664" lon="2.85957">
        <ele>236</ele>
        <time>2019-03-17T14:51:47Z</time>
      </trkpt>
      <trkpt lat="43.5366" lon="2.85955">
        <ele>236</ele>
        <time>2019-03-17T14:51:48Z</time>
      </trkpt>
      <trkpt lat="43.53655" lon="2.85954">
        <ele>236</ele>
        <time>2019-03-17T14:51:49Z</time>
      </trkpt>
      <trkpt lat="43.53651" lon="2.85952">
        <ele>237</ele>
        <time>2019-03-17T14:51:50Z</time>
      </trkpt>
      <trkpt lat="43.53647" lon="2.8595">
        <ele>237</ele>
        <time>2019-03-17T14:51:51Z</time>
      </trkpt>
      <trkpt lat="43.53643" lon="2.85948">
        <ele>238</ele>
        <time>2019-03-17T14:51:52Z</time>
      </trkpt>
      <trkpt lat="43.5364" lon="2.85946">
        <ele>238</ele>
        <time>2019-03-17T14:51:53Z</time>
      </trkpt>
      <trkpt lat="43.53636" lon="2.85944">
        <ele>238</ele>
        <time>2019-03-17T14:51:54Z</time>
      </trkpt>
      <trkpt lat="43.53632" lon="2.85943">
        <ele>238</ele>
        <time>2019-03-17T14:51:55Z</time>
      </trkpt>
      <trkpt lat="43.53628" lon="2.85942">
        <ele>238</ele>
        <time>2019-03-17T14:51:56Z</time>
      </trkpt>
      <trkpt lat="43.53624" lon="2.85939">
        <ele>238</ele>
        <time>2019-03-17T14:51:57Z</time>
      </trkpt>
      <trkpt lat="43.53622" lon="2.85935">
        <ele>238</ele>
        <time>2019-03-17T14:51:58Z</time>
      </trkpt>
      <trkpt lat="43.53619" lon="2.8593">
        <ele>238</ele>
        <time>2019-03-17T14:51:59Z</time>
      </trkpt>
      <trkpt lat="43.53616" lon="2.85925">
        <ele>238</ele>
        <time>2019-03-17T14:52:00Z</time>
      </trkpt>
      <trkpt lat="43.53613" lon="2.8592">
        <ele>238</ele>
        <time>2019-03-17T14:52:01Z</time>
      </trkpt>
      <trkpt lat="43.53609" lon="2.85915">
        <ele>238</ele>
        <time>2019-03-17T14:52:02Z</time>
      </trkpt>
      <trkpt lat="43.53604" lon="2.85911">
        <ele>238</ele>
        <time>2019-03-17T14:52:03Z</time>
      </trkpt>
      <trkpt lat="43.536" lon="2.85907">
        <ele>238</ele>
        <time>2019-03-17T14:52:04Z</time>
      </trkpt>
      <trkpt lat="43.53595" lon="2.85903">
        <ele>238</ele>
        <time>2019-03-17T14:52:05Z</time>
      </trkpt>
      <trkpt lat="43.53592" lon="2.859">
        <ele>238</ele>
        <time>2019-03-17T14:52:06Z</time>
      </trkpt>
      <trkpt lat="43.53589" lon="2.85897">
        <ele>238</ele>
        <time>2019-03-17T14:52:07Z</time>
      </trkpt>
      <trkpt lat="43.53586" lon="2.85895">
        <ele>238</ele>
        <time>2019-03-17T14:52:08Z</time>
      </trkpt>
      <trkpt lat="43.53583" lon="2.85892">
        <ele>238</ele>
        <time>2019-03-17T14:52:09Z</time>
      </trkpt>
      <trkpt lat="43.5358" lon="2.8589">
        <ele>238</ele>
        <time>2019-03-17T14:52:10Z</time>
      </trkpt>
      <trkpt lat="43.53577" lon="2.85888">
        <ele>238</ele>
        <time>2019-03-17T14:52:11Z</time>
      </trkpt>
      <trkpt lat="43.53575" lon="2.85886">
        <ele>238</ele>
        <time>2019-03-17T14:52:12Z</time>
      </trkpt>
      <trkpt lat="43.53572" lon="2.85884">
        <ele>239</ele>
        <time>2019-03-17T14:52:13Z</time>
      </trkpt>
      <trkpt lat="43.53569" lon="2.85881">
        <ele>239</ele>
        <time>2019-03-17T14:52:14Z</time>
      </trkpt>
      <trkpt lat="43.53567" lon="2.85879">
        <ele>240</ele>
        <time>2019-03-17T14:52:15Z</time>
      </trkpt>
      <trkpt lat="43.53564" lon="2.85877">
        <ele>240</ele>
        <time>2019-03-17T14:52:16Z</time>
      </trkpt>
      <trkpt lat="43.53561" lon="2.85875">
        <ele>240</ele>
        <time>2019-03-17T14:52:17Z</time>
      </trkpt>
      <trkpt lat="43.53558" lon="2.85873">
        <ele>240</ele>
        <time>2019-03-17T14:52:18Z</time>
      </trkpt>
      <trkpt lat="43.53555" lon="2.85872">
        <ele>240</ele>
        <time>2019-03-17T14:52:19Z</time>
      </trkpt>
      <trkpt lat="43.53551" lon="2.8587">
        <ele>241</ele>
        <time>2019-03-17T14:52:20Z</time>
      </trkpt>
      <trkpt lat="43.53548" lon="2.85867">
        <ele>241</ele>
        <time>2019-03-17T14:52:21Z</time>
      </trkpt>
      <trkpt lat="43.53545" lon="2.85866">
        <ele>242</ele>
        <time>2019-03-17T14:52:22Z</time>
      </trkpt>
      <trkpt lat="43.53542" lon="2.85864">
        <ele>242</ele>
        <time>2019-03-17T14:52:23Z</time>
      </trkpt>
      <trkpt lat="43.53539" lon="2.85863">
        <ele>242</ele>
        <time>2019-03-17T14:52:24Z</time>
      </trkpt>
      <trkpt lat="43.53536" lon="2.85861">
        <ele>242</ele>
        <time>2019-03-17T14:52:25Z</time>
      </trkpt>
      <trkpt lat="43.53532" lon="2.85859">
        <ele>242</ele>
        <time>2019-03-17T14:52:26Z</time>
      </trkpt>
      <trkpt lat="43.53529" lon="2.85856">
        <ele>242</ele>
        <time>2019-03-17T14:52:27Z</time>
      </trkpt>
      <trkpt lat="43.53526" lon="2.85853">
        <ele>242</ele>
        <time>2019-03-17T14:52:28Z</time>
      </trkpt>
      <trkpt lat="43.53523" lon="2.8585">
        <ele>243</ele>
        <time>2019-03-17T14:52:29Z</time>
      </trkpt>
      <trkpt lat="43.53519" lon="2.85847">
        <ele>243</ele>
        <time>2019-03-17T14:52:30Z</time>
      </trkpt>
      <trkpt lat="43.53515" lon="2.85844">
        <ele>243</ele>
        <time>2019-03-17T14:52:31Z</time>
      </trkpt>
      <trkpt lat="43.53511" lon="2.85841">
        <ele>243</ele>
        <time>2019-03-17T14:52:32Z</time>
      </trkpt>
      <trkpt lat="43.53507" lon="2.85837">
        <ele>243</ele>
        <time>2019-03-17T14:52:33Z</time>
      </trkpt>
      <trkpt lat="43.53504" lon="2.85834">
        <ele>242</ele>
        <time>2019-03-17T14:52:34Z</time>
      </trkpt>
      <trkpt lat="43.535" lon="2.8583">
        <ele>242</ele>
        <time>2019-03-17T14:52:35Z</time>
      </trkpt>
      <trkpt lat="43.53496" lon="2.85827">
        <ele>242</ele>
        <time>2019-03-17T14:52:36Z</time>
      </trkpt>
      <trkpt lat="43.53492" lon="2.85824">
        <ele>242</ele>
        <time>2019-03-17T14:52:37Z</time>
      </trkpt>
      <trkpt lat="43.53488" lon="2.85821">
        <ele>242</ele>
        <time>2019-03-17T14:52:38Z</time>
      </trkpt>
      <trkpt lat="43.53484" lon="2.85817">
        <ele>242</ele>
        <time>2019-03-17T14:52:39Z</time>
      </trkpt>
      <trkpt lat="43.5348" lon="2.85814">
        <ele>242</ele>
        <time>2019-03-17T14:52:40Z</time>
      </trkpt>
      <trkpt lat="43.53476" lon="2.8581">
        <ele>242</ele>
        <time>2019-03-17T14:52:41Z</time>
      </trkpt>
      <trkpt lat="43.53472" lon="2.85807">
        <ele>242</ele>
        <time>2019-03-17T14:52:42Z</time>
      </trkpt>
      <trkpt lat="43.53468" lon="2.85804">
        <ele>242</ele>
        <time>2019-03-17T14:52:43Z</time>
      </trkpt>
      <trkpt lat="43.53465" lon="2.85801">
        <ele>242</ele>
        <time>2019-03-17T14:52:44Z</time>
      </trkpt>
      <trkpt lat="43.53461" lon="2.85798">
        <ele>242</ele>
        <time>2019-03-17T14:52:45Z</time>
      </trkpt>
      <trkpt lat="43.53458" lon="2.85795">
        <ele>242</ele>
        <time>2019-03-17T14:52:46Z</time>
      </trkpt>
      <trkpt lat="43.53455" lon="2.85792">
        <ele>242</ele>
        <time>2019-03-17T14:52:47Z</time>
      </trkpt>
      <trkpt lat="43.53452" lon="2.85788">
        <ele>241</ele>
        <time>2019-03-17T14:52:48Z</time>
      </trkpt>
      <trkpt lat="43.53448" lon="2.85784">
        <ele>241</ele>
        <time>2019-03-17T14:52:49Z</time>
      </trkpt>
      <trkpt lat="43.53445" lon="2.85779">
        <ele>241</ele>
        <time>2019-03-17T14:52:50Z</time>
      </trkpt>
      <trkpt lat="43.53441" lon="2.85775">
        <ele>241</ele>
        <time>2019-03-17T14:52:51Z</time>
      </trkpt>
      <trkpt lat="43.53438" lon="2.8577">
        <ele>240</ele>
        <time>2019-03-17T14:52:52Z</time>
      </trkpt>
      <trkpt lat="43.53434" lon="2.85765">
        <ele>240</ele>
        <time>2019-03-17T14:52:53Z</time>
      </trkpt>
      <trkpt lat="43.53431" lon="2.85761">
        <ele>239</ele>
        <time>2019-03-17T14:52:54Z</time>
      </trkpt>
      <trkpt lat="43.53427" lon="2.85757">
        <ele>238</ele>
        <time>2019-03-17T14:52:55Z</time>
      </trkpt>
      <trkpt lat="43.53422" lon="2.85754">
        <ele>238</ele>
        <time>2019-03-17T14:52:56Z</time>
      </trkpt>
      <trkpt lat="43.53418" lon="2.85751">
        <ele>238</ele>
        <time>2019-03-17T14:52:57Z</time>
      </trkpt>
      <trkpt lat="43.53413" lon="2.85748">
        <ele>238</ele>
        <time>2019-03-17T14:52:58Z</time>
      </trkpt>
      <trkpt lat="43.53407" lon="2.85744">
        <ele>238</ele>
        <time>2019-03-17T14:52:59Z</time>
      </trkpt>
      <trkpt lat="43.53401" lon="2.85738">
        <ele>238</ele>
        <time>2019-03-17T14:53:00Z</time>
      </trkpt>
      <trkpt lat="43.53396" lon="2.85732">
        <ele>237</ele>
        <time>2019-03-17T14:53:01Z</time>
      </trkpt>
      <trkpt lat="43.5339" lon="2.85725">
        <ele>237</ele>
        <time>2019-03-17T14:53:02Z</time>
      </trkpt>
      <trkpt lat="43.53386" lon="2.85719">
        <ele>237</ele>
        <time>2019-03-17T14:53:03Z</time>
      </trkpt>
      <trkpt lat="43.53381" lon="2.85712">
        <ele>237</ele>
        <time>2019-03-17T14:53:04Z</time>
      </trkpt>
      <trkpt lat="43.53376" lon="2.85706">
        <ele>237</ele>
        <time>2019-03-17T14:53:05Z</time>
      </trkpt>
      <trkpt lat="43.53372" lon="2.857">
        <ele>237</ele>
        <time>2019-03-17T14:53:06Z</time>
      </trkpt>
      <trkpt lat="43.53368" lon="2.85694">
        <ele>237</ele>
        <time>2019-03-17T14:53:07Z</time>
      </trkpt>
      <trkpt lat="43.53364" lon="2.85689">
        <ele>237</ele>
        <time>2019-03-17T14:53:08Z</time>
      </trkpt>
      <trkpt lat="43.53359" lon="2.85684">
        <ele>237</ele>
        <time>2019-03-17T14:53:09Z</time>
      </trkpt>
      <trkpt lat="43.53355" lon="2.85679">
        <ele>237</ele>
        <time>2019-03-17T14:53:10Z</time>
      </trkpt>
      <trkpt lat="43.53351" lon="2.85675">
        <ele>237</ele>
        <time>2019-03-17T14:53:11Z</time>
      </trkpt>
      <trkpt lat="43.53346" lon="2.85672">
        <ele>237</ele>
        <time>2019-03-17T14:53:12Z</time>
      </trkpt>
      <trkpt lat="43.53342" lon="2.85668">
        <ele>237</ele>
        <time>2019-03-17T14:53:13Z</time>
      </trkpt>
      <trkpt lat="43.53338" lon="2.85665">
        <ele>237</ele>
        <time>2019-03-17T14:53:14Z</time>
      </trkpt>
      <trkpt lat="43.53334" lon="2.85661">
        <ele>237</ele>
        <time>2019-03-17T14:53:15Z</time>
      </trkpt>
      <trkpt lat="43.5333" lon="2.85657">
        <ele>237</ele>
        <time>2019-03-17T14:53:16Z</time>
      </trkpt>
      <trkpt lat="43.53326" lon="2.85653">
        <ele>237</ele>
        <time>2019-03-17T14:53:17Z</time>
      </trkpt>
      <trkpt lat="43.53323" lon="2.85649">
        <ele>237</ele>
        <time>2019-03-17T14:53:18Z</time>
      </trkpt>
      <trkpt lat="43.5332" lon="2.85644">
        <ele>237</ele>
        <time>2019-03-17T14:53:19Z</time>
      </trkpt>
      <trkpt lat="43.53317" lon="2.85639">
        <ele>237</ele>
        <time>2019-03-17T14:53:20Z</time>
      </trkpt>
      <trkpt lat="43.53313" lon="2.85634">
        <ele>236</ele>
        <time>2019-03-17T14:53:21Z</time>
      </trkpt>
      <trkpt lat="43.5331" lon="2.85629">
        <ele>236</ele>
        <time>2019-03-17T14:53:22Z</time>
      </trkpt>
      <trkpt lat="43.53307" lon="2.85624">
        <ele>236</ele>
        <time>2019-03-17T14:53:23Z</time>
      </trkpt>
      <trkpt lat="43.53304" lon="2.85618">
        <ele>237</ele>
        <time>2019-03-17T14:53:24Z</time>
      </trkpt>
      <trkpt lat="43.53301" lon="2.85613">
        <ele>237</ele>
        <time>2019-03-17T14:53:25Z</time>
      </trkpt>
      <trkpt lat="43.53298" lon="2.85608">
        <ele>237</ele>
        <time>2019-03-17T14:53:26Z</time>
      </trkpt>
      <trkpt lat="43.53295" lon="2.85602">
        <ele>237</ele>
        <time>2019-03-17T14:53:27Z</time>
      </trkpt>
      <trkpt lat="43.53291" lon="2.85597">
        <ele>237</ele>
        <time>2019-03-17T14:53:28Z</time>
      </trkpt>
      <trkpt lat="43.53288" lon="2.85592">
        <ele>237</ele>
        <time>2019-03-17T14:53:29Z</time>
      </trkpt>
      <trkpt lat="43.53286" lon="2.85586">
        <ele>236</ele>
        <time>2019-03-17T14:53:30Z</time>
      </trkpt>
      <trkpt lat="43.53284" lon="2.85581">
        <ele>236</ele>
        <time>2019-03-17T14:53:31Z</time>
      </trkpt>
      <trkpt lat="43.53281" lon="2.85576">
        <ele>236</ele>
        <time>2019-03-17T14:53:32Z</time>
      </trkpt>
      <trkpt lat="43.53279" lon="2.8557">
        <ele>236</ele>
        <time>2019-03-17T14:53:33Z</time>
      </trkpt>
      <trkpt lat="43.53276" lon="2.85565">
        <ele>236</ele>
        <time>2019-03-17T14:53:34Z</time>
      </trkpt>
      <trkpt lat="43.53274" lon="2.85559">
        <ele>237</ele>
        <time>2019-03-17T14:53:35Z</time>
      </trkpt>
      <trkpt lat="43.53272" lon="2.85554">
        <ele>237</ele>
        <time>2019-03-17T14:53:36Z</time>
      </trkpt>
      <trkpt lat="43.53269" lon="2.85548">
        <ele>237</ele>
        <time>2019-03-17T14:53:37Z</time>
      </trkpt>
      <trkpt lat="43.53266" lon="2.85542">
        <ele>237</ele>
        <time>2019-03-17T14:53:38Z</time>
      </trkpt>
      <trkpt lat="43.53263" lon="2.85536">
        <ele>237</ele>
        <time>2019-03-17T14:53:39Z</time>
      </trkpt>
      <trkpt lat="43.53261" lon="2.8553">
        <ele>237</ele>
        <time>2019-03-17T14:53:40Z</time>
      </trkpt>
      <trkpt lat="43.53259" lon="2.85525">
        <ele>237</ele>
        <time>2019-03-17T14:53:41Z</time>
      </trkpt>
      <trkpt lat="43.53256" lon="2.85519">
        <ele>237</ele>
        <time>2019-03-17T14:53:42Z</time>
      </trkpt>
      <trkpt lat="43.53253" lon="2.85513">
        <ele>237</ele>
        <time>2019-03-17T14:53:43Z</time>
      </trkpt>
      <trkpt lat="43.53251" lon="2.85506">
        <ele>237</ele>
        <time>2019-03-17T14:53:44Z</time>
      </trkpt>
      <trkpt lat="43.53248" lon="2.855">
        <ele>237</ele>
        <time>2019-03-17T14:53:45Z</time>
      </trkpt>
      <trkpt lat="43.53245" lon="2.85494">
        <ele>237</ele>
        <time>2019-03-17T14:53:46Z</time>
      </trkpt>
      <trkpt lat="43.53243" lon="2.85487">
        <ele>238</ele>
        <time>2019-03-17T14:53:47Z</time>
      </trkpt>
      <trkpt lat="43.53241" lon="2.85481">
        <ele>238</ele>
        <time>2019-03-17T14:53:48Z</time>
      </trkpt>
      <trkpt lat="43.53239" lon="2.85475">
        <ele>238</ele>
        <time>2019-03-17T14:53:49Z</time>
      </trkpt>
      <trkpt lat="43.53237" lon="2.85469">
        <ele>238</ele>
        <time>2019-03-17T14:53:50Z</time>
      </trkpt>
      <trkpt lat="43.53235" lon="2.85464">
        <ele>239</ele>
        <time>2019-03-17T14:53:51Z</time>
      </trkpt>
      <trkpt lat="43.53233" lon="2.85459">
        <ele>239</ele>
        <time>2019-03-17T14:53:52Z</time>
      </trkpt>
      <trkpt lat="43.53233" lon="2.85454">
        <ele>239</ele>
        <time>2019-03-17T14:53:53Z</time>
      </trkpt>
      <trkpt lat="43.53234" lon="2.8545">
        <ele>240</ele>
        <time>2019-03-17T14:53:54Z</time>
      </trkpt>
      <trkpt lat="43.53236" lon="2.85446">
        <ele>240</ele>
        <time>2019-03-17T14:53:55Z</time>
      </trkpt>
      <trkpt lat="43.53239" lon="2.85444">
        <ele>240</ele>
        <time>2019-03-17T14:53:56Z</time>
      </trkpt>
      <trkpt lat="43.53241" lon="2.85444">
        <ele>241</ele>
        <time>2019-03-17T14:53:57Z</time>
      </trkpt>
      <trkpt lat="43.53244" lon="2.85444">
        <ele>241</ele>
        <time>2019-03-17T14:53:58Z</time>
      </trkpt>
      <trkpt lat="43.53246" lon="2.85445">
        <ele>241</ele>
        <time>2019-03-17T14:53:59Z</time>
      </trkpt>
      <trkpt lat="43.53248" lon="2.85446">
        <ele>241</ele>
        <time>2019-03-17T14:54:00Z</time>
      </trkpt>
      <trkpt lat="43.53251" lon="2.85446">
        <ele>241</ele>
        <time>2019-03-17T14:54:01Z</time>
      </trkpt>
      <trkpt lat="43.53253" lon="2.85446">
        <ele>241</ele>
        <time>2019-03-17T14:54:02Z</time>
      </trkpt>
      <trkpt lat="43.53256" lon="2.85446">
        <ele>241</ele>
        <time>2019-03-17T14:54:03Z</time>
      </trkpt>
      <trkpt lat="43.53258" lon="2.85445">
        <ele>241</ele>
        <time>2019-03-17T14:54:04Z</time>
      </trkpt>
      <trkpt lat="43.53261" lon="2.85444">
        <ele>241</ele>
        <time>2019-03-17T14:54:05Z</time>
      </trkpt>
      <trkpt lat="43.53264" lon="2.85441">
        <ele>241</ele>
        <time>2019-03-17T14:54:06Z</time>
      </trkpt>
      <trkpt lat="43.53267" lon="2.85439">
        <ele>241</ele>
        <time>2019-03-17T14:54:07Z</time>
      </trkpt>
      <trkpt lat="43.53269" lon="2.85436">
        <ele>241</ele>
        <time>2019-03-17T14:54:08Z</time>
      </trkpt>
      <trkpt lat="43.53271" lon="2.85434">
        <ele>241</ele>
        <time>2019-03-17T14:54:09Z</time>
      </trkpt>
      <trkpt lat="43.53274" lon="2.85433">
        <ele>241</ele>
        <time>2019-03-17T14:54:10Z</time>
      </trkpt>
      <trkpt lat="43.53276" lon="2.85431">
        <ele>241</ele>
        <time>2019-03-17T14:54:11Z</time>
      </trkpt>
      <trkpt lat="43.53278" lon="2.85431">
        <ele>241</ele>
        <time>2019-03-17T14:54:12Z</time>
      </trkpt>
      <trkpt lat="43.5328" lon="2.85431">
        <ele>241</ele>
        <time>2019-03-17T14:54:13Z</time>
      </trkpt>
      <trkpt lat="43.53282" lon="2.85432">
        <ele>241</ele>
        <time>2019-03-17T14:54:14Z</time>
      </trkpt>
      <trkpt lat="43.53285" lon="2.85431">
        <ele>241</ele>
        <time>2019-03-17T14:54:15Z</time>
      </trkpt>
      <trkpt lat="43.53285" lon="2.85419">
        <ele>247.5</ele>
        <time>2019-04-16T13:49:16Z</time>
      </trkpt>
      <trkpt lat="43.53294" lon="2.85416">
        <ele>248.3</ele>
        <time>2019-04-16T13:49:17Z</time>
      </trkpt>
      <trkpt lat="43.53304" lon="2.85412">
        <ele>249.1</ele>
        <time>2019-04-16T13:49:18Z</time>
      </trkpt>
      <trkpt lat="43.53311" lon="2.85405">
        <ele>249.9</ele>
        <time>2019-04-16T13:49:19Z</time>
      </trkpt>
      <trkpt lat="43.5332" lon="2.85399">
        <ele>250.6</ele>
        <time>2019-04-16T13:49:20Z</time>
      </trkpt>
      <trkpt lat="43.5334" lon="2.85385">
        <ele>252.9</ele>
        <time>2019-04-16T13:49:22Z</time>
      </trkpt>
      <trkpt lat="43.53362" lon="2.85374">
        <ele>255.1</ele>
        <time>2019-04-16T13:49:24Z</time>
      </trkpt>
      <trkpt lat="43.53376" lon="2.8537">
        <ele>256.3</ele>
        <time>2019-04-16T13:49:25Z</time>
      </trkpt>
      <trkpt lat="43.53414" lon="2.85355">
        <ele>260</ele>
        <time>2019-04-16T13:49:28Z</time>
      </trkpt>
      <trkpt lat="43.53424" lon="2.85353">
        <ele>261.2</ele>
        <time>2019-04-16T13:49:29Z</time>
      </trkpt>
      <trkpt lat="43.53435" lon="2.85352">
        <ele>262.2</ele>
        <time>2019-04-16T13:49:30Z</time>
      </trkpt>
      <trkpt lat="43.53445" lon="2.85354">
        <ele>263.1</ele>
        <time>2019-04-16T13:49:31Z</time>
      </trkpt>
      <trkpt lat="43.53473" lon="2.85363">
        <ele>265.2</ele>
        <time>2019-04-16T13:49:35Z</time>
      </trkpt>
      <trkpt lat="43.5348" lon="2.85362">
        <ele>265.4</ele>
        <time>2019-04-16T13:49:36Z</time>
      </trkpt>
      <trkpt lat="43.53486" lon="2.85357">
        <ele>265.5</ele>
        <time>2019-04-16T13:49:37Z</time>
      </trkpt>
      <trkpt lat="43.53493" lon="2.85351">
        <ele>265.6</ele>
        <time>2019-04-16T13:49:38Z</time>
      </trkpt>
      <trkpt lat="43.535" lon="2.85342">
        <ele>265.6</ele>
        <time>2019-04-16T13:49:39Z</time>
      </trkpt>
      <trkpt lat="43.53507" lon="2.85332">
        <ele>265.8</ele>
        <time>2019-04-16T13:49:40Z</time>
      </trkpt>
      <trkpt lat="43.53552" lon="2.85283">
        <ele>269.3</ele>
        <time>2019-04-16T13:49:46Z</time>
      </trkpt>
      <trkpt lat="43.53561" lon="2.85282">
        <ele>270.1</ele>
        <time>2019-04-16T13:49:47Z</time>
      </trkpt>
      <trkpt lat="43.5357" lon="2.85283">
        <ele>271</ele>
        <time>2019-04-16T13:49:48Z</time>
      </trkpt>
      <trkpt lat="43.53578" lon="2.85286">
        <ele>271.9</ele>
        <time>2019-04-16T13:49:49Z</time>
      </trkpt>
      <trkpt lat="43.53587" lon="2.85291">
        <ele>272.8</ele>
        <time>2019-04-16T13:49:50Z</time>
      </trkpt>
      <trkpt lat="43.53597" lon="2.85297">
        <ele>274.5</ele>
        <time>2019-04-16T13:49:51Z</time>
      </trkpt>
      <trkpt lat="43.53609" lon="2.85302">
        <ele>274.5</ele>
        <time>2019-04-16T13:49:52Z</time>
      </trkpt>
      <trkpt lat="43.53623" lon="2.85306">
        <ele>276.4</ele>
        <time>2019-04-16T13:49:53Z</time>
      </trkpt>
      <trkpt lat="43.53634" lon="2.85307">
        <ele>276.4</ele>
        <time>2019-04-16T13:49:54Z</time>
      </trkpt>
      <trkpt lat="43.53647" lon="2.85304">
        <ele>277.2</ele>
        <time>2019-04-16T13:49:55Z</time>
      </trkpt>
      <trkpt lat="43.53659" lon="2.85298">
        <ele>277.9</ele>
        <time>2019-04-16T13:49:56Z</time>
      </trkpt>
      <trkpt lat="43.53672" lon="2.85289">
        <ele>279.4</ele>
        <time>2019-04-16T13:49:57Z</time>
      </trkpt>
      <trkpt lat="43.53685" lon="2.85279">
        <ele>280.4</ele>
        <time>2019-04-16T13:49:58Z</time>
      </trkpt>
      <trkpt lat="43.53723" lon="2.85247">
        <ele>284.4</ele>
        <time>2019-04-16T13:50:01Z</time>
      </trkpt>
      <trkpt lat="43.53758" lon="2.85219">
        <ele>288.8</ele>
        <time>2019-04-16T13:50:04Z</time>
      </trkpt>
      <trkpt lat="43.53785" lon="2.85195">
        <ele>292.3</ele>
        <time>2019-04-16T13:50:07Z</time>
      </trkpt>
      <trkpt lat="43.53807" lon="2.85168">
        <ele>295</ele>
        <time>2019-04-16T13:50:10Z</time>
      </trkpt>
      <trkpt lat="43.53825" lon="2.85137">
        <ele>297.1</ele>
        <time>2019-04-16T13:50:14Z</time>
      </trkpt>
      <trkpt lat="43.53829" lon="2.85125">
        <ele>297.4</ele>
        <time>2019-04-16T13:50:15Z</time>
      </trkpt>
      <trkpt lat="43.53845" lon="2.85078">
        <ele>298.9</ele>
        <time>2019-04-16T13:50:19Z</time>
      </trkpt>
      <trkpt lat="43.53851" lon="2.85066">
        <ele>299.5</ele>
        <time>2019-04-16T13:50:20Z</time>
      </trkpt>
      <trkpt lat="43.53874" lon="2.85032">
        <ele>302.7</ele>
        <time>2019-04-16T13:50:23Z</time>
      </trkpt>
      <trkpt lat="43.53885" lon="2.85023">
        <ele>303.9</ele>
        <time>2019-04-16T13:50:24Z</time>
      </trkpt>
      <trkpt lat="43.5392" lon="2.84995">
        <ele>307.1</ele>
        <time>2019-04-16T13:50:27Z</time>
      </trkpt>
      <trkpt lat="43.53951" lon="2.84962">
        <ele>310.9</ele>
        <time>2019-04-16T13:50:30Z</time>
      </trkpt>
      <trkpt lat="43.53961" lon="2.84952">
        <ele>312.1</ele>
        <time>2019-04-16T13:50:31Z</time>
      </trkpt>
      <trkpt lat="43.53973" lon="2.84945">
        <ele>313.3</ele>
        <time>2019-04-16T13:50:32Z</time>
      </trkpt>
      <trkpt lat="43.53995" lon="2.84933">
        <ele>315.7</ele>
        <time>2019-04-16T13:50:34Z</time>
      </trkpt>
      <trkpt lat="43.54006" lon="2.8493">
        <ele>317</ele>
        <time>2019-04-16T13:50:35Z</time>
      </trkpt>
      <trkpt lat="43.54016" lon="2.84928">
        <ele>318.2</ele>
        <time>2019-04-16T13:50:36Z</time>
      </trkpt>
      <trkpt lat="43.54019" lon="2.84928">
        <ele>319.2</ele>
        <time>2019-04-16T13:50:37Z</time>
      </trkpt>
      <trkpt lat="43.54023" lon="2.84928">
        <ele>320</ele>
        <time>2019-04-16T13:50:38Z</time>
      </trkpt>
      <trkpt lat="43.54049" lon="2.84928">
        <ele>323.4</ele>
        <time>2019-04-16T13:50:45Z</time>
      </trkpt>
      <trkpt lat="43.541" lon="2.84912">
        <ele>326.9</ele>
        <time>2019-04-16T13:50:51Z</time>
      </trkpt>
      <trkpt lat="43.54109" lon="2.84904">
        <ele>327.8</ele>
        <time>2019-04-16T13:50:52Z</time>
      </trkpt>
      <trkpt lat="43.54142" lon="2.84868">
        <ele>331.6</ele>
        <time>2019-04-16T13:50:56Z</time>
      </trkpt>
      <trkpt lat="43.54152" lon="2.84861">
        <ele>332.7</ele>
        <time>2019-04-16T13:50:57Z</time>
      </trkpt>
      <trkpt lat="43.54179" lon="2.84849">
        <ele>335.7</ele>
        <time>2019-04-16T13:51:00Z</time>
      </trkpt>
      <trkpt lat="43.54189" lon="2.84848">
        <ele>336.6</ele>
        <time>2019-04-16T13:51:01Z</time>
      </trkpt>
      <trkpt lat="43.54198" lon="2.84847">
        <ele>337.5</ele>
        <time>2019-04-16T13:51:02Z</time>
      </trkpt>
      <trkpt lat="43.54225" lon="2.84851">
        <ele>340.2</ele>
        <time>2019-04-16T13:51:05Z</time>
      </trkpt>
      <trkpt lat="43.54235" lon="2.84855">
        <ele>341</ele>
        <time>2019-04-16T13:51:06Z</time>
      </trkpt>
      <trkpt lat="43.54267" lon="2.84866">
        <ele>344</ele>
        <time>2019-04-16T13:51:09Z</time>
      </trkpt>
      <trkpt lat="43.54279" lon="2.84867">
        <ele>345.1</ele>
        <time>2019-04-16T13:51:10Z</time>
      </trkpt>
      <trkpt lat="43.54292" lon="2.84868">
        <ele>346.2</ele>
        <time>2019-04-16T13:51:11Z</time>
      </trkpt>
      <trkpt lat="43.54305" lon="2.84865">
        <ele>347.2</ele>
        <time>2019-04-16T13:51:12Z</time>
      </trkpt>
      <trkpt lat="43.54316" lon="2.84861">
        <ele>348.1</ele>
        <time>2019-04-16T13:51:13Z</time>
      </trkpt>
      <trkpt lat="43.54328" lon="2.84854">
        <ele>350.3</ele>
        <time>2019-04-16T13:51:14Z</time>
      </trkpt>
      <trkpt lat="43.54338" lon="2.84847">
        <ele>351.5</ele>
        <time>2019-04-16T13:51:15Z</time>
      </trkpt>
      <trkpt lat="43.54365" lon="2.84835">
        <ele>354.5</ele>
        <time>2019-04-16T13:51:18Z</time>
      </trkpt>
      <trkpt lat="43.54373" lon="2.84836">
        <ele>355.4</ele>
        <time>2019-04-16T13:51:19Z</time>
      </trkpt>
      <trkpt lat="43.54382" lon="2.84837">
        <ele>356.2</ele>
        <time>2019-04-16T13:51:20Z</time>
      </trkpt>
      <trkpt lat="43.544" lon="2.8484">
        <ele>357.7</ele>
        <time>2019-04-16T13:51:22Z</time>
      </trkpt>
      <trkpt lat="43.54411" lon="2.8484">
        <ele>358.5</ele>
        <time>2019-04-16T13:51:23Z</time>
      </trkpt>
      <trkpt lat="43.54421" lon="2.84839">
        <ele>359.2</ele>
        <time>2019-04-16T13:51:24Z</time>
      </trkpt>
      <trkpt lat="43.54429" lon="2.84834">
        <ele>359.9</ele>
        <time>2019-04-16T13:51:25Z</time>
      </trkpt>
      <trkpt lat="43.54432" lon="2.84826">
        <ele>360.6</ele>
        <time>2019-04-16T13:51:26Z</time>
      </trkpt>
      <trkpt lat="43.54437" lon="2.84816">
        <ele>361.2</ele>
        <time>2019-04-16T13:51:27Z</time>
      </trkpt>
      <trkpt lat="43.54442" lon="2.84804">
        <ele>361.9</ele>
        <time>2019-04-16T13:51:28Z</time>
      </trkpt>
      <trkpt lat="43.54453" lon="2.8476">
        <ele>364.2</ele>
        <time>2019-04-16T13:51:31Z</time>
      </trkpt>
      <trkpt lat="43.54461" lon="2.84718">
        <ele>367.8</ele>
        <time>2019-04-16T13:51:34Z</time>
      </trkpt>
      <trkpt lat="43.54465" lon="2.84707">
        <ele>369</ele>
        <time>2019-04-16T13:51:35Z</time>
      </trkpt>
      <trkpt lat="43.5447" lon="2.84697">
        <ele>370.2</ele>
        <time>2019-04-16T13:51:36Z</time>
      </trkpt>
      <trkpt lat="43.54477" lon="2.84688">
        <ele>371.2</ele>
        <time>2019-04-16T13:51:37Z</time>
      </trkpt>
      <trkpt lat="43.54501" lon="2.8466">
        <ele>374.9</ele>
        <time>2019-04-16T13:51:40Z</time>
      </trkpt>
      <trkpt lat="43.54508" lon="2.84648">
        <ele>375.8</ele>
        <time>2019-04-16T13:51:41Z</time>
      </trkpt>
      <trkpt lat="43.54513" lon="2.84636">
        <ele>376.8</ele>
        <time>2019-04-16T13:51:42Z</time>
      </trkpt>
      <trkpt lat="43.54526" lon="2.84608">
        <ele>379.8</ele>
        <time>2019-04-16T13:51:45Z</time>
      </trkpt>
      <trkpt lat="43.54532" lon="2.84603">
        <ele>380.8</ele>
        <time>2019-04-16T13:51:46Z</time>
      </trkpt>
      <trkpt lat="43.54537" lon="2.846">
        <ele>381.7</ele>
        <time>2019-04-16T13:51:47Z</time>
      </trkpt>
      <trkpt lat="43.54543" lon="2.84598">
        <ele>382.5</ele>
        <time>2019-04-16T13:51:48Z</time>
      </trkpt>
      <trkpt lat="43.54549" lon="2.84597">
        <ele>383.4</ele>
        <time>2019-04-16T13:51:49Z</time>
      </trkpt>
      <trkpt lat="43.54556" lon="2.84596">
        <ele>384.1</ele>
        <time>2019-04-16T13:51:50Z</time>
      </trkpt>
      <trkpt lat="43.54563" lon="2.84594">
        <ele>384.8</ele>
        <time>2019-04-16T13:51:51Z</time>
      </trkpt>
      <trkpt lat="43.54569" lon="2.84591">
        <ele>385.3</ele>
        <time>2019-04-16T13:51:52Z</time>
      </trkpt>
      <trkpt lat="43.54578" lon="2.84585">
        <ele>385.9</ele>
        <time>2019-04-16T13:51:53Z</time>
      </trkpt>
      <trkpt lat="43.54611" lon="2.84552">
        <ele>389</ele>
        <time>2019-04-16T13:51:57Z</time>
      </trkpt>
      <trkpt lat="43.54625" lon="2.84533">
        <ele>390.9</ele>
        <time>2019-04-16T13:51:59Z</time>
      </trkpt>
      <trkpt lat="43.54632" lon="2.84526">
        <ele>391.7</ele>
        <time>2019-04-16T13:52:00Z</time>
      </trkpt>
      <trkpt lat="43.54641" lon="2.84519">
        <ele>392.7</ele>
        <time>2019-04-16T13:52:01Z</time>
      </trkpt>
      <trkpt lat="43.54659" lon="2.84503">
        <ele>395.9</ele>
        <time>2019-04-16T13:52:03Z</time>
      </trkpt>
      <trkpt lat="43.54679" lon="2.8449">
        <ele>399</ele>
        <time>2019-04-16T13:52:06Z</time>
      </trkpt>
      <trkpt lat="43.54689" lon="2.84487">
        <ele>400.5</ele>
        <time>2019-04-16T13:52:08Z</time>
      </trkpt>
      <trkpt lat="43.5469" lon="2.84484">
        <ele>401.1</ele>
        <time>2019-04-16T13:52:09Z</time>
      </trkpt>
      <trkpt lat="43.5469" lon="2.84479">
        <ele>401.5</ele>
        <time>2019-04-16T13:52:10Z</time>
      </trkpt>
      <trkpt lat="43.5469" lon="2.84474">
        <ele>402</ele>
        <time>2019-04-16T13:52:11Z</time>
      </trkpt>
      <trkpt lat="43.54689" lon="2.8447">
        <ele>402.3</ele>
        <time>2019-04-16T13:52:12Z</time>
      </trkpt>
      <trkpt lat="43.54687" lon="2.84468">
        <ele>402.6</ele>
        <time>2019-04-16T13:52:13Z</time>
      </trkpt>
      <trkpt lat="43.54683" lon="2.84464">
        <ele>402.9</ele>
        <time>2019-04-16T13:52:14Z</time>
      </trkpt>
      <trkpt lat="43.54681" lon="2.84456">
        <ele>403.3</ele>
        <time>2019-04-16T13:52:15Z</time>
      </trkpt>
      <trkpt lat="43.5468" lon="2.84445">
        <ele>403.8</ele>
        <time>2019-04-16T13:52:16Z</time>
      </trkpt>
      <trkpt lat="43.54679" lon="2.84433">
        <ele>404.4</ele>
        <time>2019-04-16T13:52:17Z</time>
      </trkpt>
      <trkpt lat="43.54677" lon="2.84419">
        <ele>405</ele>
        <time>2019-04-16T13:52:18Z</time>
      </trkpt>
      <trkpt lat="43.54675" lon="2.84344">
        <ele>408.9</ele>
        <time>2019-04-16T13:52:23Z</time>
      </trkpt>
      <trkpt lat="43.54676" lon="2.84318">
        <ele>411</ele>
        <time>2019-04-16T13:52:25Z</time>
      </trkpt>
      <trkpt lat="43.54674" lon="2.84297">
        <ele>413.6</ele>
        <time>2019-04-16T13:52:27Z</time>
      </trkpt>
      <trkpt lat="43.54672" lon="2.8429">
        <ele>413.6</ele>
        <time>2019-04-16T13:52:28Z</time>
      </trkpt>
      <trkpt lat="43.54668" lon="2.84284">
        <ele>414.8</ele>
        <time>2019-04-16T13:52:29Z</time>
      </trkpt>
      <trkpt lat="43.54667" lon="2.84279">
        <ele>415.4</ele>
        <time>2019-04-16T13:52:30Z</time>
      </trkpt>
      <trkpt lat="43.54669" lon="2.84275">
        <ele>415.9</ele>
        <time>2019-04-16T13:52:31Z</time>
      </trkpt>
      <trkpt lat="43.54671" lon="2.84274">
        <ele>416.4</ele>
        <time>2019-04-16T13:52:32Z</time>
      </trkpt>
      <trkpt lat="43.54674" lon="2.84275">
        <ele>417</ele>
        <time>2019-04-16T13:52:33Z</time>
      </trkpt>
      <trkpt lat="43.54677" lon="2.84278">
        <ele>417.6</ele>
        <time>2019-04-16T13:52:34Z</time>
      </trkpt>
      <trkpt lat="43.54679" lon="2.84281">
        <ele>418.2</ele>
        <time>2019-04-16T13:52:35Z</time>
      </trkpt>
      <trkpt lat="43.54681" lon="2.84291">
        <ele>418.7</ele>
        <time>2019-04-16T13:52:36Z</time>
      </trkpt>
      <trkpt lat="43.54682" lon="2.84302">
        <ele>419.2</ele>
        <time>2019-04-16T13:52:37Z</time>
      </trkpt>
      <trkpt lat="43.54682" lon="2.84314">
        <ele>419.8</ele>
        <time>2019-04-16T13:52:38Z</time>
      </trkpt>
      <trkpt lat="43.54683" lon="2.84326">
        <ele>420.4</ele>
        <time>2019-04-16T13:52:39Z</time>
      </trkpt>
      <trkpt lat="43.54688" lon="2.84351">
        <ele>421.8</ele>
        <time>2019-04-16T13:52:41Z</time>
      </trkpt>
      <trkpt lat="43.54691" lon="2.84362">
        <ele>422.5</ele>
        <time>2019-04-16T13:52:42Z</time>
      </trkpt>
      <trkpt lat="43.54696" lon="2.84374">
        <ele>423.2</ele>
        <time>2019-04-16T13:52:43Z</time>
      </trkpt>
      <trkpt lat="43.54711" lon="2.84413">
        <ele>425.6</ele>
        <time>2019-04-16T13:52:47Z</time>
      </trkpt>
      <trkpt lat="43.54724" lon="2.84423">
        <ele>426.4</ele>
        <time>2019-04-16T13:52:49Z</time>
      </trkpt>
      <trkpt lat="43.54731" lon="2.84424">
        <ele>426.8</ele>
        <time>2019-04-16T13:52:50Z</time>
      </trkpt>
      <trkpt lat="43.54737" lon="2.84426">
        <ele>427.7</ele>
        <time>2019-04-16T13:52:51Z</time>
      </trkpt>
      <trkpt lat="43.54745" lon="2.84427">
        <ele>427.7</ele>
        <time>2019-04-16T13:52:52Z</time>
      </trkpt>
      <trkpt lat="43.54752" lon="2.84426">
        <ele>428.6</ele>
        <time>2019-04-16T13:52:53Z</time>
      </trkpt>
      <trkpt lat="43.5476" lon="2.84424">
        <ele>429.1</ele>
        <time>2019-04-16T13:52:54Z</time>
      </trkpt>
      <trkpt lat="43.54768" lon="2.8442">
        <ele>429.6</ele>
        <time>2019-04-16T13:52:55Z</time>
      </trkpt>
      <trkpt lat="43.54778" lon="2.84416">
        <ele>430.2</ele>
        <time>2019-04-16T13:52:56Z</time>
      </trkpt>
      <trkpt lat="43.54786" lon="2.8441">
        <ele>430.7</ele>
        <time>2019-04-16T13:52:57Z</time>
      </trkpt>
      <trkpt lat="43.54794" lon="2.84404">
        <ele>431.3</ele>
        <time>2019-04-16T13:52:58Z</time>
      </trkpt>
      <trkpt lat="43.54802" lon="2.84398">
        <ele>432</ele>
        <time>2019-04-16T13:52:59Z</time>
      </trkpt>
      <trkpt lat="43.54833" lon="2.84375">
        <ele>435.3</ele>
        <time>2019-04-16T13:53:03Z</time>
      </trkpt>
      <trkpt lat="43.54858" lon="2.84358">
        <ele>438.4</ele>
        <time>2019-04-16T13:53:07Z</time>
      </trkpt>
      <trkpt lat="43.54867" lon="2.84353">
        <ele>439.5</ele>
        <time>2019-04-16T13:53:09Z</time>
      </trkpt>
      <trkpt lat="43.5487" lon="2.84349">
        <ele>439.9</ele>
        <time>2019-04-16T13:53:10Z</time>
      </trkpt>
      <trkpt lat="43.54871" lon="2.84345">
        <ele>440.2</ele>
        <time>2019-04-16T13:53:11Z</time>
      </trkpt>
      <trkpt lat="43.5487" lon="2.84341">
        <ele>440.5</ele>
        <time>2019-04-16T13:53:12Z</time>
      </trkpt>
      <trkpt lat="43.54869" lon="2.84338">
        <ele>440.8</ele>
        <time>2019-04-16T13:53:13Z</time>
      </trkpt>
      <trkpt lat="43.54868" lon="2.84335">
        <ele>441.1</ele>
        <time>2019-04-16T13:53:14Z</time>
      </trkpt>
      <trkpt lat="43.54865" lon="2.84333">
        <ele>441.8</ele>
        <time>2019-04-16T13:53:15Z</time>
      </trkpt>
      <trkpt lat="43.54862" lon="2.84331">
        <ele>442.3</ele>
        <time>2019-04-16T13:53:16Z</time>
      </trkpt>
      <trkpt lat="43.54856" lon="2.84331">
        <ele>442.8</ele>
        <time>2019-04-16T13:53:17Z</time>
      </trkpt>
      <trkpt lat="43.54849" lon="2.8433">
        <ele>443.5</ele>
        <time>2019-04-16T13:53:18Z</time>
      </trkpt>
      <trkpt lat="43.5484" lon="2.84331">
        <ele>444.1</ele>
        <time>2019-04-16T13:53:19Z</time>
      </trkpt>
      <trkpt lat="43.54827" lon="2.84332">
        <ele>445</ele>
        <time>2019-04-16T13:53:20Z</time>
      </trkpt>
      <trkpt lat="43.5481" lon="2.8433">
        <ele>446.9</ele>
        <time>2019-04-16T13:53:22Z</time>
      </trkpt>
      <trkpt lat="43.54802" lon="2.84327">
        <ele>447.9</ele>
        <time>2019-04-16T13:53:23Z</time>
      </trkpt>
      <trkpt lat="43.54795" lon="2.84323">
        <ele>448.9</ele>
        <time>2019-04-16T13:53:24Z</time>
      </trkpt>
      <trkpt lat="43.54788" lon="2.84317">
        <ele>449.8</ele>
        <time>2019-04-16T13:53:25Z</time>
      </trkpt>
      <trkpt lat="43.54783" lon="2.84309">
        <ele>450.8</ele>
        <time>2019-04-16T13:53:26Z</time>
      </trkpt>
      <trkpt lat="43.54778" lon="2.843">
        <ele>451.7</ele>
        <time>2019-04-16T13:53:27Z</time>
      </trkpt>
      <trkpt lat="43.54773" lon="2.8429">
        <ele>452.7</ele>
        <time>2019-04-16T13:53:28Z</time>
      </trkpt>
      <trkpt lat="43.54769" lon="2.84281">
        <ele>453.6</ele>
        <time>2019-04-16T13:53:29Z</time>
      </trkpt>
      <trkpt lat="43.54768" lon="2.84274">
        <ele>454.3</ele>
        <time>2019-04-16T13:53:30Z</time>
      </trkpt>
      <trkpt lat="43.54768" lon="2.84268">
        <ele>455</ele>
        <time>2019-04-16T13:53:31Z</time>
      </trkpt>
      <trkpt lat="43.54769" lon="2.84263">
        <ele>455.7</ele>
        <time>2019-04-16T13:53:32Z</time>
      </trkpt>
      <trkpt lat="43.54771" lon="2.84262">
        <ele>456.4</ele>
        <time>2019-04-16T13:53:33Z</time>
      </trkpt>
      <trkpt lat="43.54773" lon="2.84263">
        <ele>457.1</ele>
        <time>2019-04-16T13:53:34Z</time>
      </trkpt>
      <trkpt lat="43.54776" lon="2.84267">
        <ele>457.9</ele>
        <time>2019-04-16T13:53:35Z</time>
      </trkpt>
      <trkpt lat="43.5478" lon="2.84271">
        <ele>459.3</ele>
        <time>2019-04-16T13:53:36Z</time>
      </trkpt>
      <trkpt lat="43.54784" lon="2.84275">
        <ele>459.3</ele>
        <time>2019-04-16T13:53:37Z</time>
      </trkpt>
      <trkpt lat="43.54789" lon="2.84278">
        <ele>459.9</ele>
        <time>2019-04-16T13:53:38Z</time>
      </trkpt>
      <trkpt lat="43.54795" lon="2.84277">
        <ele>461</ele>
        <time>2019-04-16T13:53:39Z</time>
      </trkpt>
      <trkpt lat="43.54801" lon="2.84274">
        <ele>461</ele>
        <time>2019-04-16T13:53:40Z</time>
      </trkpt>
      <trkpt lat="43.54807" lon="2.84269">
        <ele>462.1</ele>
        <time>2019-04-16T13:53:41Z</time>
      </trkpt>
      <trkpt lat="43.54813" lon="2.84263">
        <ele>462.7</ele>
        <time>2019-04-16T13:53:42Z</time>
      </trkpt>
      <trkpt lat="43.54818" lon="2.84257">
        <ele>463.3</ele>
        <time>2019-04-16T13:53:43Z</time>
      </trkpt>
      <trkpt lat="43.54822" lon="2.84251">
        <ele>464</ele>
        <time>2019-04-16T13:53:44Z</time>
      </trkpt>
      <trkpt lat="43.54833" lon="2.84234">
        <ele>466.3</ele>
        <time>2019-04-16T13:53:47Z</time>
      </trkpt>
      <trkpt lat="43.54835" lon="2.84228">
        <ele>467</ele>
        <time>2019-04-16T13:53:48Z</time>
      </trkpt>
      <trkpt lat="43.54836" lon="2.84222">
        <ele>467.6</ele>
        <time>2019-04-16T13:53:49Z</time>
      </trkpt>
      <trkpt lat="43.54837" lon="2.84216">
        <ele>468.3</ele>
        <time>2019-04-16T13:53:50Z</time>
      </trkpt>
      <trkpt lat="43.54832" lon="2.84211">
        <ele>468.9</ele>
        <time>2019-04-16T13:53:51Z</time>
      </trkpt>
      <trkpt lat="43.5483" lon="2.84205">
        <ele>469.5</ele>
        <time>2019-04-16T13:53:52Z</time>
      </trkpt>
      <trkpt lat="43.54828" lon="2.84196">
        <ele>470.3</ele>
        <time>2019-04-16T13:53:53Z</time>
      </trkpt>
      <trkpt lat="43.54827" lon="2.84187">
        <ele>471</ele>
        <time>2019-04-16T13:53:54Z</time>
      </trkpt>
      <trkpt lat="43.54826" lon="2.84148">
        <ele>474.5</ele>
        <time>2019-04-16T13:53:58Z</time>
      </trkpt>
      <trkpt lat="43.54828" lon="2.8414">
        <ele>475.5</ele>
        <time>2019-04-16T13:53:59Z</time>
      </trkpt>
      <trkpt lat="43.54829" lon="2.84133">
        <ele>476.5</ele>
        <time>2019-04-16T13:54:00Z</time>
      </trkpt>
      <trkpt lat="43.54834" lon="2.84129">
        <ele>477.6</ele>
        <time>2019-04-16T13:54:01Z</time>
      </trkpt>
      <trkpt lat="43.5484" lon="2.84127">
        <ele>478.6</ele>
        <time>2019-04-16T13:54:02Z</time>
      </trkpt>
      <trkpt lat="43.54846" lon="2.84126">
        <ele>479.5</ele>
        <time>2019-04-16T13:54:03Z</time>
      </trkpt>
      <trkpt lat="43.54853" lon="2.84126">
        <ele>480.5</ele>
        <time>2019-04-16T13:54:04Z</time>
      </trkpt>
      <trkpt lat="43.5487" lon="2.84126">
        <ele>483.8</ele>
        <time>2019-04-16T13:54:06Z</time>
      </trkpt>
      <trkpt lat="43.54899" lon="2.84127">
        <ele>487.6</ele>
        <time>2019-04-16T13:54:09Z</time>
      </trkpt>
      <trkpt lat="43.54909" lon="2.84129">
        <ele>488.8</ele>
        <time>2019-04-16T13:54:10Z</time>
      </trkpt>
      <trkpt lat="43.54935" lon="2.84134">
        <ele>492.6</ele>
        <time>2019-04-16T13:54:13Z</time>
      </trkpt>
      <trkpt lat="43.54963" lon="2.8414">
        <ele>496.2</ele>
        <time>2019-04-16T13:54:17Z</time>
      </trkpt>
      <trkpt lat="43.54989" lon="2.84144">
        <ele>499.8</ele>
        <time>2019-04-16T13:54:21Z</time>
      </trkpt>
      <trkpt lat="43.55013" lon="2.8415">
        <ele>503.3</ele>
        <time>2019-04-16T13:54:25Z</time>
      </trkpt>
      <trkpt lat="43.55045" lon="2.84152">
        <ele>506.9</ele>
        <time>2019-04-16T13:54:29Z</time>
      </trkpt>
      <trkpt lat="43.55062" lon="2.84152">
        <ele>510</ele>
        <time>2019-04-16T13:54:31Z</time>
      </trkpt>
      <trkpt lat="43.5509" lon="2.84149">
        <ele>513.2</ele>
        <time>2019-04-16T13:54:34Z</time>
      </trkpt>
      <trkpt lat="43.55119" lon="2.84144">
        <ele>516.2</ele>
        <time>2019-04-16T13:54:37Z</time>
      </trkpt>
      <trkpt lat="43.55127" lon="2.84141">
        <ele>517.3</ele>
        <time>2019-04-16T13:54:38Z</time>
      </trkpt>
      <trkpt lat="43.55142" lon="2.84135">
        <ele>519.4</ele>
        <time>2019-04-16T13:54:40Z</time>
      </trkpt>
      <trkpt lat="43.55147" lon="2.84131">
        <ele>520.4</ele>
        <time>2019-04-16T13:54:41Z</time>
      </trkpt>
      <trkpt lat="43.55153" lon="2.84125">
        <ele>521.3</ele>
        <time>2019-04-16T13:54:42Z</time>
      </trkpt>
      <trkpt lat="43.55168" lon="2.84109">
        <ele>523.8</ele>
        <time>2019-04-16T13:54:45Z</time>
      </trkpt>
      <trkpt lat="43.55174" lon="2.84105">
        <ele>524.7</ele>
        <time>2019-04-16T13:54:46Z</time>
      </trkpt>
      <trkpt lat="43.55188" lon="2.84099">
        <ele>527.2</ele>
        <time>2019-04-16T13:54:49Z</time>
      </trkpt>
      <trkpt lat="43.55194" lon="2.84098">
        <ele>527.8</ele>
        <time>2019-04-16T13:54:50Z</time>
      </trkpt>
      <trkpt lat="43.55198" lon="2.84096">
        <ele>528.4</ele>
        <time>2019-04-16T13:54:51Z</time>
      </trkpt>
      <trkpt lat="43.55209" lon="2.8409">
        <ele>531.6</ele>
        <time>2019-04-16T13:54:57Z</time>
      </trkpt>
      <trkpt lat="43.55195" lon="2.84095">
        <ele>534.8</ele>
        <time>2019-04-16T13:55:05Z</time>
      </trkpt>
      <trkpt lat="43.55189" lon="2.84099">
        <ele>536.8</ele>
        <time>2019-04-16T13:55:08Z</time>
      </trkpt>
      <trkpt lat="43.55167" lon="2.84094">
        <ele>539.9</ele>
        <time>2019-04-16T13:55:14Z</time>
      </trkpt>
      <trkpt lat="43.55147" lon="2.84084">
        <ele>541.9</ele>
        <time>2019-04-16T13:55:17Z</time>
      </trkpt>
      <trkpt lat="43.55128" lon="2.84073">
        <ele>541.9</ele>
        <time>2019-04-16T13:55:18Z</time>
      </trkpt>
      <trkpt lat="43.55107" lon="2.84058">
        <ele>543.7</ele>
        <time>2019-04-16T13:55:20Z</time>
      </trkpt>
      <trkpt lat="43.55086" lon="2.84047">
        <ele>546.5</ele>
        <time>2019-04-16T13:55:23Z</time>
      </trkpt>
      <trkpt lat="43.55083" lon="2.84042">
        <ele>547.2</ele>
        <time>2019-04-16T13:55:24Z</time>
      </trkpt>
      <trkpt lat="43.55073" lon="2.84024">
        <ele>548.3</ele>
        <time>2019-04-16T13:55:26Z</time>
      </trkpt>
      <trkpt lat="43.55059" lon="2.83986">
        <ele>551.5</ele>
        <time>2019-04-16T13:55:30Z</time>
      </trkpt>
      <trkpt lat="43.55054" lon="2.83948">
        <ele>553.9</ele>
        <time>2019-04-16T13:55:33Z</time>
      </trkpt>
      <trkpt lat="43.55052" lon="2.83939">
        <ele>554.9</ele>
        <time>2019-04-16T13:55:34Z</time>
      </trkpt>
      <trkpt lat="43.55049" lon="2.83931">
        <ele>556</ele>
        <time>2019-04-16T13:55:35Z</time>
      </trkpt>
      <trkpt lat="43.55048" lon="2.83924">
        <ele>556.9</ele>
        <time>2019-04-16T13:55:36Z</time>
      </trkpt>
      <trkpt lat="43.55049" lon="2.83917">
        <ele>557.8</ele>
        <time>2019-04-16T13:55:37Z</time>
      </trkpt>
      <trkpt lat="43.55048" lon="2.8391">
        <ele>558.5</ele>
        <time>2019-04-16T13:55:38Z</time>
      </trkpt>
      <trkpt lat="43.55044" lon="2.83896">
        <ele>559.7</ele>
        <time>2019-04-16T13:55:40Z</time>
      </trkpt>
      <trkpt lat="43.55043" lon="2.83891">
        <ele>560.3</ele>
        <time>2019-04-16T13:55:41Z</time>
      </trkpt>
      <trkpt lat="43.55042" lon="2.83886">
        <ele>560.9</ele>
        <time>2019-04-16T13:55:42Z</time>
      </trkpt>
      <trkpt lat="43.55043" lon="2.83882">
        <ele>561.4</ele>
        <time>2019-04-16T13:55:43Z</time>
      </trkpt>
      <trkpt lat="43.55045" lon="2.83873">
        <ele>563.2</ele>
        <time>2019-04-16T13:55:46Z</time>
      </trkpt>
      <trkpt lat="43.55045" lon="2.83871">
        <ele>563.6</ele>
        <time>2019-04-16T13:55:47Z</time>
      </trkpt>
      <trkpt lat="43.55045" lon="2.83871">
        <ele>564</ele>
        <time>2019-04-16T13:55:48Z</time>
      </trkpt>
      <trkpt lat="43.55048" lon="2.83883">
        <ele>565.3</ele>
        <time>2019-04-16T13:55:51Z</time>
      </trkpt>
      <trkpt lat="43.5505" lon="2.83889">
        <ele>565.9</ele>
        <time>2019-04-16T13:55:52Z</time>
      </trkpt>
      <trkpt lat="43.5505" lon="2.83897">
        <ele>566.5</ele>
        <time>2019-04-16T13:55:53Z</time>
      </trkpt>
      <trkpt lat="43.55057" lon="2.83918">
        <ele>568.5</ele>
        <time>2019-04-16T13:55:56Z</time>
      </trkpt>
      <trkpt lat="43.55063" lon="2.83924">
        <ele>569.3</ele>
        <time>2019-04-16T13:55:57Z</time>
      </trkpt>
      <trkpt lat="43.55082" lon="2.83945">
        <ele>572.5</ele>
        <time>2019-04-16T13:56:01Z</time>
      </trkpt>
      <trkpt lat="43.55091" lon="2.83948">
        <ele>574</ele>
        <time>2019-04-16T13:56:03Z</time>
      </trkpt>
      <trkpt lat="43.55097" lon="2.83949">
        <ele>574.6</ele>
        <time>2019-04-16T13:56:04Z</time>
      </trkpt>
      <trkpt lat="43.55103" lon="2.83948">
        <ele>575.2</ele>
        <time>2019-04-16T13:56:05Z</time>
      </trkpt>
      <trkpt lat="43.55111" lon="2.83947">
        <ele>575.9</ele>
        <time>2019-04-16T13:56:06Z</time>
      </trkpt>
      <trkpt lat="43.5512" lon="2.83948">
        <ele>576.7</ele>
        <time>2019-04-16T13:56:07Z</time>
      </trkpt>
      <trkpt lat="43.55146" lon="2.83954">
        <ele>580.6</ele>
        <time>2019-04-16T13:56:10Z</time>
      </trkpt>
      <trkpt lat="43.55161" lon="2.83956">
        <ele>582.2</ele>
        <time>2019-04-16T13:56:12Z</time>
      </trkpt>
      <trkpt lat="43.55168" lon="2.83955">
        <ele>582.8</ele>
        <time>2019-04-16T13:56:13Z</time>
      </trkpt>
      <trkpt lat="43.55173" lon="2.83953">
        <ele>583.3</ele>
        <time>2019-04-16T13:56:14Z</time>
      </trkpt>
      <trkpt lat="43.55192" lon="2.83939">
        <ele>585.3</ele>
        <time>2019-04-16T13:56:19Z</time>
      </trkpt>
      <trkpt lat="43.55207" lon="2.83932">
        <ele>586.9</ele>
        <time>2019-04-16T13:56:22Z</time>
      </trkpt>
      <trkpt lat="43.55212" lon="2.83929">
        <ele>587.5</ele>
        <time>2019-04-16T13:56:23Z</time>
      </trkpt>
      <trkpt lat="43.5524" lon="2.83911">
        <ele>591.2</ele>
        <time>2019-04-16T13:56:28Z</time>
      </trkpt>
      <trkpt lat="43.55247" lon="2.83908">
        <ele>592.5</ele>
        <time>2019-04-16T13:56:30Z</time>
      </trkpt>
      <trkpt lat="43.5525" lon="2.83907">
        <ele>593.2</ele>
        <time>2019-04-16T13:56:31Z</time>
      </trkpt>
      <trkpt lat="43.55253" lon="2.83907">
        <ele>593.8</ele>
        <time>2019-04-16T13:56:32Z</time>
      </trkpt>
      <trkpt lat="43.55261" lon="2.83907">
        <ele>594.8</ele>
        <time>2019-04-16T13:56:34Z</time>
      </trkpt>
      <trkpt lat="43.55265" lon="2.83906">
        <ele>595.3</ele>
        <time>2019-04-16T13:56:35Z</time>
      </trkpt>
      <trkpt lat="43.55268" lon="2.83903">
        <ele>595.7</ele>
        <time>2019-04-16T13:56:36Z</time>
      </trkpt>
      <trkpt lat="43.5527" lon="2.839">
        <ele>596.5</ele>
        <time>2019-04-16T13:56:37Z</time>
      </trkpt>
      <trkpt lat="43.55272" lon="2.83896">
        <ele>596.8</ele>
        <time>2019-04-16T13:56:38Z</time>
      </trkpt>
      <trkpt lat="43.55273" lon="2.83894">
        <ele>597.1</ele>
        <time>2019-04-16T13:56:39Z</time>
      </trkpt>
      <trkpt lat="43.55281" lon="2.83866">
        <ele>600.6</ele>
        <time>2019-04-16T13:56:48Z</time>
      </trkpt>
      <trkpt lat="43.55277" lon="2.83859">
        <ele>603.7</ele>
        <time>2019-04-16T13:56:53Z</time>
      </trkpt>
      <trkpt lat="43.55241" lon="2.83858">
        <ele>606.7</ele>
        <time>2019-04-16T13:56:58Z</time>
      </trkpt>
      <trkpt lat="43.55228" lon="2.83855">
        <ele>607.2</ele>
        <time>2019-04-16T13:56:59Z</time>
      </trkpt>
      <trkpt lat="43.55219" lon="2.8385">
        <ele>607.7</ele>
        <time>2019-04-16T13:57:00Z</time>
      </trkpt>
      <trkpt lat="43.55214" lon="2.83842">
        <ele>608.2</ele>
        <time>2019-04-16T13:57:01Z</time>
      </trkpt>
      <trkpt lat="43.55214" lon="2.8383">
        <ele>608.8</ele>
        <time>2019-04-16T13:57:02Z</time>
      </trkpt>
      <trkpt lat="43.55215" lon="2.83799">
        <ele>612.1</ele>
        <time>2019-04-16T13:57:06Z</time>
      </trkpt>
      <trkpt lat="43.55218" lon="2.83791">
        <ele>612.7</ele>
        <time>2019-04-16T13:57:07Z</time>
      </trkpt>
      <trkpt lat="43.55221" lon="2.83784">
        <ele>613.2</ele>
        <time>2019-04-16T13:57:08Z</time>
      </trkpt>
      <trkpt lat="43.55227" lon="2.83777">
        <ele>613.9</ele>
        <time>2019-04-16T13:57:09Z</time>
      </trkpt>
      <trkpt lat="43.55245" lon="2.83731">
        <ele>617.6</ele>
        <time>2019-04-16T13:57:14Z</time>
      </trkpt>
      <trkpt lat="43.55264" lon="2.83685">
        <ele>620.9</ele>
        <time>2019-04-16T13:57:19Z</time>
      </trkpt>
      <trkpt lat="43.55279" lon="2.83652">
        <ele>624</ele>
        <time>2019-04-16T13:57:23Z</time>
      </trkpt>
      <trkpt lat="43.553" lon="2.83609">
        <ele>627.8</ele>
        <time>2019-04-16T13:57:28Z</time>
      </trkpt>
      <trkpt lat="43.55315" lon="2.83592">
        <ele>631.6</ele>
        <time>2019-04-16T13:57:31Z</time>
      </trkpt>
      <trkpt lat="43.55333" lon="2.83568">
        <ele>634.9</ele>
        <time>2019-04-16T13:57:36Z</time>
      </trkpt>
      <trkpt lat="43.55334" lon="2.83565">
        <ele>635.5</ele>
        <time>2019-04-16T13:57:37Z</time>
      </trkpt>
      <trkpt lat="43.55335" lon="2.83564">
        <ele>636</ele>
        <time>2019-04-16T13:57:38Z</time>
      </trkpt>
      <trkpt lat="43.55335" lon="2.83565">
        <ele>636.4</ele>
        <time>2019-04-16T13:57:39Z</time>
      </trkpt>
      <trkpt lat="43.55335" lon="2.83566">
        <ele>636.9</ele>
        <time>2019-04-16T13:57:40Z</time>
      </trkpt>
      <trkpt lat="43.55334" lon="2.83568">
        <ele>637.3</ele>
        <time>2019-04-16T13:57:41Z</time>
      </trkpt>
      <trkpt lat="43.55332" lon="2.83572">
        <ele>637.7</ele>
        <time>2019-04-16T13:57:42Z</time>
      </trkpt>
      <trkpt lat="43.5533" lon="2.83576">
        <ele>638.1</ele>
        <time>2019-04-16T13:57:43Z</time>
      </trkpt>
      <trkpt lat="43.55329" lon="2.83578">
        <ele>638.4</ele>
        <time>2019-04-16T13:57:44Z</time>
      </trkpt>
      <trkpt lat="43.55313" lon="2.83646">
        <ele>641.8</ele>
        <time>2019-04-16T13:57:51Z</time>
      </trkpt>
      <trkpt lat="43.55311" lon="2.83668">
        <ele>643</ele>
        <time>2019-04-16T13:57:53Z</time>
      </trkpt>
      <trkpt lat="43.55312" lon="2.83689">
        <ele>644.6</ele>
        <time>2019-04-16T13:57:55Z</time>
      </trkpt>
      <trkpt lat="43.55315" lon="2.837">
        <ele>645.2</ele>
        <time>2019-04-16T13:57:56Z</time>
      </trkpt>
      <trkpt lat="43.55319" lon="2.83709">
        <ele>645.8</ele>
        <time>2019-04-16T13:57:57Z</time>
      </trkpt>
      <trkpt lat="43.55324" lon="2.83717">
        <ele>646.3</ele>
        <time>2019-04-16T13:57:58Z</time>
      </trkpt>
      <trkpt lat="43.5533" lon="2.83724">
        <ele>647</ele>
        <time>2019-04-16T13:57:59Z</time>
      </trkpt>
      <trkpt lat="43.55337" lon="2.83731">
        <ele>647.5</ele>
        <time>2019-04-16T13:58:00Z</time>
      </trkpt>
      <trkpt lat="43.55344" lon="2.83737">
        <ele>648.2</ele>
        <time>2019-04-16T13:58:01Z</time>
      </trkpt>
      <trkpt lat="43.55351" lon="2.83742">
        <ele>648.8</ele>
        <time>2019-04-16T13:58:02Z</time>
      </trkpt>
      <trkpt lat="43.55358" lon="2.83746">
        <ele>649.4</ele>
        <time>2019-04-16T13:58:03Z</time>
      </trkpt>
      <trkpt lat="43.55365" lon="2.83749">
        <ele>650</ele>
        <time>2019-04-16T13:58:04Z</time>
      </trkpt>
      <trkpt lat="43.55372" lon="2.83751">
        <ele>650.5</ele>
        <time>2019-04-16T13:58:05Z</time>
      </trkpt>
      <trkpt lat="43.55391" lon="2.83754">
        <ele>652.1</ele>
        <time>2019-04-16T13:58:08Z</time>
      </trkpt>
      <trkpt lat="43.55398" lon="2.83752">
        <ele>652.7</ele>
        <time>2019-04-16T13:58:09Z</time>
      </trkpt>
      <trkpt lat="43.55405" lon="2.83748">
        <ele>653.4</ele>
        <time>2019-04-16T13:58:10Z</time>
      </trkpt>
      <trkpt lat="43.55413" lon="2.83742">
        <ele>654.1</ele>
        <time>2019-04-16T13:58:11Z</time>
      </trkpt>
      <trkpt lat="43.5542" lon="2.83735">
        <ele>654.8</ele>
        <time>2019-04-16T13:58:12Z</time>
      </trkpt>
      <trkpt lat="43.55426" lon="2.83728">
        <ele>655.5</ele>
        <time>2019-04-16T13:58:13Z</time>
      </trkpt>
      <trkpt lat="43.55433" lon="2.83719">
        <ele>656.3</ele>
        <time>2019-04-16T13:58:14Z</time>
      </trkpt>
      <trkpt lat="43.55462" lon="2.83689">
        <ele>659.5</ele>
        <time>2019-04-16T13:58:18Z</time>
      </trkpt>
      <trkpt lat="43.55487" lon="2.83669">
        <ele>663.1</ele>
        <time>2019-04-16T13:58:22Z</time>
      </trkpt>
      <trkpt lat="43.55502" lon="2.83664">
        <ele>664.4</ele>
        <time>2019-04-16T13:58:24Z</time>
      </trkpt>
      <trkpt lat="43.55507" lon="2.83663">
        <ele>665.1</ele>
        <time>2019-04-16T13:58:25Z</time>
      </trkpt>
      <trkpt lat="43.55514" lon="2.83664">
        <ele>665.9</ele>
        <time>2019-04-16T13:58:26Z</time>
      </trkpt>
      <trkpt lat="43.5552" lon="2.83665">
        <ele>666.7</ele>
        <time>2019-04-16T13:58:27Z</time>
      </trkpt>
      <trkpt lat="43.55526" lon="2.83667">
        <ele>667.3</ele>
        <time>2019-04-16T13:58:28Z</time>
      </trkpt>
      <trkpt lat="43.55546" lon="2.83673">
        <ele>669.2</ele>
        <time>2019-04-16T13:58:32Z</time>
      </trkpt>
      <trkpt lat="43.55573" lon="2.83682">
        <ele>670.4</ele>
        <time>2019-04-16T13:58:38Z</time>
      </trkpt>
      <trkpt lat="43.55579" lon="2.83683">
        <ele>670.7</ele>
        <time>2019-04-16T13:58:39Z</time>
      </trkpt>
      <trkpt lat="43.55586" lon="2.83681">
        <ele>671</ele>
        <time>2019-04-16T13:58:40Z</time>
      </trkpt>
      <trkpt lat="43.55619" lon="2.83666">
        <ele>674.8</ele>
        <time>2019-04-16T13:58:45Z</time>
      </trkpt>
      <trkpt lat="43.55646" lon="2.83652">
        <ele>678.1</ele>
        <time>2019-04-16T13:58:50Z</time>
      </trkpt>
      <trkpt lat="43.55652" lon="2.83646">
        <ele>679.1</ele>
        <time>2019-04-16T13:58:52Z</time>
      </trkpt>
      <trkpt lat="43.55681" lon="2.83627">
        <ele>682.6</ele>
        <time>2019-04-16T13:58:59Z</time>
      </trkpt>
      <trkpt lat="43.55701" lon="2.8362">
        <ele>684.3</ele>
        <time>2019-04-16T13:59:02Z</time>
      </trkpt>
      <trkpt lat="43.55707" lon="2.8362">
        <ele>684.9</ele>
        <time>2019-04-16T13:59:03Z</time>
      </trkpt>
      <trkpt lat="43.55714" lon="2.83621">
        <ele>685.6</ele>
        <time>2019-04-16T13:59:04Z</time>
      </trkpt>
      <trkpt lat="43.55721" lon="2.83623">
        <ele>686.3</ele>
        <time>2019-04-16T13:59:05Z</time>
      </trkpt>
      <trkpt lat="43.55726" lon="2.83626">
        <ele>687.1</ele>
        <time>2019-04-16T13:59:06Z</time>
      </trkpt>
      <trkpt lat="43.55733" lon="2.8363">
        <ele>687.8</ele>
        <time>2019-04-16T13:59:07Z</time>
      </trkpt>
      <trkpt lat="43.5574" lon="2.83632">
        <ele>688.5</ele>
        <time>2019-04-16T13:59:08Z</time>
      </trkpt>
      <trkpt lat="43.55748" lon="2.83632">
        <ele>689.7</ele>
        <time>2019-04-16T13:59:09Z</time>
      </trkpt>
      <trkpt lat="43.55753" lon="2.83632">
        <ele>690.1</ele>
        <time>2019-04-16T13:59:10Z</time>
      </trkpt>
      <trkpt lat="43.55792" lon="2.83639">
        <ele>693.3</ele>
        <time>2019-04-16T13:59:18Z</time>
      </trkpt>
      <trkpt lat="43.55809" lon="2.83653">
        <ele>694.8</ele>
        <time>2019-04-16T13:59:24Z</time>
      </trkpt>
      <trkpt lat="43.55813" lon="2.83658">
        <ele>695</ele>
        <time>2019-04-16T13:59:25Z</time>
      </trkpt>
      <trkpt lat="43.55827" lon="2.83671">
        <ele>695.2</ele>
        <time>2019-04-16T13:59:27Z</time>
      </trkpt>
      <trkpt lat="43.55835" lon="2.83682">
        <ele>695.5</ele>
        <time>2019-04-16T13:59:28Z</time>
      </trkpt>
      <trkpt lat="43.55838" lon="2.83693">
        <ele>695.7</ele>
        <time>2019-04-16T13:59:29Z</time>
      </trkpt>
      <trkpt lat="43.55839" lon="2.83707">
        <ele>695.7</ele>
        <time>2019-04-16T13:59:30Z</time>
      </trkpt>
      <trkpt lat="43.55837" lon="2.83719">
        <ele>695.7</ele>
        <time>2019-04-16T13:59:31Z</time>
      </trkpt>
      <trkpt lat="43.55832" lon="2.83729">
        <ele>695.7</ele>
        <time>2019-04-16T13:59:32Z</time>
      </trkpt>
      <trkpt lat="43.55826" lon="2.83739">
        <ele>695.5</ele>
        <time>2019-04-16T13:59:33Z</time>
      </trkpt>
      <trkpt lat="43.55824" lon="2.83747">
        <ele>695</ele>
        <time>2019-04-16T13:59:34Z</time>
      </trkpt>
      <trkpt lat="43.55819" lon="2.83775">
        <ele>693.3</ele>
        <time>2019-04-16T13:59:38Z</time>
      </trkpt>
      <trkpt lat="43.55815" lon="2.83784">
        <ele>693.2</ele>
        <time>2019-04-16T13:59:39Z</time>
      </trkpt>
      <trkpt lat="43.55804" lon="2.83796">
        <ele>693.3</ele>
        <time>2019-04-16T13:59:40Z</time>
      </trkpt>
      <trkpt lat="43.55793" lon="2.83812">
        <ele>693.3</ele>
        <time>2019-04-16T13:59:41Z</time>
      </trkpt>
      <trkpt lat="43.55791" lon="2.83825">
        <ele>693.4</ele>
        <time>2019-04-16T13:59:42Z</time>
      </trkpt>
      <trkpt lat="43.55772" lon="2.83965">
        <ele>695.4</ele>
        <time>2019-04-16T13:59:51Z</time>
      </trkpt>
      <trkpt lat="43.55776" lon="2.83986">
        <ele>695.8</ele>
        <time>2019-04-16T13:59:53Z</time>
      </trkpt>
      <trkpt lat="43.55784" lon="2.83994">
        <ele>696</ele>
        <time>2019-04-16T13:59:54Z</time>
      </trkpt>
      <trkpt lat="43.5579" lon="2.84002">
        <ele>696.4</ele>
        <time>2019-04-16T13:59:55Z</time>
      </trkpt>
      <trkpt lat="43.55796" lon="2.8401">
        <ele>696.6</ele>
        <time>2019-04-16T13:59:56Z</time>
      </trkpt>
      <trkpt lat="43.55803" lon="2.84015">
        <ele>697.3</ele>
        <time>2019-04-16T13:59:57Z</time>
      </trkpt>
      <trkpt lat="43.55808" lon="2.8402">
        <ele>697.3</ele>
        <time>2019-04-16T13:59:58Z</time>
      </trkpt>
      <trkpt lat="43.55813" lon="2.84023">
        <ele>698</ele>
        <time>2019-04-16T13:59:59Z</time>
      </trkpt>
      <trkpt lat="43.55825" lon="2.84022">
        <ele>699</ele>
        <time>2019-04-16T14:00:00Z</time>
      </trkpt>
      <trkpt lat="43.55835" lon="2.84022">
        <ele>700</ele>
        <time>2019-04-16T14:00:01Z</time>
      </trkpt>
      <trkpt lat="43.55844" lon="2.84023">
        <ele>700.8</ele>
        <time>2019-04-16T14:00:02Z</time>
      </trkpt>
      <trkpt lat="43.55888" lon="2.84036">
        <ele>704.3</ele>
        <time>2019-04-16T14:00:07Z</time>
      </trkpt>
      <trkpt lat="43.55889" lon="2.84035">
        <ele>705</ele>
        <time>2019-04-16T14:00:08Z</time>
      </trkpt>
      <trkpt lat="43.55888" lon="2.84034">
        <ele>705.7</ele>
        <time>2019-04-16T14:00:09Z</time>
      </trkpt>
      <trkpt lat="43.55925" lon="2.84042">
        <ele>708.4</ele>
        <time>2019-04-16T14:00:19Z</time>
      </trkpt>
      <trkpt lat="43.55935" lon="2.84046">
        <ele>708.9</ele>
        <time>2019-04-16T14:00:20Z</time>
      </trkpt>
      <trkpt lat="43.55943" lon="2.84051">
        <ele>709.5</ele>
        <time>2019-04-16T14:00:21Z</time>
      </trkpt>
      <trkpt lat="43.55984" lon="2.84087">
        <ele>713.8</ele>
        <time>2019-04-16T14:00:26Z</time>
      </trkpt>
      <trkpt lat="43.56016" lon="2.84149">
        <ele>717.3</ele>
        <time>2019-04-16T14:00:32Z</time>
      </trkpt>
      <trkpt lat="43.56032" lon="2.84191">
        <ele>720.3</ele>
        <time>2019-04-16T14:00:36Z</time>
      </trkpt>
      <trkpt lat="43.56051" lon="2.84228">
        <ele>723.3</ele>
        <time>2019-04-16T14:00:41Z</time>
      </trkpt>
      <trkpt lat="43.56057" lon="2.84229">
        <ele>723.9</ele>
        <time>2019-04-16T14:00:42Z</time>
      </trkpt>
      <trkpt lat="43.56062" lon="2.84231">
        <ele>724.5</ele>
        <time>2019-04-16T14:00:43Z</time>
      </trkpt>
      <trkpt lat="43.56066" lon="2.8423">
        <ele>725.1</ele>
        <time>2019-04-16T14:00:44Z</time>
      </trkpt>
      <trkpt lat="43.56069" lon="2.84228">
        <ele>725.6</ele>
        <time>2019-04-16T14:00:45Z</time>
      </trkpt>
      <trkpt lat="43.56072" lon="2.84224">
        <ele>726.1</ele>
        <time>2019-04-16T14:00:46Z</time>
      </trkpt>
      <trkpt lat="43.56074" lon="2.84221">
        <ele>726.6</ele>
        <time>2019-04-16T14:00:47Z</time>
      </trkpt>
      <trkpt lat="43.56074" lon="2.84218">
        <ele>727.1</ele>
        <time>2019-04-16T14:00:48Z</time>
      </trkpt>
      <trkpt lat="43.56072" lon="2.84214">
        <ele>727.6</ele>
        <time>2019-04-16T14:00:49Z</time>
      </trkpt>
      <trkpt lat="43.56068" lon="2.8421">
        <ele>728.6</ele>
        <time>2019-04-16T14:00:50Z</time>
      </trkpt>
      <trkpt lat="43.56066" lon="2.84205">
        <ele>729.2</ele>
        <time>2019-04-16T14:00:51Z</time>
      </trkpt>
      <trkpt lat="43.56065" lon="2.84199">
        <ele>730</ele>
        <time>2019-04-16T14:00:52Z</time>
      </trkpt>
      <trkpt lat="43.56064" lon="2.84192">
        <ele>730.6</ele>
        <time>2019-04-16T14:00:53Z</time>
      </trkpt>
      <trkpt lat="43.56061" lon="2.84139">
        <ele>734</ele>
        <time>2019-04-16T14:00:59Z</time>
      </trkpt>
      <trkpt lat="43.56061" lon="2.84088">
        <ele>737.3</ele>
        <time>2019-04-16T14:01:03Z</time>
      </trkpt>
      <trkpt lat="43.5605" lon="2.84023">
        <ele>740.4</ele>
        <time>2019-04-16T14:01:08Z</time>
      </trkpt>
      <trkpt lat="43.56036" lon="2.83987">
        <ele>742.4</ele>
        <time>2019-04-16T14:01:12Z</time>
      </trkpt>
      <trkpt lat="43.56029" lon="2.8398">
        <ele>742.6</ele>
        <time>2019-04-16T14:01:13Z</time>
      </trkpt>
      <trkpt lat="43.56023" lon="2.83974">
        <ele>742.8</ele>
        <time>2019-04-16T14:01:14Z</time>
      </trkpt>
      <trkpt lat="43.56015" lon="2.83966">
        <ele>743.2</ele>
        <time>2019-04-16T14:01:15Z</time>
      </trkpt>
      <trkpt lat="43.56006" lon="2.8396">
        <ele>743.5</ele>
        <time>2019-04-16T14:01:16Z</time>
      </trkpt>
      <trkpt lat="43.55998" lon="2.83954">
        <ele>743.9</ele>
        <time>2019-04-16T14:01:17Z</time>
      </trkpt>
      <trkpt lat="43.5599" lon="2.83949">
        <ele>744.3</ele>
        <time>2019-04-16T14:01:18Z</time>
      </trkpt>
      <trkpt lat="43.55953" lon="2.83923">
        <ele>745.7</ele>
        <time>2019-04-16T14:01:24Z</time>
      </trkpt>
      <trkpt lat="43.55924" lon="2.83894">
        <ele>748.4</ele>
        <time>2019-04-16T14:01:35Z</time>
      </trkpt>
      <trkpt lat="43.5591" lon="2.83853">
        <ele>751.9</ele>
        <time>2019-04-16T14:01:42Z</time>
      </trkpt>
      <trkpt lat="43.55876" lon="2.83799">
        <ele>755</ele>
        <time>2019-04-16T14:01:47Z</time>
      </trkpt>
      <trkpt lat="43.55874" lon="2.83786">
        <ele>755.6</ele>
        <time>2019-04-16T14:01:48Z</time>
      </trkpt>
      <trkpt lat="43.55873" lon="2.83772">
        <ele>756.1</ele>
        <time>2019-04-16T14:01:49Z</time>
      </trkpt>
      <trkpt lat="43.55873" lon="2.83761">
        <ele>756.7</ele>
        <time>2019-04-16T14:01:50Z</time>
      </trkpt>
      <trkpt lat="43.55875" lon="2.83748">
        <ele>757.3</ele>
        <time>2019-04-16T14:01:51Z</time>
      </trkpt>
      <trkpt lat="43.55879" lon="2.83736">
        <ele>757.9</ele>
        <time>2019-04-16T14:01:52Z</time>
      </trkpt>
      <trkpt lat="43.55883" lon="2.83724">
        <ele>758.6</ele>
        <time>2019-04-16T14:01:53Z</time>
      </trkpt>
      <trkpt lat="43.55887" lon="2.83712">
        <ele>759.3</ele>
        <time>2019-04-16T14:01:54Z</time>
      </trkpt>
      <trkpt lat="43.55899" lon="2.8367">
        <ele>762.5</ele>
        <time>2019-04-16T14:01:58Z</time>
      </trkpt>
      <trkpt lat="43.55913" lon="2.83616">
        <ele>766.5</ele>
        <time>2019-04-16T14:02:03Z</time>
      </trkpt>
      <trkpt lat="43.55915" lon="2.83603">
        <ele>766.5</ele>
        <time>2019-04-16T14:02:04Z</time>
      </trkpt>
      <trkpt lat="43.55919" lon="2.83558">
        <ele>770.2</ele>
        <time>2019-04-16T14:02:08Z</time>
      </trkpt>
      <trkpt lat="43.55917" lon="2.83551">
        <ele>770.9</ele>
        <time>2019-04-16T14:02:09Z</time>
      </trkpt>
      <trkpt lat="43.55915" lon="2.83545">
        <ele>771.5</ele>
        <time>2019-04-16T14:02:10Z</time>
      </trkpt>
      <trkpt lat="43.55921" lon="2.83508">
        <ele>774</ele>
        <time>2019-04-16T14:02:17Z</time>
      </trkpt>
      <trkpt lat="43.55924" lon="2.83502">
        <ele>774.5</ele>
        <time>2019-04-16T14:02:18Z</time>
      </trkpt>
      <trkpt lat="43.55928" lon="2.83496">
        <ele>775</ele>
        <time>2019-04-16T14:02:19Z</time>
      </trkpt>
      <trkpt lat="43.55935" lon="2.83475">
        <ele>778</ele>
        <time>2019-04-16T14:02:24Z</time>
      </trkpt>
      <trkpt lat="43.55931" lon="2.83458">
        <ele>779.9</ele>
        <time>2019-04-16T14:02:28Z</time>
      </trkpt>
      <trkpt lat="43.55864" lon="2.83434">
        <ele>781.2</ele>
        <time>2019-04-16T14:02:44Z</time>
      </trkpt>
      <trkpt lat="43.55854" lon="2.83434">
        <ele>781.1</ele>
        <time>2019-04-16T14:02:45Z</time>
      </trkpt>
      <trkpt lat="43.55777" lon="2.8343">
        <ele>782.8</ele>
        <time>2019-04-16T14:02:53Z</time>
      </trkpt>
      <trkpt lat="43.55712" lon="2.83407">
        <ele>783.5</ele>
        <time>2019-04-16T14:02:59Z</time>
      </trkpt>
      <trkpt lat="43.55703" lon="2.83399">
        <ele>783.5</ele>
        <time>2019-04-16T14:03:00Z</time>
      </trkpt>
      <trkpt lat="43.5569" lon="2.83379">
        <ele>783.7</ele>
        <time>2019-04-16T14:03:02Z</time>
      </trkpt>
      <trkpt lat="43.5568" lon="2.83356">
        <ele>784.5</ele>
        <time>2019-04-16T14:03:04Z</time>
      </trkpt>
      <trkpt lat="43.55676" lon="2.83344">
        <ele>785.1</ele>
        <time>2019-04-16T14:03:05Z</time>
      </trkpt>
      <trkpt lat="43.55673" lon="2.83332">
        <ele>785.8</ele>
        <time>2019-04-16T14:03:06Z</time>
      </trkpt>
      <trkpt lat="43.55669" lon="2.83322">
        <ele>786.5</ele>
        <time>2019-04-16T14:03:07Z</time>
      </trkpt>
      <trkpt lat="43.55667" lon="2.83314">
        <ele>787.2</ele>
        <time>2019-04-16T14:03:08Z</time>
      </trkpt>
      <trkpt lat="43.55664" lon="2.83306">
        <ele>787.9</ele>
        <time>2019-04-16T14:03:09Z</time>
      </trkpt>
      <trkpt lat="43.55657" lon="2.83246">
        <ele>791.4</ele>
        <time>2019-04-16T14:03:16Z</time>
      </trkpt>
      <trkpt lat="43.55656" lon="2.83198">
        <ele>794.8</ele>
        <time>2019-04-16T14:03:20Z</time>
      </trkpt>
      <trkpt lat="43.55653" lon="2.83188">
        <ele>795.6</ele>
        <time>2019-04-16T14:03:21Z</time>
      </trkpt>
      <trkpt lat="43.55649" lon="2.83174">
        <ele>797.1</ele>
        <time>2019-04-16T14:03:23Z</time>
      </trkpt>
      <trkpt lat="43.55649" lon="2.83172">
        <ele>797.8</ele>
        <time>2019-04-16T14:03:24Z</time>
      </trkpt>
      <trkpt lat="43.55646" lon="2.83176">
        <ele>799</ele>
        <time>2019-04-16T14:03:26Z</time>
      </trkpt>
      <trkpt lat="43.55645" lon="2.8318">
        <ele>799.5</ele>
        <time>2019-04-16T14:03:27Z</time>
      </trkpt>
      <trkpt lat="43.55642" lon="2.83185">
        <ele>799.9</ele>
        <time>2019-04-16T14:03:28Z</time>
      </trkpt>
      <trkpt lat="43.55642" lon="2.83192">
        <ele>800.3</ele>
        <time>2019-04-16T14:03:29Z</time>
      </trkpt>
      <trkpt lat="43.55643" lon="2.832">
        <ele>800.6</ele>
        <time>2019-04-16T14:03:30Z</time>
      </trkpt>
      <trkpt lat="43.55642" lon="2.83208">
        <ele>800.9</ele>
        <time>2019-04-16T14:03:31Z</time>
      </trkpt>
      <trkpt lat="43.55645" lon="2.83218">
        <ele>801.3</ele>
        <time>2019-04-16T14:03:32Z</time>
      </trkpt>
      <trkpt lat="43.5565" lon="2.83229">
        <ele>801.8</ele>
        <time>2019-04-16T14:03:33Z</time>
      </trkpt>
      <trkpt lat="43.55655" lon="2.83241">
        <ele>802.3</ele>
        <time>2019-04-16T14:03:34Z</time>
      </trkpt>
      <trkpt lat="43.5566" lon="2.83251">
        <ele>803</ele>
        <time>2019-04-16T14:03:35Z</time>
      </trkpt>
      <trkpt lat="43.55664" lon="2.83261">
        <ele>803.7</ele>
        <time>2019-04-16T14:03:36Z</time>
      </trkpt>
      <trkpt lat="43.55683" lon="2.83291">
        <ele>806.1</ele>
        <time>2019-04-16T14:03:39Z</time>
      </trkpt>
      <trkpt lat="43.55691" lon="2.833">
        <ele>806.7</ele>
        <time>2019-04-16T14:03:40Z</time>
      </trkpt>
      <trkpt lat="43.55699" lon="2.83309">
        <ele>807.4</ele>
        <time>2019-04-16T14:03:41Z</time>
      </trkpt>
      <trkpt lat="43.55707" lon="2.83316">
        <ele>808.8</ele>
        <time>2019-04-16T14:03:42Z</time>
      </trkpt>
      <trkpt lat="43.55716" lon="2.83321">
        <ele>809.6</ele>
        <time>2019-04-16T14:03:43Z</time>
      </trkpt>
      <trkpt lat="43.55724" lon="2.83325">
        <ele>810.5</ele>
        <time>2019-04-16T14:03:44Z</time>
      </trkpt>
      <trkpt lat="43.55732" lon="2.83328">
        <ele>811.3</ele>
        <time>2019-04-16T14:03:45Z</time>
      </trkpt>
      <trkpt lat="43.55759" lon="2.8334">
        <ele>814.5</ele>
        <time>2019-04-16T14:03:49Z</time>
      </trkpt>
      <trkpt lat="43.55765" lon="2.83343">
        <ele>815.4</ele>
        <time>2019-04-16T14:03:50Z</time>
      </trkpt>
      <trkpt lat="43.55772" lon="2.83343">
        <ele>816</ele>
        <time>2019-04-16T14:03:51Z</time>
      </trkpt>
      <trkpt lat="43.55779" lon="2.83341">
        <ele>816.6</ele>
        <time>2019-04-16T14:03:52Z</time>
      </trkpt>
      <trkpt lat="43.55791" lon="2.83329">
        <ele>818.2</ele>
        <time>2019-04-16T14:03:57Z</time>
      </trkpt>
      <trkpt lat="43.55789" lon="2.83319">
        <ele>819.6</ele>
        <time>2019-04-16T14:03:59Z</time>
      </trkpt>
      <trkpt lat="43.55788" lon="2.83311">
        <ele>820.3</ele>
        <time>2019-04-16T14:04:00Z</time>
      </trkpt>
      <trkpt lat="43.55786" lon="2.83302">
        <ele>820.9</ele>
        <time>2019-04-16T14:04:01Z</time>
      </trkpt>
      <trkpt lat="43.55767" lon="2.83287">
        <ele>821.6</ele>
        <time>2019-04-16T14:04:02Z</time>
      </trkpt>
      <trkpt lat="43.55761" lon="2.83277">
        <ele>822.9</ele>
        <time>2019-04-16T14:04:03Z</time>
      </trkpt>
      <trkpt lat="43.55751" lon="2.83265">
        <ele>822.9</ele>
        <time>2019-04-16T14:04:04Z</time>
      </trkpt>
      <trkpt lat="43.55735" lon="2.83219">
        <ele>826.4</ele>
        <time>2019-04-16T14:04:09Z</time>
      </trkpt>
      <trkpt lat="43.55727" lon="2.83159">
        <ele>829.9</ele>
        <time>2019-04-16T14:04:14Z</time>
      </trkpt>
      <trkpt lat="43.55728" lon="2.8313">
        <ele>833.1</ele>
        <time>2019-04-16T14:04:20Z</time>
      </trkpt>
      <trkpt lat="43.55735" lon="2.83092">
        <ele>836.4</ele>
        <time>2019-04-16T14:04:28Z</time>
      </trkpt>
      <trkpt lat="43.55729" lon="2.83065">
        <ele>839.8</ele>
        <time>2019-04-16T14:04:35Z</time>
      </trkpt>
      <trkpt lat="43.55701" lon="2.83038">
        <ele>843.1</ele>
        <time>2019-04-16T14:04:41Z</time>
      </trkpt>
      <trkpt lat="43.55666" lon="2.83006">
        <ele>845.3</ele>
        <time>2019-04-16T14:04:46Z</time>
      </trkpt>
      <trkpt lat="43.5566" lon="2.83001">
        <ele>845.7</ele>
        <time>2019-04-16T14:04:47Z</time>
      </trkpt>
      <trkpt lat="43.55653" lon="2.82996">
        <ele>846.2</ele>
        <time>2019-04-16T14:04:48Z</time>
      </trkpt>
      <trkpt lat="43.55636" lon="2.8298">
        <ele>847.3</ele>
        <time>2019-04-16T14:04:51Z</time>
      </trkpt>
      <trkpt lat="43.55586" lon="2.82947">
        <ele>850.9</ele>
        <time>2019-04-16T14:04:57Z</time>
      </trkpt>
      <trkpt lat="43.55555" lon="2.8291">
        <ele>853.7</ele>
        <time>2019-04-16T14:05:01Z</time>
      </trkpt>
      <trkpt lat="43.55553" lon="2.82899">
        <ele>854.6</ele>
        <time>2019-04-16T14:05:02Z</time>
      </trkpt>
      <trkpt lat="43.55549" lon="2.82886">
        <ele>855.6</ele>
        <time>2019-04-16T14:05:03Z</time>
      </trkpt>
      <trkpt lat="43.55532" lon="2.8284">
        <ele>859</ele>
        <time>2019-04-16T14:05:07Z</time>
      </trkpt>
      <trkpt lat="43.5553" lon="2.828">
        <ele>861.6</ele>
        <time>2019-04-16T14:05:10Z</time>
      </trkpt>
      <trkpt lat="43.55531" lon="2.82787">
        <ele>862.4</ele>
        <time>2019-04-16T14:05:11Z</time>
      </trkpt>
      <trkpt lat="43.55551" lon="2.82717">
        <ele>865.7</ele>
        <time>2019-04-16T14:05:16Z</time>
      </trkpt>
      <trkpt lat="43.55557" lon="2.82654">
        <ele>869.1</ele>
        <time>2019-04-16T14:05:22Z</time>
      </trkpt>
      <trkpt lat="43.55565" lon="2.8259">
        <ele>872</ele>
        <time>2019-04-16T14:05:29Z</time>
      </trkpt>
      <trkpt lat="43.55568" lon="2.82579">
        <ele>872.5</ele>
        <time>2019-04-16T14:05:30Z</time>
      </trkpt>
      <trkpt lat="43.55572" lon="2.82567">
        <ele>872.9</ele>
        <time>2019-04-16T14:05:31Z</time>
      </trkpt>
      <trkpt lat="43.55591" lon="2.82492">
        <ele>875.9</ele>
        <time>2019-04-16T14:05:37Z</time>
      </trkpt>
      <trkpt lat="43.55592" lon="2.82485">
        <ele>876.4</ele>
        <time>2019-04-16T14:05:38Z</time>
      </trkpt>
      <trkpt lat="43.55593" lon="2.82477">
        <ele>876.7</ele>
        <time>2019-04-16T14:05:39Z</time>
      </trkpt>
      <trkpt lat="43.55592" lon="2.82458">
        <ele>877.3</ele>
        <time>2019-04-16T14:05:41Z</time>
      </trkpt>
      <trkpt lat="43.55593" lon="2.8239">
        <ele>879</ele>
        <time>2019-04-16T14:05:47Z</time>
      </trkpt>
      <trkpt lat="43.55595" lon="2.82375">
        <ele>879.3</ele>
        <time>2019-04-16T14:05:49Z</time>
      </trkpt>
      <trkpt lat="43.55606" lon="2.82303">
        <ele>881.2</ele>
        <time>2019-04-16T14:05:55Z</time>
      </trkpt>
      <trkpt lat="43.55619" lon="2.82265">
        <ele>881.9</ele>
        <time>2019-04-16T14:05:59Z</time>
      </trkpt>
      <trkpt lat="43.55624" lon="2.82254">
        <ele>882.1</ele>
        <time>2019-04-16T14:06:00Z</time>
      </trkpt>
      <trkpt lat="43.55631" lon="2.82246">
        <ele>882.2</ele>
        <time>2019-04-16T14:06:01Z</time>
      </trkpt>
      <trkpt lat="43.55638" lon="2.82239">
        <ele>882.3</ele>
        <time>2019-04-16T14:06:02Z</time>
      </trkpt>
      <trkpt lat="43.55645" lon="2.82233">
        <ele>882.6</ele>
        <time>2019-04-16T14:06:03Z</time>
      </trkpt>
      <trkpt lat="43.55652" lon="2.82227">
        <ele>883</ele>
        <time>2019-04-16T14:06:04Z</time>
      </trkpt>
      <trkpt lat="43.55674" lon="2.822">
        <ele>884</ele>
        <time>2019-04-16T14:06:08Z</time>
      </trkpt>
      <trkpt lat="43.55672" lon="2.82192">
        <ele>884.2</ele>
        <time>2019-04-16T14:06:09Z</time>
      </trkpt>
      <trkpt lat="43.55671" lon="2.82185">
        <ele>884.2</ele>
        <time>2019-04-16T14:06:10Z</time>
      </trkpt>
      <trkpt lat="43.55671" lon="2.82178">
        <ele>884.6</ele>
        <time>2019-04-16T14:06:11Z</time>
      </trkpt>
      <trkpt lat="43.55667" lon="2.82173">
        <ele>884.7</ele>
        <time>2019-04-16T14:06:12Z</time>
      </trkpt>
      <trkpt lat="43.55665" lon="2.82166">
        <ele>884.8</ele>
        <time>2019-04-16T14:06:13Z</time>
      </trkpt>
      <trkpt lat="43.55662" lon="2.8216">
        <ele>884.9</ele>
        <time>2019-04-16T14:06:14Z</time>
      </trkpt>
      <trkpt lat="43.55659" lon="2.82152">
        <ele>885</ele>
        <time>2019-04-16T14:06:15Z</time>
      </trkpt>
      <trkpt lat="43.55623" lon="2.82082">
        <ele>887.7</ele>
        <time>2019-04-16T14:06:24Z</time>
      </trkpt>
      <trkpt lat="43.55623" lon="2.82075">
        <ele>887.8</ele>
        <time>2019-04-16T14:06:25Z</time>
      </trkpt>
      <trkpt lat="43.55622" lon="2.82067">
        <ele>888</ele>
        <time>2019-04-16T14:06:26Z</time>
      </trkpt>
      <trkpt lat="43.55622" lon="2.8206">
        <ele>888.2</ele>
        <time>2019-04-16T14:06:27Z</time>
      </trkpt>
      <trkpt lat="43.55624" lon="2.82049">
        <ele>888.4</ele>
        <time>2019-04-16T14:06:28Z</time>
      </trkpt>
      <trkpt lat="43.55626" lon="2.82038">
        <ele>888.7</ele>
        <time>2019-04-16T14:06:29Z</time>
      </trkpt>
      <trkpt lat="43.55627" lon="2.82028">
        <ele>889.1</ele>
        <time>2019-04-16T14:06:30Z</time>
      </trkpt>
      <trkpt lat="43.55628" lon="2.82018">
        <ele>889.5</ele>
        <time>2019-04-16T14:06:31Z</time>
      </trkpt>
      <trkpt lat="43.55628" lon="2.82">
        <ele>890.8</ele>
        <time>2019-04-16T14:06:33Z</time>
      </trkpt>
      <trkpt lat="43.55627" lon="2.81994">
        <ele>890.8</ele>
        <time>2019-04-16T14:06:34Z</time>
      </trkpt>
      <trkpt lat="43.55626" lon="2.81988">
        <ele>891.6</ele>
        <time>2019-04-16T14:06:35Z</time>
      </trkpt>
      <trkpt lat="43.55626" lon="2.81919">
        <ele>894.8</ele>
        <time>2019-04-16T14:06:46Z</time>
      </trkpt>
      <trkpt lat="43.55624" lon="2.81911">
        <ele>895.1</ele>
        <time>2019-04-16T14:06:47Z</time>
      </trkpt>
      <trkpt lat="43.55616" lon="2.81879">
        <ele>896.3</ele>
        <time>2019-04-16T14:06:50Z</time>
      </trkpt>
      <trkpt lat="43.5561" lon="2.81866">
        <ele>896.7</ele>
        <time>2019-04-16T14:06:51Z</time>
      </trkpt>
      <trkpt lat="43.55597" lon="2.81801">
        <ele>899.9</ele>
        <time>2019-04-16T14:06:56Z</time>
      </trkpt>
      <trkpt lat="43.55592" lon="2.8178">
        <ele>901</ele>
        <time>2019-04-16T14:06:58Z</time>
      </trkpt>
      <trkpt lat="43.55578" lon="2.81728">
        <ele>904.5</ele>
        <time>2019-04-16T14:07:03Z</time>
      </trkpt>
      <trkpt lat="43.55561" lon="2.8168">
        <ele>907.5</ele>
        <time>2019-04-16T14:07:08Z</time>
      </trkpt>
      <trkpt lat="43.55535" lon="2.8163">
        <ele>910.6</ele>
        <time>2019-04-16T14:07:14Z</time>
      </trkpt>
      <trkpt lat="43.5549" lon="2.81567">
        <ele>914</ele>
        <time>2019-04-16T14:07:23Z</time>
      </trkpt>
      <trkpt lat="43.5546" lon="2.81535">
        <ele>917.1</ele>
        <time>2019-04-16T14:07:28Z</time>
      </trkpt>
      <trkpt lat="43.55449" lon="2.81506">
        <ele>920.1</ele>
        <time>2019-04-16T14:07:34Z</time>
      </trkpt>
      <trkpt lat="43.55421" lon="2.81466">
        <ele>922.5</ele>
        <time>2019-04-16T14:07:41Z</time>
      </trkpt>
      <trkpt lat="43.55418" lon="2.81441">
        <ele>922.8</ele>
        <time>2019-04-16T14:07:44Z</time>
      </trkpt>
      <trkpt lat="43.55408" lon="2.81387">
        <ele>924.4</ele>
        <time>2019-04-16T14:07:54Z</time>
      </trkpt>
      <trkpt lat="43.55401" lon="2.81301">
        <ele>927.4</ele>
        <time>2019-04-16T14:08:05Z</time>
      </trkpt>
      <trkpt lat="43.55395" lon="2.8124">
        <ele>930.4</ele>
        <time>2019-04-16T14:08:10Z</time>
      </trkpt>
      <trkpt lat="43.55386" lon="2.81189">
        <ele>933.9</ele>
        <time>2019-04-16T14:08:15Z</time>
      </trkpt>
      <trkpt lat="43.55367" lon="2.81142">
        <ele>937.1</ele>
        <time>2019-04-16T14:08:23Z</time>
      </trkpt>
      <trkpt lat="43.55346" lon="2.81183">
        <ele>937.4</ele>
        <time>2019-04-16T14:08:24Z</time>
      </trkpt>
      <trkpt lat="43.55325" lon="2.81162">
        <ele>939.7</ele>
        <time>2019-04-16T14:08:30Z</time>
      </trkpt>
      <trkpt lat="43.55314" lon="2.8115">
        <ele>940.4</ele>
        <time>2019-04-16T14:08:33Z</time>
      </trkpt>
      <trkpt lat="43.55293" lon="2.81113">
        <ele>943.5</ele>
        <time>2019-04-16T14:08:41Z</time>
      </trkpt>
      <trkpt lat="43.55278" lon="2.80931">
        <ele>944.2</ele>
        <time>2019-04-16T14:08:43Z</time>
      </trkpt>
      <trkpt lat="43.55247" lon="2.80844">
        <ele>947.3</ele>
        <time>2019-04-16T14:08:52Z</time>
      </trkpt>
      <trkpt lat="43.55231" lon="2.80797">
        <ele>950.4</ele>
        <time>2019-04-16T14:08:59Z</time>
      </trkpt>
      <trkpt lat="43.5522" lon="2.80755">
        <ele>953.5</ele>
        <time>2019-04-16T14:09:06Z</time>
      </trkpt>
      <trkpt lat="43.55192" lon="2.80695">
        <ele>956.6</ele>
        <time>2019-04-16T14:09:14Z</time>
      </trkpt>
      <trkpt lat="43.55158" lon="2.80639">
        <ele>959.8</ele>
        <time>2019-04-16T14:09:24Z</time>
      </trkpt>
      <trkpt lat="43.55126" lon="2.80577">
        <ele>962.8</ele>
        <time>2019-04-16T14:09:34Z</time>
      </trkpt>
      <trkpt lat="43.55136" lon="2.80543">
        <ele>964.3</ele>
        <time>2019-04-16T14:09:40Z</time>
      </trkpt>
      <trkpt lat="43.55133" lon="2.80537">
        <ele>964.6</ele>
        <time>2019-04-16T14:09:41Z</time>
      </trkpt>
      <trkpt lat="43.55111" lon="2.80485">
        <ele>967.6</ele>
        <time>2019-04-16T14:09:48Z</time>
      </trkpt>
      <trkpt lat="43.55098" lon="2.80432">
        <ele>970.6</ele>
        <time>2019-04-16T14:09:58Z</time>
      </trkpt>
      <trkpt lat="43.55093" lon="2.80354">
        <ele>973.6</ele>
        <time>2019-04-16T14:10:06Z</time>
      </trkpt>
      <trkpt lat="43.55085" lon="2.80271">
        <ele>976.7</ele>
        <time>2019-04-16T14:10:14Z</time>
      </trkpt>
      <trkpt lat="43.55088" lon="2.80259">
        <ele>977.2</ele>
        <time>2019-04-16T14:10:15Z</time>
      </trkpt>
      <trkpt lat="43.55092" lon="2.80199">
        <ele>980.2</ele>
        <time>2019-04-16T14:10:22Z</time>
      </trkpt>
      <trkpt lat="43.55097" lon="2.80191">
        <ele>980.5</ele>
        <time>2019-04-16T14:10:23Z</time>
      </trkpt>
      <trkpt lat="43.55102" lon="2.80182">
        <ele>980.9</ele>
        <time>2019-04-16T14:10:24Z</time>
      </trkpt>
      <trkpt lat="43.55119" lon="2.8011">
        <ele>983.9</ele>
        <time>2019-04-16T14:10:33Z</time>
      </trkpt>
      <trkpt lat="43.55144" lon="2.80028">
        <ele>987</ele>
        <time>2019-04-16T14:10:43Z</time>
      </trkpt>
      <trkpt lat="43.5517" lon="2.79964">
        <ele>990.5</ele>
        <time>2019-04-16T14:10:51Z</time>
      </trkpt>
      <trkpt lat="43.55193" lon="2.79903">
        <ele>993.5</ele>
        <time>2019-04-16T14:10:59Z</time>
      </trkpt>
      <trkpt lat="43.55198" lon="2.79899">
        <ele>993.5</ele>
        <time>2019-04-16T14:11:00Z</time>
      </trkpt>
      <trkpt lat="43.55204" lon="2.79889">
        <ele>993.4</ele>
        <time>2019-04-16T14:11:02Z</time>
      </trkpt>
      <trkpt lat="43.55208" lon="2.79885">
        <ele>993.2</ele>
        <time>2019-04-16T14:11:03Z</time>
      </trkpt>
      <trkpt lat="43.55256" lon="2.7982">
        <ele>990</ele>
        <time>2019-04-16T14:11:15Z</time>
      </trkpt>
      <trkpt lat="43.55295" lon="2.79767">
        <ele>988</ele>
        <time>2019-04-16T14:11:22Z</time>
      </trkpt>
      <trkpt lat="43.5531" lon="2.79715">
        <ele>985.2</ele>
        <time>2019-04-16T14:11:30Z</time>
      </trkpt>
      <trkpt lat="43.5531" lon="2.79706">
        <ele>984.9</ele>
        <time>2019-04-16T14:11:31Z</time>
      </trkpt>
      <trkpt lat="43.5531" lon="2.79688">
        <ele>984.1</ele>
        <time>2019-04-16T14:11:33Z</time>
      </trkpt>
      <trkpt lat="43.5531" lon="2.79678">
        <ele>983.8</ele>
        <time>2019-04-16T14:11:34Z</time>
      </trkpt>
      <trkpt lat="43.55326" lon="2.79584">
        <ele>980.5</ele>
        <time>2019-04-16T14:11:43Z</time>
      </trkpt>
      <trkpt lat="43.55342" lon="2.79531">
        <ele>977.6</ele>
        <time>2019-04-16T14:11:49Z</time>
      </trkpt>
      <trkpt lat="43.5534" lon="2.79523">
        <ele>977.3</ele>
        <time>2019-04-16T14:11:50Z</time>
      </trkpt>
      <trkpt lat="43.55338" lon="2.79517">
        <ele>977.1</ele>
        <time>2019-04-16T14:11:51Z</time>
      </trkpt>
      <trkpt lat="43.55335" lon="2.79512">
        <ele>976.8</ele>
        <time>2019-04-16T14:11:52Z</time>
      </trkpt>
      <trkpt lat="43.55331" lon="2.79507">
        <ele>976.6</ele>
        <time>2019-04-16T14:11:53Z</time>
      </trkpt>
      <trkpt lat="43.55324" lon="2.79504">
        <ele>976.4</ele>
        <time>2019-04-16T14:11:54Z</time>
      </trkpt>
      <trkpt lat="43.55318" lon="2.79502">
        <ele>976.2</ele>
        <time>2019-04-16T14:11:55Z</time>
      </trkpt>
      <trkpt lat="43.55315" lon="2.79498">
        <ele>975.8</ele>
        <time>2019-04-16T14:11:56Z</time>
      </trkpt>
      <trkpt lat="43.55303" lon="2.79432">
        <ele>973</ele>
        <time>2019-04-16T14:12:06Z</time>
      </trkpt>
      <trkpt lat="43.55297" lon="2.79323">
        <ele>974.2</ele>
        <time>2019-04-16T14:12:15Z</time>
      </trkpt>
      <trkpt lat="43.55294" lon="2.79317">
        <ele>974.1</ele>
        <time>2019-04-16T14:12:16Z</time>
      </trkpt>
      <trkpt lat="43.5529" lon="2.79311">
        <ele>974.1</ele>
        <time>2019-04-16T14:12:17Z</time>
      </trkpt>
      <trkpt lat="43.55286" lon="2.79307">
        <ele>974</ele>
        <time>2019-04-16T14:12:18Z</time>
      </trkpt>
      <trkpt lat="43.55284" lon="2.79302">
        <ele>974</ele>
        <time>2019-04-16T14:12:19Z</time>
      </trkpt>
      <trkpt lat="43.55283" lon="2.79296">
        <ele>974</ele>
        <time>2019-04-16T14:12:20Z</time>
      </trkpt>
      <trkpt lat="43.55275" lon="2.79279">
        <ele>975.3</ele>
        <time>2019-04-16T14:12:23Z</time>
      </trkpt>
      <trkpt lat="43.5527" lon="2.79276">
        <ele>975.7</ele>
        <time>2019-04-16T14:12:24Z</time>
      </trkpt>
      <trkpt lat="43.55266" lon="2.79273">
        <ele>976.1</ele>
        <time>2019-04-16T14:12:25Z</time>
      </trkpt>
      <trkpt lat="43.55261" lon="2.7927">
        <ele>976.5</ele>
        <time>2019-04-16T14:12:26Z</time>
      </trkpt>
      <trkpt lat="43.55257" lon="2.79268">
        <ele>977.1</ele>
        <time>2019-04-16T14:12:27Z</time>
      </trkpt>
      <trkpt lat="43.55252" lon="2.79266">
        <ele>977.7</ele>
        <time>2019-04-16T14:12:28Z</time>
      </trkpt>
      <trkpt lat="43.55227" lon="2.79246">
        <ele>981</ele>
        <time>2019-04-16T14:12:33Z</time>
      </trkpt>
      <trkpt lat="43.55194" lon="2.79211">
        <ele>984</ele>
        <time>2019-04-16T14:12:39Z</time>
      </trkpt>
      <trkpt lat="43.55193" lon="2.79203">
        <ele>984.4</ele>
        <time>2019-04-16T14:12:40Z</time>
      </trkpt>
      <trkpt lat="43.55193" lon="2.79195">
        <ele>984.8</ele>
        <time>2019-04-16T14:12:41Z</time>
      </trkpt>
      <trkpt lat="43.55195" lon="2.79185">
        <ele>985.1</ele>
        <time>2019-04-16T14:12:42Z</time>
      </trkpt>
      <trkpt lat="43.55197" lon="2.79174">
        <ele>985.5</ele>
        <time>2019-04-16T14:12:43Z</time>
      </trkpt>
      <trkpt lat="43.55202" lon="2.79163">
        <ele>985.9</ele>
        <time>2019-04-16T14:12:44Z</time>
      </trkpt>
      <trkpt lat="43.55207" lon="2.79149">
        <ele>986.8</ele>
        <time>2019-04-16T14:12:45Z</time>
      </trkpt>
      <trkpt lat="43.55209" lon="2.79136">
        <ele>987.3</ele>
        <time>2019-04-16T14:12:46Z</time>
      </trkpt>
      <trkpt lat="43.55232" lon="2.79058">
        <ele>990.5</ele>
        <time>2019-04-16T14:12:52Z</time>
      </trkpt>
      <trkpt lat="43.55273" lon="2.78942">
        <ele>992.7</ele>
        <time>2019-04-16T14:13:02Z</time>
      </trkpt>
      <trkpt lat="43.55272" lon="2.78934">
        <ele>992</ele>
        <time>2019-04-16T14:13:06Z</time>
      </trkpt>
      <trkpt lat="43.55269" lon="2.78934">
        <ele>991.6</ele>
        <time>2019-04-16T14:13:08Z</time>
      </trkpt>
      <trkpt lat="43.55269" lon="2.7894">
        <ele>991</ele>
        <time>2019-04-16T14:13:26Z</time>
      </trkpt>
      <trkpt lat="43.55278" lon="2.78945">
        <ele>990.2</ele>
        <time>2019-04-16T14:14:01Z</time>
      </trkpt>
      <trkpt lat="43.55272" lon="2.78952">
        <ele>990.1</ele>
        <time>2019-04-16T14:14:20Z</time>
      </trkpt>
      <trkpt lat="43.55273" lon="2.78955">
        <ele>990.3</ele>
        <time>2019-04-16T14:14:37Z</time>
      </trkpt>
      <trkpt lat="43.55273" lon="2.78957">
        <ele>989.2</ele>
        <time>2019-04-16T14:14:59Z</time>
      </trkpt>
      <trkpt lat="43.5527" lon="2.78955">
        <ele>989.1</ele>
        <time>2019-04-16T14:15:17Z</time>
      </trkpt>
      <trkpt lat="43.55273" lon="2.78955">
        <ele>989</ele>
        <time>2019-04-16T14:15:20Z</time>
      </trkpt>
      <trkpt lat="43.55273" lon="2.78955">
        <ele>989</ele>
        <time>2019-04-16T14:15:33Z</time>
      </trkpt>
      <trkpt lat="43.55271" lon="2.78957">
        <ele>988.6</ele>
        <time>2019-04-16T14:15:49Z</time>
      </trkpt>
      <trkpt lat="43.55272" lon="2.78955">
        <ele>988.5</ele>
        <time>2019-04-16T14:15:53Z</time>
      </trkpt>
      <trkpt lat="43.5527" lon="2.78954">
        <ele>988.6</ele>
        <time>2019-04-16T14:16:07Z</time>
      </trkpt>
      <trkpt lat="43.5527" lon="2.7895">
        <ele>988.3</ele>
        <time>2019-04-16T14:16:24Z</time>
      </trkpt>
      <trkpt lat="43.55271" lon="2.78947">
        <ele>988.3</ele>
        <time>2019-04-16T14:16:41Z</time>
      </trkpt>
      <trkpt lat="43.55264" lon="2.78942">
        <ele>989.6</ele>
        <time>2019-04-16T14:17:03Z</time>
      </trkpt>
      <trkpt lat="43.55259" lon="2.78941">
        <ele>991</ele>
        <time>2019-04-16T14:17:15Z</time>
      </trkpt>
      <trkpt lat="43.5524" lon="2.78941">
        <ele>992</ele>
        <time>2019-04-16T14:17:27Z</time>
      </trkpt>
      <trkpt lat="43.55238" lon="2.78941">
        <ele>992.2</ele>
        <time>2019-04-16T14:17:28Z</time>
      </trkpt>
      <trkpt lat="43.55224" lon="2.78944">
        <ele>994</ele>
        <time>2019-04-16T14:17:37Z</time>
      </trkpt>
      <trkpt lat="43.55211" lon="2.78943">
        <ele>997.2</ele>
        <time>2019-04-16T14:17:51Z</time>
      </trkpt>
      <trkpt lat="43.55206" lon="2.78947">
        <ele>1000.4</ele>
        <time>2019-04-16T14:18:05Z</time>
      </trkpt>
      <trkpt lat="43.55204" lon="2.78947">
        <ele>1000.9</ele>
        <time>2019-04-16T14:18:08Z</time>
      </trkpt>
      <trkpt lat="43.55195" lon="2.78936">
        <ele>1002.4</ele>
        <time>2019-04-16T14:18:22Z</time>
      </trkpt>
      <trkpt lat="43.55185" lon="2.78932">
        <ele>1002.8</ele>
        <time>2019-04-16T14:18:44Z</time>
      </trkpt>
      <trkpt lat="43.55184" lon="2.78927">
        <ele>1002.8</ele>
        <time>2019-04-16T14:18:50Z</time>
      </trkpt>
      <trkpt lat="43.55187" lon="2.78919">
        <ele>1002.7</ele>
        <time>2019-04-16T14:18:55Z</time>
      </trkpt>
      <trkpt lat="43.55191" lon="2.78911">
        <ele>1002.6</ele>
        <time>2019-04-16T14:18:59Z</time>
      </trkpt>
      <trkpt lat="43.55195" lon="2.78892">
        <ele>1002.9</ele>
        <time>2019-04-16T14:19:07Z</time>
      </trkpt>
      <trkpt lat="43.5519" lon="2.78882">
        <ele>1003</ele>
        <time>2019-04-16T14:19:11Z</time>
      </trkpt>
      <trkpt lat="43.55184" lon="2.78863">
        <ele>1002.8</ele>
        <time>2019-04-16T14:19:15Z</time>
      </trkpt>
      <trkpt lat="43.55176" lon="2.78843">
        <ele>1002.3</ele>
        <time>2019-04-16T14:19:18Z</time>
      </trkpt>
      <trkpt lat="43.55157" lon="2.78811">
        <ele>998.9</ele>
        <time>2019-04-16T14:19:23Z</time>
      </trkpt>
      <trkpt lat="43.55152" lon="2.78804">
        <ele>998.2</ele>
        <time>2019-04-16T14:19:24Z</time>
      </trkpt>
      <trkpt lat="43.5513" lon="2.78753">
        <ele>993.7</ele>
        <time>2019-04-16T14:19:30Z</time>
      </trkpt>
      <trkpt lat="43.55122" lon="2.78731">
        <ele>991.5</ele>
        <time>2019-04-16T14:19:33Z</time>
      </trkpt>
      <trkpt lat="43.55111" lon="2.78715">
        <ele>989</ele>
        <time>2019-04-16T14:19:41Z</time>
      </trkpt>
      <trkpt lat="43.55111" lon="2.78708">
        <ele>989.1</ele>
        <time>2019-04-16T14:19:44Z</time>
      </trkpt>
      <trkpt lat="43.55112" lon="2.78692">
        <ele>989.6</ele>
        <time>2019-04-16T14:19:50Z</time>
      </trkpt>
      <trkpt lat="43.5511" lon="2.78672">
        <ele>992.1</ele>
        <time>2019-04-16T14:19:59Z</time>
      </trkpt>
      <trkpt lat="43.55091" lon="2.78656">
        <ele>992.9</ele>
        <time>2019-04-16T14:20:07Z</time>
      </trkpt>
      <trkpt lat="43.55073" lon="2.78624">
        <ele>995.2</ele>
        <time>2019-04-16T14:20:21Z</time>
      </trkpt>
      <trkpt lat="43.5507" lon="2.78619">
        <ele>995.9</ele>
        <time>2019-04-16T14:20:24Z</time>
      </trkpt>
      <trkpt lat="43.5507" lon="2.78604">
        <ele>998.1</ele>
        <time>2019-04-16T14:20:32Z</time>
      </trkpt>
      <trkpt lat="43.55068" lon="2.78599">
        <ele>998.9</ele>
        <time>2019-04-16T14:20:35Z</time>
      </trkpt>
      <trkpt lat="43.55064" lon="2.78594">
        <ele>999.7</ele>
        <time>2019-04-16T14:20:37Z</time>
      </trkpt>
      <trkpt lat="43.55061" lon="2.78583">
        <ele>1000.9</ele>
        <time>2019-04-16T14:20:42Z</time>
      </trkpt>
      <trkpt lat="43.55054" lon="2.78572">
        <ele>1002.3</ele>
        <time>2019-04-16T14:20:47Z</time>
      </trkpt>
      <trkpt lat="43.55043" lon="2.78556">
        <ele>1004.2</ele>
        <time>2019-04-16T14:20:54Z</time>
      </trkpt>
      <trkpt lat="43.55033" lon="2.78535">
        <ele>1006.7</ele>
        <time>2019-04-16T14:21:03Z</time>
      </trkpt>
      <trkpt lat="43.55032" lon="2.78529">
        <ele>1007.7</ele>
        <time>2019-04-16T14:21:07Z</time>
      </trkpt>
      <trkpt lat="43.55031" lon="2.78513">
        <ele>1009.4</ele>
        <time>2019-04-16T14:21:15Z</time>
      </trkpt>
      <trkpt lat="43.55025" lon="2.78506">
        <ele>1010.2</ele>
        <time>2019-04-16T14:21:19Z</time>
      </trkpt>
      <trkpt lat="43.55021" lon="2.78496">
        <ele>1011</ele>
        <time>2019-04-16T14:21:24Z</time>
      </trkpt>
      <trkpt lat="43.54988" lon="2.78476">
        <ele>1012</ele>
        <time>2019-04-16T14:21:38Z</time>
      </trkpt>
      <trkpt lat="43.54982" lon="2.7847">
        <ele>1011.9</ele>
        <time>2019-04-16T14:21:42Z</time>
      </trkpt>
      <trkpt lat="43.54974" lon="2.78466">
        <ele>1011.4</ele>
        <time>2019-04-16T14:21:51Z</time>
      </trkpt>
      <trkpt lat="43.54972" lon="2.78466">
        <ele>1010.8</ele>
        <time>2019-04-16T14:21:57Z</time>
      </trkpt>
      <trkpt lat="43.54968" lon="2.78469">
        <ele>1010.8</ele>
        <time>2019-04-16T14:22:07Z</time>
      </trkpt>
      <trkpt lat="43.54968" lon="2.78467">
        <ele>1010.8</ele>
        <time>2019-04-16T14:22:10Z</time>
      </trkpt>
      <trkpt lat="43.54971" lon="2.78462">
        <ele>1010.8</ele>
        <time>2019-04-16T14:22:27Z</time>
      </trkpt>
    </trkseg>
  </trk>
</gpx>